[[{"header":{"parameterUnit":"m.s-1","parameterCategory":1,"la1":30.6,"la2":28.766,"lo1":-90.7593,"lo2":-88.6598,"dy":0.0162,"dx":0.0183,"nx":116,"ny":114,"refTime":"2023-06-26T12:00:00:Z","depth":0,"parameterNumber":2,"parameterNumberName":"U-component_of_WINDS"},"data":[0.0,0.0,0.0,0.0,0.0,0.0,0.0,0.0,0.0,0.0,0.0,0.0,0.0,0.0,0.0,0.0,0.0,0.0,0.0,0.0,0.0,0.0,0.0,0.0,0.0,0.0,0.0,0.0,0.0,0.0,0.0,0.0,0.0,0.0,0.0,0.0,0.0,0.0,0.0,0.0,0.0,0.0,0.0,0.0,0.0,0.0,0.0,0.0,0.0,0.0,0.0,0.0,0.0,0.0,0.0,0.0,0.0,0.0,0.0,0.0,0.0,0.0,0.0,0.0,0.0,0.0,0.0,0.0,0.0,0.0,0.0,0.0,0.0,0.0,0.0,0.0,0.0,0.0,0.0,0.0,0.0,0.0,0.0,0.0,0.0,0.0,0.0,0.0,0.0,0.0,0.0,0.0,0.0,0.0,0.0,0.0,0.0,0.0,0.0,0.0,0.0,0.0,0.0,0.0,0.0,0.0,0.0,0.0,0.0,0.0,0.0,0.0,0.0,0.0,0.0,0.0,0.0,0.0,0.0,0.0,0.0,0.0,0.0,0.0,0.0,0.0,0.0,0.0,0.0,0.0,0.0,0.0,0.0,0.0,0.0,0.0,0.0,0.0,0.0,0.0,0.0,0.0,0.0,0.0,0.0,0.0,0.0,0.0,0.0,0.0,0.0,0.0,0.0,0.0,0.0,0.0,0.0,0.0,0.0,0.0,0.0,0.0,0.0,0.0,0.0,0.0,0.0,0.0,0.0,0.0,0.0,0.0,0.0,0.0,0.0,0.0,0.0,0.0,0.0,0.0,0.0,0.0,0.0,0.0,0.0,0.0,0.0,0.0,0.0,0.0,0.0,0.0,0.0,0.0,0.0,0.0,0.0,0.0,0.0,0.0,0.0,0.0,0.0,0.0,0.0,0.0,0.0,0.0,0.0,0.0,0.0,0.0,0.0,0.0,0.0,0.0,0.0,0.0,0.0,0.0,0.0,0.0,0.0,0.0,0.0,0.0,0.0,0.0,0.0,0.0,0.0,0.0,0.0,0.0,0.0,0.0,0.0,0.0,0.0,0.0,0.0,0.0,0.0,0.0,0.0,0.0,0.0,0.0,0.0,0.0,0.0,0.0,0.0,0.0,0.0,0.0,0.0,0.0,0.0,0.0,0.0,0.0,0.0,0.0,0.0,0.0,0.0,0.0,0.0,0.0,0.0,0.0,0.0,0.0,0.0,0.0,0.0,0.0,0.0,0.0,0.0,0.0,0.0,0.0,0.0,0.0,0.0,0.0,0.0,0.0,0.0,0.0,0.0,0.0,0.0,0.0,0.0,0.0,0.0,0.0,0.0,0.0,0.0,0.0,0.0,0.0,0.0,0.0,0.0,0.0,0.0,0.0,0.0,0.0,0.0,0.0,0.0,0.0,0.0,0.0,0.0,0.0,0.0,0.0,0.0,0.0,0.0,0.0,0.0,0.0,0.0,0.0,0.0,0.0,0.0,0.0,0.0,0.0,0.0,0.0,0.0,0.0,0.0,0.0,0.0,0.0,0.0,0.0,0.0,0.0,0.0,0.0,0.0,0.0,0.0,0.0,0.0,0.0,0.0,0.0,0.0,0.0,0.0,0.0,0.0,0.0,0.0,0.0,0.0,0.0,0.0,0.0,0.0,0.0,0.0,0.0,0.0,0.0,0.0,0.0,0.0,0.0,0.0,0.0,0.0,0.0,0.0,0.0,0.0,0.0,0.0,0.0,0.0,0.0,0.0,0.0,0.0,0.0,0.0,0.0,0.0,0.0,0.0,0.0,0.0,0.0,0.0,0.0,0.0,0.0,0.0,0.0,0.0,0.0,0.0,0.0,0.0,0.0,0.0,0.0,0.0,0.0,0.0,0.0,0.0,0.0,0.0,0.0,0.0,0.0,0.0,0.0,0.0,0.0,0.0,0.0,0.0,0.0,0.0,0.0,0.0,0.0,0.0,0.0,0.0,0.0,0.0,0.0,0.0,0.0,0.0,0.0,0.0,0.0,0.0,0.0,0.0,0.0,0.0,0.0,0.0,0.0,0.0,0.0,0.0,0.0,0.0,0.0,0.0,0.0,0.0,0.0,0.0,0.0,0.0,0.0,0.0,0.0,0.0,0.0,0.0,0.0,0.0,0.0,0.0,0.0,0.0,0.0,0.0,0.0,0.0,0.0,0.0,0.0,0.0,0.0,0.0,0.0,0.0,0.0,0.0,0.0,0.0,0.0,0.0,0.0,0.0,0.0,0.0,0.0,0.0,0.0,0.0,0.0,0.0,0.0,0.0,0.0,0.0,0.0,0.0,0.0,0.0,0.0,0.0,0.0,0.0,0.0,0.0,0.0,0.0,0.0,0.0,0.0,0.0,0.0,0.0,0.0,0.0,0.0,0.0,0.0,0.0,0.0,0.0,0.0,0.0,0.0,0.0,0.0,0.0,0.0,0.0,0.0,0.0,0.0,0.0,0.0,0.0,0.0,0.0,0.0,0.0,0.0,0.0,0.0,0.0,0.0,0.0,0.0,0.0,0.0,0.0,0.0,0.0,0.0,0.0,0.0,0.0,0.0,0.0,0.0,0.0,0.0,0.0,0.0,0.0,0.0,0.0,0.0,0.0,0.0,0.0,0.0,0.0,0.0,0.0,0.0,0.0,0.0,0.0,0.0,0.0,0.0,0.0,0.0,0.0,0.0,0.0,0.0,0.0,0.0,0.0,0.0,0.0,0.0,0.0,0.0,0.0,0.0,0.0,0.0,0.0,0.0,0.0,0.0,0.0,0.0,0.0,0.0,0.0,0.0,0.0,0.0,0.0,0.0,0.0,0.0,0.0,0.0,0.0,0.0,0.0,0.0,0.0,0.0,0.0,0.0,0.0,0.0,0.0,0.0,0.0,0.0,0.0,0.0,0.0,0.0,0.0,0.0,0.0,0.0,0.0,0.0,0.0,0.0,0.0,0.0,0.0,0.0,0.0,0.0,0.0,0.0,0.0,0.0,0.0,0.0,0.0,0.0,0.0,0.0,0.0,0.0,0.0,0.0,0.0,0.0,0.0,0.0,0.0,0.0,0.0,0.0,0.0,0.0,0.0,0.0,0.0,0.0,0.0,0.0,0.0,0.0,0.0,0.0,0.0,0.0,0.0,0.0,0.0,0.0,0.0,0.0,0.0,0.0,0.0,0.0,0.0,0.0,0.0,0.0,0.0,0.0,0.0,0.0,0.0,0.0,0.0,0.0,0.0,0.0,0.0,0.0,0.0,0.0,0.0,0.0,0.0,0.0,0.0,0.0,0.0,0.0,0.0,0.0,0.0,0.0,0.0,0.0,0.0,0.0,0.0,0.0,0.0,0.0,0.0,0.0,0.0,0.0,0.0,0.0,0.0,0.0,0.0,0.0,0.0,0.0,0.0,0.0,0.0,0.0,0.0,0.0,0.0,0.0,0.0,0.0,0.0,0.0,0.0,0.0,0.0,0.0,0.0,0.0,0.0,0.0,0.0,0.0,0.0,0.0,0.0,0.0,0.0,0.0,0.0,0.0,0.0,0.0,0.0,0.0,0.0,0.0,0.0,0.0,0.0,0.0,0.0,0.0,0.0,0.0,0.0,0.0,0.0,0.0,0.0,0.0,0.0,0.0,0.0,0.0,0.0,0.0,0.0,0.0,0.0,0.0,0.0,0.0,0.0,0.0,0.0,0.0,0.0,0.0,0.0,0.0,0.0,0.0,0.0,0.0,0.0,0.0,0.0,0.0,0.0,0.0,0.0,0.0,0.0,0.0,0.0,0.0,0.0,0.0,0.0,0.0,0.0,0.0,0.0,0.0,0.0,0.0,0.0,0.0,0.0,0.0,0.0,0.0,0.0,0.0,0.0,0.0,0.0,0.0,0.0,0.0,0.0,0.0,0.0,0.0,0.0,0.0,0.0,0.0,0.0,0.0,0.0,0.0,0.0,0.0,0.0,0.0,0.0,0.0,0.0,0.0,0.0,0.0,0.0,0.0,0.0,0.0,0.0,0.0,0.0,0.0,0.0,0.0,0.0,0.0,0.0,0.0,0.0,0.0,0.0,0.0,0.0,0.0,0.0,0.0,0.0,0.0,0.0,0.0,0.0,0.0,0.0,0.0,0.0,0.0,0.0,0.0,0.0,0.0,0.0,0.0,0.0,0.0,0.0,0.0,0.0,0.0,0.0,0.0,0.0,0.0,0.0,0.0,0.0,0.0,0.0,0.0,0.0,0.0,0.0,0.0,0.0,0.0,0.0,0.0,0.0,0.0,0.0,0.0,0.0,0.0,0.0,0.0,0.0,0.0,0.0,0.0,0.0,0.0,0.0,0.0,0.0,0.0,0.0,0.0,0.0,0.0,0.0,0.0,0.0,0.0,0.0,0.0,0.0,0.0,0.0,0.0,0.0,0.0,0.0,0.0,0.0,0.0,0.0,0.0,0.0,0.0,0.0,0.0,0.0,0.0,0.0,0.0,0.0,0.0,0.0,0.0,0.0,0.0,0.0,0.0,0.0,0.0,0.0,0.0,0.0,0.0,0.0,0.0,0.0,0.0,0.0,0.0,0.0,0.0,0.0,0.0,0.0,0.0,0.0,0.0,0.0,0.0,0.0,0.0,0.0,0.0,0.0,0.0,0.0,0.0,0.0,0.0,0.0,0.0,0.0,0.0,0.0,0.0,0.0,0.0,0.0,0.0,0.0,0.0,0.0,0.0,0.0,0.0,0.0,0.0,0.0,0.0,0.0,0.0,0.0,0.0,0.0,0.0,0.0,0.0,0.0,0.0,0.0,0.0,0.0,0.0,0.0,0.0,0.0,0.0,0.0,0.0,0.0,0.0,0.0,0.0,0.0,0.0,0.0,0.0,0.0,0.0,0.0,0.0,0.0,0.0,0.0,0.0,0.0,0.0,0.0,0.0,0.0,0.0,0.0,0.0,0.0,0.0,0.0,0.0,0.0,0.0,0.0,0.0,0.0,0.0,0.0,0.0,0.0,0.0,0.0,0.0,0.0,0.0,0.0,0.0,0.0,0.0,0.0,0.0,0.0,0.0,0.0,0.0,0.0,0.0,0.0,0.0,0.0,0.0,0.0,0.0,0.0,0.0,0.0,0.0,0.0,0.0,0.0,0.0,0.0,0.0,0.0,0.0,0.0,0.0,0.0,0.0,0.0,0.0,0.0,0.0,0.0,0.0,0.0,0.0,0.0,0.0,0.0,0.0,0.0,0.0,0.0,0.0,0.0,0.0,0.0,0.0,0.0,0.0,0.0,0.0,0.0,0.0,0.0,0.0,0.0,0.0,0.0,0.0,0.0,0.0,0.0,0.0,0.0,0.0,0.0,0.0,0.0,0.0,0.0,0.0,0.0,0.0,0.0,0.0,0.0,0.0,0.0,0.0,0.0,0.0,0.0,0.0,0.0,0.0,0.0,0.0,0.0,0.0,0.0,0.0,0.0,0.0,0.0,0.0,0.0,0.0,0.0,0.0,0.0,0.0,0.0,0.0,0.0,0.0,0.0,0.0,0.0,0.0,0.0,0.0,0.0,0.0,0.0,0.0,0.0,0.0,0.0,0.0,0.0,0.0,0.0,0.0,0.0,0.0,0.0,0.0,0.0,0.0,0.0,0.0,0.0,0.0,0.0,0.0,0.0,0.0,0.0,0.0,0.0,0.0,0.0,0.0,0.0,0.0,0.0,0.0,0.0,0.0,0.0,0.0,0.0,0.0,0.0,0.0,0.0,0.0,0.0,0.0,0.0,0.0,0.0,0.0,0.0,0.0,0.0,0.0,0.0,0.0,0.0,0.0,0.0,0.0,0.0,0.0,0.0,0.0,0.0,0.0,0.0,0.0,0.0,0.0,0.0,0.0,0.0,0.0,0.0,0.0,0.0,0.0,0.0,0.0,0.0,0.0,0.0,0.0,0.0,0.0,0.0,0.0,0.0,0.0,0.0,0.0,0.0,0.0,0.0,0.0,0.0,0.0,0.0,0.0,0.0,0.0,0.0,0.0,0.0,0.0,0.0,0.0,0.0,0.0,0.0,0.0,0.0,0.0,0.0,0.0,0.0,0.0,0.0,0.0,0.0,0.0,0.0,0.0,0.0,0.0,0.0,0.0,-2.9211,0.0,0.0,0.0,0.0,0.0,0.0,0.0,0.0,0.0,0.0,0.0,0.0,0.0,0.0,0.0,0.0,0.0,0.0,0.0,0.0,0.0,0.0,0.0,0.0,0.0,0.0,0.0,0.0,0.0,0.0,0.0,0.0,0.0,0.0,0.0,0.0,0.0,0.0,0.0,0.0,0.0,0.0,0.0,0.0,0.0,0.0,0.0,0.0,0.0,0.0,0.0,0.0,0.0,0.0,0.0,0.0,0.0,0.0,0.0,0.0,0.0,0.0,0.0,0.0,0.0,0.0,0.0,0.0,0.0,0.0,0.0,0.0,0.0,0.0,0.0,0.0,0.0,0.0,0.0,0.0,0.0,0.0,0.0,0.0,0.0,0.0,0.0,0.0,0.0,0.0,0.0,0.0,0.0,0.0,0.0,0.0,0.0,0.0,0.0,0.0,0.0,0.0,0.0,0.0,0.0,0.0,0.0,0.0,0.0,0.0,0.0,0.0,0.0,0.0,0.0,0.0,-2.9889,0.0,0.0,0.0,0.0,0.0,0.0,0.0,0.0,0.0,0.0,0.0,0.0,0.0,0.0,0.0,0.0,0.0,0.0,0.0,0.0,0.0,0.0,0.0,0.0,0.0,0.0,0.0,0.0,0.0,0.0,0.0,0.0,0.0,0.0,0.0,0.0,0.0,0.0,0.0,0.0,0.0,0.0,0.0,0.0,0.0,0.0,0.0,0.0,0.0,0.0,0.0,0.0,0.0,0.0,0.0,0.0,0.0,0.0,0.0,0.0,0.0,0.0,0.0,0.0,0.0,0.0,0.0,0.0,0.0,0.0,0.0,0.0,0.0,0.0,0.0,0.0,0.0,0.0,0.0,0.0,0.0,0.0,0.0,0.0,0.0,0.0,0.0,0.0,0.0,0.0,0.0,0.0,0.0,0.0,0.0,0.0,0.0,0.0,0.0,0.0,0.0,0.0,0.0,0.0,0.0,0.0,0.0,0.0,-3.2589,-3.2643,-3.2643,-3.2643,-3.2643,-3.2543,-3.2042,-3.1663,-3.1365,-3.0887,0.0,0.0,0.0,0.0,0.0,0.0,0.0,0.0,0.0,0.0,0.0,0.0,0.0,0.0,0.0,0.0,0.0,0.0,0.0,0.0,0.0,0.0,0.0,0.0,0.0,0.0,0.0,0.0,0.0,0.0,0.0,0.0,0.0,0.0,0.0,0.0,0.0,0.0,0.0,0.0,0.0,0.0,0.0,0.0,0.0,0.0,0.0,0.0,0.0,0.0,0.0,0.0,0.0,0.0,0.0,0.0,0.0,0.0,0.0,0.0,0.0,0.0,0.0,0.0,0.0,0.0,0.0,0.0,0.0,0.0,0.0,0.0,0.0,0.0,0.0,0.0,0.0,0.0,0.0,0.0,0.0,0.0,0.0,0.0,0.0,0.0,-2.3721,-2.5439,0.0,0.0,0.0,0.0,0.0,0.0,0.0,0.0,0.0,0.0,0.0,0.0,0.0,-3.1341,-3.1938,-3.2535,-3.3132,-3.3639,-3.4231,-3.4489,-3.4489,-3.4489,-3.4332,-3.4176,-3.4095,0.0,-3.1702,-3.0831,0.0,0.0,0.0,0.0,0.0,0.0,0.0,0.0,0.0,0.0,0.0,0.0,0.0,0.0,0.0,0.0,0.0,0.0,0.0,0.0,0.0,0.0,0.0,0.0,0.0,0.0,0.0,0.0,0.0,0.0,0.0,0.0,0.0,0.0,0.0,0.0,0.0,0.0,0.0,0.0,0.0,0.0,0.0,0.0,0.0,0.0,0.0,0.0,0.0,0.0,0.0,0.0,0.0,0.0,0.0,0.0,0.0,0.0,0.0,0.0,0.0,0.0,0.0,0.0,0.0,0.0,0.0,0.0,0.0,0.0,0.0,0.0,0.0,0.0,0.0,0.0,0.0,0.0,0.0,0.0,0.0,0.0,0.0,0.0,0.0,-2.4625,-2.6029,-2.6383,-2.7448,-2.8304,0.0,0.0,0.0,0.0,0.0,0.0,0.0,0.0,0.0,-3.2069,-3.2253,-3.2576,-3.3173,-3.3756,-3.4353,-3.4936,-3.5208,-3.533,-3.533,-3.517,-3.509,-3.5009,-3.478,-3.4179,-3.3422,-3.2683,-3.2328,-3.208,0.0,0.0,0.0,0.0,-2.7305,-2.7232,0.0,0.0,0.0,0.0,0.0,0.0,0.0,0.0,0.0,0.0,0.0,0.0,0.0,0.0,0.0,0.0,0.0,0.0,0.0,0.0,0.0,0.0,0.0,0.0,0.0,0.0,0.0,0.0,0.0,0.0,0.0,0.0,0.0,0.0,0.0,0.0,0.0,0.0,0.0,0.0,0.0,0.0,0.0,0.0,0.0,0.0,0.0,0.0,0.0,0.0,0.0,0.0,0.0,0.0,0.0,0.0,0.0,0.0,0.0,0.0,0.0,0.0,0.0,0.0,0.0,0.0,0.0,0.0,0.0,0.0,0.0,0.0,0.0,0.0,0.0,0.0,0.0,-2.6127,-2.7567,-2.7391,-2.8937,-2.9883,0.0,0.0,0.0,0.0,0.0,0.0,-3.2401,-3.3366,-3.3776,-3.3533,-3.3559,-3.3797,-3.4394,-3.4841,-3.5289,-3.571,-3.571,-3.5629,-3.5642,-3.548,-3.5318,-3.5236,-3.4921,-3.4756,-3.462,-3.4054,-3.3554,-3.308,-3.2123,-3.1772,-3.1395,-2.9144,-2.8443,-2.8393,0.0,0.0,0.0,0.0,0.0,0.0,0.0,0.0,0.0,0.0,0.0,0.0,0.0,0.0,0.0,0.0,0.0,0.0,0.0,0.0,0.0,0.0,0.0,0.0,0.0,0.0,0.0,0.0,0.0,0.0,0.0,0.0,0.0,0.0,0.0,0.0,0.0,0.0,0.0,0.0,0.0,0.0,0.0,0.0,0.0,0.0,0.0,0.0,0.0,0.0,0.0,0.0,0.0,0.0,0.0,0.0,0.0,0.0,0.0,0.0,0.0,0.0,0.0,0.0,0.0,0.0,0.0,0.0,0.0,0.0,0.0,0.0,0.0,0.0,0.0,0.0,0.0,0.0,0.0,-2.8503,-3.0284,0.0,0.0,0.0,0.0,-3.1246,-3.3067,-3.3559,-3.2259,-3.4059,-3.4725,-3.3914,-3.4434,-3.5031,-3.5615,-3.5655,-3.5683,-3.571,-3.571,-3.5642,-3.5399,-3.5399,-3.5154,-3.4839,-3.4839,-3.4673,-3.4358,-3.3809,-3.3574,-3.343,-3.228,-3.1601,-3.1091,-2.8879,-2.8174,-2.7959,0.0,0.0,0.0,0.0,0.0,0.0,0.0,0.0,0.0,0.0,0.0,0.0,0.0,0.0,0.0,0.0,0.0,0.0,0.0,0.0,0.0,0.0,0.0,0.0,0.0,0.0,0.0,0.0,0.0,0.0,0.0,0.0,0.0,0.0,0.0,0.0,0.0,0.0,0.0,0.0,0.0,0.0,0.0,0.0,0.0,0.0,0.0,0.0,0.0,0.0,0.0,0.0,0.0,0.0,0.0,0.0,0.0,0.0,0.0,0.0,0.0,0.0,0.0,0.0,0.0,0.0,0.0,0.0,0.0,0.0,0.0,0.0,0.0,0.0,0.0,0.0,0.0,0.0,0.0,-2.9129,-3.1109,0.0,-3.1893,-3.2046,-3.225,-3.2426,-3.4441,-3.5382,-3.4701,-3.6168,-3.6685,-3.5828,-3.5514,-3.5506,-3.571,-3.5562,-3.548,-3.548,-3.5399,-3.5318,-3.5236,-3.5086,-3.4921,-3.4756,-3.4577,-3.4481,-3.4384,-3.3579,-3.3033,-3.2651,-3.186,-3.0879,-2.9882,-2.8445,-2.779,-2.7428,0.0,0.0,0.0,0.0,0.0,0.0,0.0,0.0,0.0,0.0,0.0,0.0,0.0,0.0,0.0,0.0,0.0,0.0,0.0,0.0,0.0,0.0,0.0,0.0,0.0,0.0,0.0,0.0,0.0,0.0,0.0,0.0,0.0,0.0,0.0,0.0,0.0,0.0,0.0,0.0,0.0,0.0,-1.3579,0.0,0.0,0.0,0.0,0.0,0.0,0.0,0.0,0.0,0.0,0.0,0.0,0.0,0.0,0.0,0.0,0.0,0.0,0.0,0.0,0.0,0.0,0.0,0.0,0.0,0.0,0.0,0.0,0.0,0.0,0.0,0.0,0.0,0.0,0.0,-2.953,-2.9922,-3.2085,-3.3342,-3.2813,-3.3132,-3.3444,-3.3647,-3.5451,-3.6408,-3.5892,-3.7053,-3.7372,-3.6559,-3.5937,-3.5629,-3.5642,-3.548,-3.5399,-3.5318,-3.5154,-3.5086,-3.5003,-3.4839,-3.4756,-3.466,-3.4134,-3.3953,-3.3869,-3.2895,-3.1957,-3.1099,-3.098,-3.0211,-2.8988,-2.7989,-2.7357,-2.691,0.0,0.0,0.0,0.0,0.0,0.0,0.0,0.0,0.0,0.0,0.0,0.0,0.0,0.0,0.0,0.0,0.0,0.0,0.0,0.0,0.0,0.0,0.0,0.0,0.0,0.0,0.0,0.0,0.0,0.0,0.0,0.0,0.0,0.0,0.0,0.0,0.0,0.0,0.0,0.0,0.0,0.0,-1.2493,0.0,0.0,0.0,0.0,0.0,0.0,0.0,0.0,0.0,0.0,0.0,0.0,0.0,0.0,0.0,0.0,0.0,0.0,0.0,0.0,0.0,0.0,0.0,0.0,0.0,0.0,0.0,0.0,0.0,0.0,0.0,0.0,0.0,-2.5315,-2.7599,-2.9533,-3.0849,-3.3138,-3.4417,-3.3927,-3.5031,-3.5479,-3.4896,-3.6147,-3.6559,-3.571,-3.648,-3.6559,-3.571,-3.571,-3.5642,-3.5399,-3.5399,-3.5318,-3.5086,-3.5086,-3.5003,-3.4756,-3.4756,-3.4673,-3.4314,-3.3407,-3.2968,-3.287,-3.1892,-3.0395,-2.8792,-2.9653,-2.9388,-2.8465,-2.755,-2.6921,-2.6398,0.0,0.0,0.0,0.0,0.0,0.0,0.0,0.0,0.0,0.0,0.0,0.0,0.0,0.0,0.0,0.0,0.0,0.0,0.0,0.0,0.0,0.0,0.0,0.0,0.0,0.0,0.0,0.0,0.0,0.0,0.0,0.0,0.0,0.0,0.0,0.0,0.0,0.0,0.0,0.0,0.0,0.0,-1.1514,0.0,0.0,0.0,0.0,0.0,0.0,0.0,0.0,0.0,0.0,0.0,0.0,0.0,0.0,0.0,0.0,0.0,0.0,0.0,0.0,0.0,0.0,0.0,0.0,0.0,0.0,0.0,0.0,0.0,0.0,0.0,0.0,-2.3753,-2.5132,-2.6748,-2.8256,-2.9428,-3.1801,-3.3558,-3.3887,-3.5022,-3.5642,-3.5493,-3.6383,-3.6559,-3.571,-3.648,-3.6559,-3.571,-3.5562,-3.5562,-3.5642,-3.5154,-3.5003,-3.5086,-3.4743,-3.4564,-3.4494,-3.4494,-3.4481,-3.4371,-3.3026,-3.25,-3.2294,-3.0346,-2.9021,-2.8222,-2.8847,-2.7963,-2.6425,-2.6125,-2.5529,-2.484,0.0,0.0,0.0,0.0,0.0,0.0,0.0,0.0,0.0,0.0,0.0,0.0,0.0,0.0,0.0,0.0,0.0,0.0,0.0,0.0,0.0,0.0,0.0,0.0,0.0,0.0,0.0,0.0,0.0,0.0,0.0,0.0,0.0,0.0,0.0,0.0,0.0,0.0,0.0,0.0,0.0,0.0,-0.9828,-0.9801,-0.9069,-0.8185,-0.7924,-0.7395,-0.6776,-0.6844,0.0,0.0,0.0,0.0,0.0,0.0,0.0,0.0,0.0,0.0,0.0,0.0,0.0,0.0,0.0,0.0,0.0,0.0,0.0,0.0,0.0,0.0,0.0,0.0,-2.2391,-2.3752,-2.4898,-2.6539,-2.8022,-2.9154,-3.1178,-3.2924,-3.3832,-3.4727,-3.5452,-3.5696,-3.6097,-3.6177,-3.571,-3.6177,-3.6177,-3.571,-3.5562,-3.548,-3.548,-3.5086,-3.4921,-3.4825,-3.4564,-3.4397,-3.4397,-3.3953,-3.374,0.0,-3.1821,-3.1041,-3.0616,-2.8867,-2.7865,0.0,0.0,0.0,0.0,0.0,-2.4597,-2.3992,0.0,0.0,0.0,0.0,0.0,0.0,0.0,0.0,0.0,0.0,0.0,0.0,0.0,0.0,0.0,0.0,0.0,0.0,0.0,0.0,0.0,0.0,0.0,0.0,0.0,0.0,0.0,0.0,0.0,0.0,0.0,0.0,0.0,0.0,0.0,0.0,0.0,0.0,0.0,0.0,0.0,0.0,-0.7671,-0.7241,-0.6539,-0.5907,-0.6063,-0.5985,-0.5818,-0.6019,0.0,0.0,0.0,0.0,0.0,0.0,0.0,0.0,0.0,0.0,0.0,0.0,0.0,0.0,0.0,0.0,0.0,0.0,0.0,0.0,0.0,0.0,0.0,0.0,-2.2394,-2.3476,-2.4532,-2.6477,-2.8168,-2.926,-3.086,-3.2259,-3.3354,-3.418,-3.4807,-3.5494,-3.5507,-3.5629,-3.571,0.0,0.0,0.0,0.0,-3.548,-3.5154,-3.499,-3.4729,-3.4301,-3.4134,-3.405,-3.4037,-3.3186,-3.2557,-3.2022,-3.0182,-2.9086,-2.8563,-2.7589,-2.6911,-2.6465,-2.6465,-2.6107,-2.5421,-2.4545,-2.4013,-2.3681,0.0,0.0,0.0,0.0,0.0,0.0,0.0,0.0,0.0,0.0,0.0,0.0,0.0,0.0,0.0,0.0,0.0,0.0,0.0,0.0,0.0,0.0,0.0,0.0,0.0,0.0,0.0,0.0,0.0,0.0,0.0,0.0,0.0,0.0,0.0,0.0,0.0,0.0,0.0,0.0,0.0,0.0,-0.5476,-0.5482,-0.5323,-0.5084,-0.4427,-0.4099,-0.4088,-0.4105,-0.419,-0.4532,-0.5523,0.0,0.0,0.0,0.0,0.0,0.0,0.0,0.0,0.0,0.0,0.0,0.0,0.0,0.0,0.0,0.0,0.0,0.0,0.0,0.0,-2.105,-2.1912,-2.2551,-2.3173,-2.5168,-2.6862,-2.7614,-2.9448,-3.0733,-3.1006,-3.241,-3.3574,-3.4179,-3.4616,-3.5127,-3.5629,-3.571,-3.571,-3.571,-3.5562,-3.5399,-3.5318,-3.4191,-3.3577,-3.3492,0.0,0.0,-3.2091,-3.1589,-3.1259,-3.1028,-2.9148,-2.8211,-2.8012,-2.6734,-2.6029,-2.5784,-2.5604,-2.537,-2.5147,-2.4284,-2.3722,-2.3246,0.0,0.0,0.0,0.0,0.0,0.0,0.0,0.0,0.0,0.0,0.0,0.0,0.0,0.0,0.0,0.0,0.0,0.0,0.0,0.0,0.0,0.0,0.0,0.0,0.0,0.0,0.0,0.0,0.0,0.0,0.0,0.0,0.0,0.0,0.0,0.0,0.0,0.0,0.0,0.0,0.0,0.0,-0.1591,-0.2472,-0.2523,-0.2131,-0.1658,-0.1506,-0.143,-0.143,-0.1519,-0.1787,-0.2587,-0.2942,-0.3299,0.0,0.0,0.0,0.0,0.0,0.0,0.0,0.0,0.0,0.0,0.0,0.0,0.0,0.0,-1.6692,0.0,0.0,-1.9907,-2.0921,-2.1891,-2.2467,-2.2467,-2.4268,-2.5768,-2.6599,-2.8599,-3.0007,-3.0281,-3.161,-3.271,-3.3346,-3.3632,-3.4071,-3.4703,-3.4439,-3.4318,-3.4345,-3.4275,-3.4011,-3.3649,-3.2955,-3.2525,-3.2438,-3.184,-3.1444,-3.1192,-3.0506,-2.993,-2.94,-2.7884,-2.7206,-2.6864,-2.6151,-2.5812,-2.5559,-2.5285,-2.4978,-2.465,-2.3856,-2.3236,-2.277,0.0,0.0,0.0,0.0,0.0,0.0,0.0,0.0,0.0,0.0,0.0,0.0,0.0,0.0,0.0,0.0,0.0,0.0,0.0,0.0,0.0,0.0,0.0,0.0,0.0,0.0,0.0,0.0,0.0,0.0,0.0,0.0,0.0,0.0,0.0,0.0,0.0,0.0,0.0,0.0,0.0,0.0,0.2735,0.1271,0.0813,0.0918,0.0768,0.0783,0.0884,0.0796,0.0798,0.0711,0.0267,0.0089,-0.0268,-0.17,-0.2238,0.0,0.0,0.0,0.0,0.0,0.0,0.0,0.0,-1.1435,-1.2527,-1.3492,-1.4716,-1.5973,-1.7353,-1.8518,-1.954,-2.0788,-2.1942,-2.2562,-2.2121,-2.3529,-2.4882,-2.5554,-2.7659,-2.9187,-2.9616,-3.0791,-3.1762,-3.2498,-3.2536,-3.2874,-3.352,-3.3021,-3.2791,-3.2988,-3.2915,-3.2598,-3.2079,-3.1707,-3.1408,-3.1168,-3.0885,-3.0584,-3.03,-2.9328,-2.8585,-2.7781,-2.6882,-2.6267,-2.5895,-2.5822,-2.5644,-2.5211,-2.4935,-2.4314,-2.3545,-2.3268,-2.2866,-2.2306,0.0,0.0,0.0,0.0,0.0,0.0,0.0,0.0,0.0,0.0,0.0,0.0,0.0,0.0,0.0,0.0,0.0,0.0,0.0,0.0,0.0,0.0,0.0,0.0,0.0,0.0,0.0,0.0,0.0,0.0,0.0,0.0,0.0,0.0,0.0,0.0,0.0,0.0,0.0,0.0,0.0,0.0,0.622,0.5999,0.42,0.1631,0.1502,0.1432,0.1352,0.1184,0.1028,0.087,0.0783,0.0441,-0.0089,-0.0716,0.0,-0.1789,-0.3218,-0.4656,-0.5833,-0.6453,-0.7337,-0.8276,0.0,-1.048,-1.1988,-1.2148,-1.3735,-1.5389,-1.6199,-1.7921,-1.9454,-2.0257,-2.1418,-2.2045,-2.1537,-2.3014,-2.4077,-2.3846,-2.598,-2.7441,-2.758,-2.8807,-3.0074,-3.126,-3.1297,-3.1795,-3.2944,-3.2487,-3.2436,-3.2861,-3.2528,-3.2394,-3.2537,-3.0846,-2.9945,-2.9704,-2.8365,-2.801,-2.8263,-2.7338,-2.7118,-2.7349,-2.6428,-2.595,-2.5906,-2.5738,-2.5031,-2.3973,-2.3704,-2.265,-2.1465,-2.2756,-2.2656,-2.1814,0.0,0.0,0.0,0.0,0.0,0.0,0.0,0.0,0.0,0.0,0.0,0.0,0.0,0.0,0.0,0.0,0.0,0.0,0.0,0.0,0.0,0.0,0.0,0.0,0.0,0.0,0.0,0.0,0.0,0.0,0.0,0.0,0.0,0.0,0.0,0.0,0.0,0.0,0.0,0.0,0.0,0.0,0.7536,0.7536,0.6641,0.5221,0.4864,0.4458,0.0,0.0,0.4036,0.398,0.2804,0.231,0.1809,0.0604,-0.0087,0.0,-0.2319,-0.3374,-0.4427,-0.5992,-0.707,-0.7784,-0.8482,-0.9355,-1.0467,-1.1685,-1.2622,-1.3838,-1.5546,-1.6778,-1.7898,0.0,-2.0283,-2.1114,-2.0631,-2.1939,-2.2853,-2.2399,-2.4294,-2.6008,-2.7103,-2.7975,-2.8952,-3.0004,-3.0016,-3.0425,-3.1203,-3.079,-3.0577,-3.0868,-3.0447,-3.0117,-2.9898,-2.9124,-2.8735,-2.8656,-2.8294,-2.796,-2.7599,-2.7206,-2.6835,-2.6463,-2.5636,-2.5295,-2.5295,-2.4498,-2.38,-2.3086,-2.2736,-2.2105,-2.148,-2.176,-2.1377,-2.0655,0.0,0.0,0.0,0.0,0.0,0.0,0.0,0.0,0.0,0.0,0.0,0.0,0.0,0.0,0.0,0.0,0.0,0.0,0.0,0.0,0.0,0.0,0.0,0.0,0.0,0.0,0.0,0.0,0.0,0.0,0.0,0.0,0.0,0.0,0.0,0.0,0.0,0.0,0.0,0.0,0.0,0.0,0.8765,0.8765,0.8533,0.8089,0.7371,0.678,0.0,0.0,0.6254,0.6204,0.4814,0.417,0.3688,0.2348,0.162,0.0696,-0.106,-0.1761,-0.2381,-0.4393,-0.5823,-0.6875,-0.7736,-0.8229,-0.898,-1.0716,-1.1526,-1.2493,-1.4569,-1.5596,-1.6565,-1.781,-1.9257,-2.0038,-1.966,-2.0848,-2.1665,-2.1446,-2.2998,-2.4849,-2.6634,-2.7279,-2.7847,-2.8527,-2.8645,-2.8976,-2.9499,-2.92,-2.9152,-2.9343,-2.8653,-2.8293,-2.8181,-2.7832,-2.7659,-2.7839,-2.8058,-2.7771,-2.7028,-2.6721,-2.6043,-2.5285,-2.4765,-2.4594,-2.4509,-2.3444,-2.2736,-2.2296,-2.1765,-2.1257,-2.0695,-2.0404,-1.996,-1.9596,0.0,0.0,0.0,0.0,0.0,0.0,0.0,0.0,0.0,0.0,0.0,0.0,0.0,0.0,0.0,0.0,0.0,0.0,0.0,0.0,0.0,0.0,0.0,0.0,0.0,0.0,0.0,0.0,0.0,0.0,0.0,0.0,0.0,0.0,0.0,0.0,0.0,0.0,0.0,0.0,0.0,0.0,1.0438,1.0438,0.9906,0.9069,0.7927,0.0,0.0,0.0,0.657,0.6378,0.6298,0.5668,0.0,0.4777,0.4,0.2858,0.104,0.0615,0.0359,-0.0642,-0.3046,-0.5391,-0.6145,-0.6998,-0.7969,-0.9013,-1.0299,-1.1726,-1.3024,-1.4403,-1.5787,-1.7066,-1.832,-1.8869,-1.8481,-1.9733,-2.0828,-2.1198,-2.2331,-2.3811,0.0,-2.629,-2.6551,-2.6711,-2.7047,-2.7508,-2.8015,-2.8395,-2.8775,-2.9304,-2.7943,-2.7748,-2.8689,-2.7293,-2.6872,-2.7337,-2.69,-2.6551,-2.6293,-2.5132,-2.4321,-2.3877,-2.38,-2.379,-2.379,-2.2999,-2.2208,-2.1248,-2.061,-1.9586,-1.8401,-1.8393,-1.8762,-1.9092,0.0,0.0,0.0,0.0,0.0,0.0,0.0,0.0,0.0,0.0,0.0,0.0,0.0,0.0,0.0,0.0,0.0,0.0,0.0,0.0,0.0,0.0,0.0,0.0,0.0,0.0,0.0,0.0,0.0,0.0,0.0,0.0,0.0,0.0,0.0,0.0,0.0,0.0,0.0,0.0,0.0,0.0,1.2271,1.2264,1.1779,1.1076,0.0,0.0,0.0,0.0,0.0,0.8099,0.6854,0.6264,0.5769,0.4649,0.4207,0.393,0.3528,0.2788,0.1678,-0.0457,-0.1751,-0.2965,-0.4821,-0.5354,-0.6045,-0.7756,-0.854,-0.9527,-1.1299,-1.3146,-1.4482,-1.4757,-1.715,-1.8764,-1.8168,-1.9356,-2.0272,-2.0132,-2.1587,0.0,0.0,0.0,0.0,-2.6487,-2.6653,-2.6668,-2.6585,-2.6667,-2.682,-2.699,-2.625,-2.6065,-2.652,-2.6046,-2.5844,-2.5834,-2.5099,-2.4654,-2.4317,-2.3831,-2.3509,-2.3378,-2.3172,-2.3135,-2.3047,-2.1704,-2.0748,-2.0253,-1.9362,-1.8515,-1.7922,-1.7699,-1.7798,-1.7916,0.0,0.0,0.0,0.0,0.0,0.0,0.0,0.0,0.0,0.0,0.0,0.0,0.0,0.0,0.0,0.0,0.0,0.0,0.0,0.0,0.0,0.0,0.0,0.0,0.0,0.0,0.0,0.0,0.0,0.0,0.0,0.0,0.0,0.0,0.0,0.0,0.0,0.0,0.0,0.0,0.0,0.0,1.3229,1.3041,1.2731,0.0,0.0,0.0,0.0,0.0,0.0,0.9697,0.8412,0.7631,0.7019,0.5795,0.5311,0.5227,0.5131,0.463,0.3491,0.0985,0.0272,-0.0366,-0.2871,-0.3422,-0.3965,-0.6018,-0.6966,-0.7904,-0.958,-1.1642,-1.3071,-1.3171,-1.5538,-1.722,-1.6794,-1.8071,-1.9171,-1.9329,-2.0663,-2.1717,0.0,0.0,0.0,-2.5466,-2.5711,-2.5648,-2.5348,-2.5663,-2.5819,-2.5819,-2.5263,-2.5072,-2.5173,-2.5112,-2.4906,-2.4645,-2.3917,-2.3332,-2.2884,-2.2483,-2.2324,-2.2395,-2.2112,-2.1996,-2.191,-2.051,-1.9744,-1.9521,-1.8467,-1.7898,-1.7572,-1.7358,-1.7199,-1.7088,0.0,0.0,0.0,0.0,0.0,0.0,0.0,0.0,0.0,0.0,0.0,0.0,0.0,0.0,0.0,0.0,0.0,0.0,0.0,0.0,0.0,0.0,0.0,0.0,0.0,0.0,0.0,0.0,0.0,0.0,0.0,0.0,0.0,0.0,0.0,0.0,0.0,0.0,0.0,0.0,0.0,0.0,1.3462,1.2953,0.0,0.0,0.0,0.0,0.0,0.0,1.1191,1.1053,1.0725,0.9786,0.8604,0.8084,0.7371,0.6642,0.6,0.596,0.5731,0.3644,0.2999,0.2237,-0.0357,-0.1179,-0.1921,-0.3767,-0.5433,-0.6852,0.0,0.0,-1.1536,-1.2318,-1.3604,-1.454,-1.4584,-1.6031,-1.7605,0.0,0.0,0.0,0.0,0.0,0.0,-2.3628,0.0,-2.4433,-2.4413,-2.5242,-2.5652,-2.5652,-2.4808,-2.4467,-2.4669,-2.4321,-2.3949,-2.375,-2.3066,-2.2486,-2.2063,-2.0997,-2.0704,-2.1053,-2.0677,-2.0521,-2.0437,-1.9512,-1.9162,-1.9059,-1.8094,-1.7556,-1.7278,-1.7254,-1.704,-1.6762,0.0,0.0,0.0,0.0,0.0,0.0,0.0,0.0,0.0,0.0,0.0,0.0,0.0,0.0,0.0,0.0,0.0,0.0,0.0,0.0,0.0,0.0,0.0,0.0,0.0,0.0,0.0,0.0,0.0,0.0,0.0,0.0,0.0,0.0,0.0,0.0,0.0,0.0,0.0,0.0,0.0,0.0,1.4712,0.0,0.0,0.0,0.0,0.0,0.0,1.2026,1.135,1.1077,1.0787,1.0077,0.9291,0.8993,0.8065,0.7107,0.678,0.6354,0.5634,0.3986,0.3524,0.3041,0.1431,0.027,-0.0811,-0.2235,-0.3514,-0.507,-0.7183,-0.9059,0.0,-1.1436,-1.338,0.0,-1.4099,-1.5458,0.0,-1.6633,-1.8341,-1.9796,-2.0259,-2.1036,0.0,0.0,-2.3114,-2.383,-2.3493,-2.3637,-2.381,-2.381,-2.3252,-2.3071,-2.3309,-2.29,-2.2224,-2.1325,-2.1165,-2.0866,-2.0476,-2.0209,-2.0292,-2.0668,-2.0558,-2.0352,-2.0005,-1.9427,-1.8837,-1.8237,-1.7653,-1.7358,-1.7247,-1.6976,-1.6984,-1.7104,0.0,0.0,0.0,0.0,0.0,0.0,0.0,0.0,0.0,0.0,0.0,0.0,0.0,0.0,0.0,0.0,0.0,0.0,0.0,0.0,0.0,0.0,0.0,0.0,0.0,0.0,0.0,0.0,0.0,0.0,0.0,0.0,0.0,0.0,0.0,0.0,0.0,0.0,0.0,0.0,0.0,0.0,0.0,0.0,0.0,0.0,0.0,0.0,0.0,1.2711,1.2107,1.176,1.1742,1.1031,1.0201,0.9895,0.8923,0.7857,0.7536,0.6855,0.605,0.5129,0.4536,0.3828,0.2697,0.1579,0.0442,-0.0971,-0.2399,-0.3842,-0.58,-0.7905,-0.9552,0.0,0.0,0.0,-1.3262,-1.4315,-1.5175,-1.5511,-1.6743,-1.7781,-1.8613,-1.9249,-1.9768,0.0,-2.1563,-2.2113,-2.1882,-2.2067,-2.2235,-2.2235,-2.2196,-2.2175,-2.2064,-2.172,-2.105,-2.0264,-2.0264,-2.0145,-1.9925,-1.9742,-1.9879,-2.0255,0.0,-1.9743,-1.9339,-1.884,-1.8296,-1.7689,-1.7199,-1.704,-1.7016,-1.681,-1.6865,-1.6925,0.0,0.0,0.0,0.0,0.0,0.0,0.0,0.0,0.0,0.0,0.0,0.0,0.0,0.0,0.0,0.0,0.0,0.0,0.0,0.0,0.0,0.0,0.0,0.0,0.0,0.0,0.0,0.0,0.0,0.0,0.0,0.0,0.0,0.0,0.0,0.0,0.0,0.0,0.0,0.0,0.0,0.0,0.0,0.0,0.0,0.0,0.0,0.0,0.0,0.0,1.2926,1.2685,1.2816,1.2077,1.1105,1.072,0.9744,0.8699,0.8313,0.752,0.678,0.6468,0.5603,0.4615,0.3686,0.2641,0.1469,0.0086,-0.1577,-0.32,-0.4328,-0.6587,-0.8344,-0.8848,-1.0691,-1.2026,-1.2284,-1.2927,-1.3854,-1.4916,-1.4975,-1.5589,-1.7391,-1.747,-1.7946,-1.923,-1.9541,-1.9833,-2.0155,-2.0615,-2.0912,-2.0943,-2.1389,-2.1428,-2.1021,-2.0727,-2.0311,-1.9679,-1.9561,-1.9588,-1.9743,-1.9334,-1.9451,-1.9907,0.0,0.0,-1.8451,-1.804,-1.7546,-1.6976,-1.6566,-1.6433,-1.6547,-1.6417,-1.6433,-1.6456,0.0,0.0,0.0,0.0,0.0,0.0,0.0,0.0,0.0,0.0,0.0,0.0,0.0,0.0,0.0,0.0,0.0,0.0,0.0,0.0,0.0,0.0,0.0,0.0,0.0,0.0,0.0,0.0,0.0,0.0,0.0,0.0,0.0,0.0,0.0,0.0,0.0,0.0,0.0,0.0,0.0,0.0,0.0,0.0,0.0,0.0,0.0,0.0,0.0,0.0,1.267,1.2604,1.2432,1.2003,1.1484,1.1105,1.0276,0.9372,0.8922,0.8307,0.7505,0.6464,0.5921,0.5438,0.4444,0.3031,0.1851,0.1403,-0.0593,-0.2672,-0.3979,-0.5624,-0.7299,-0.9005,-0.9775,-1.0614,-1.1553,-1.2381,-1.3104,-1.3622,-1.3972,-1.4649,-1.5946,-1.5732,0.0,0.0,0.0,-1.788,-1.9761,-1.9679,-1.9756,-2.0108,-2.0199,-2.0167,-2.0159,-1.9652,-1.9126,-1.8351,-1.7913,-1.8146,-1.8828,-1.842,-1.8869,-1.9907,-1.9485,0.0,-1.7286,-1.7204,-1.6386,-1.5151,-1.5068,-1.5218,-1.5497,-1.5161,-1.5233,-1.5497,0.0,0.0,0.0,0.0,0.0,0.0,0.0,0.0,0.0,0.0,0.0,0.0,0.0,0.0,0.0,0.0,0.0,0.0,0.0,0.0,0.0,0.0,0.0,0.0,0.0,0.0,0.0,1.5442,0.0,0.0,0.0,0.0,0.0,0.0,0.0,0.0,0.0,0.0,0.0,0.0,0.0,0.0,0.0,0.0,0.0,0.0,0.0,0.0,0.0,0.0,1.1879,1.1814,1.1957,1.1781,1.1484,1.1037,1.0507,0.9981,0.9685,0.9,0.8151,0.736,0.6476,0.5491,0.4613,0.3322,0.211,0.138,-0.033,-0.2088,-0.3386,-0.4994,-0.6593,-0.7921,-0.8931,-0.9921,-1.0972,-1.1497,-1.2237,-1.3298,-1.3332,-1.3749,-1.4756,-1.4476,-1.4623,-1.5668,0.0,-1.606,-1.7969,-1.8177,-1.8397,-1.8931,-1.8922,-1.8833,-1.8745,-1.8412,-1.8006,-1.744,-1.7113,-1.7193,-1.7606,-1.7433,-1.7694,-1.8189,-1.7993,0.0,-1.6281,-1.6281,-1.5711,-1.4734,-1.4734,-1.4825,-1.493,-1.479,-1.4825,-1.493,0.0,0.0,0.0,0.0,0.0,0.0,0.0,0.0,0.0,0.0,0.0,0.0,0.0,0.0,0.0,0.0,0.0,0.0,0.0,0.0,0.0,0.0,0.0,0.0,0.0,0.0,0.0,1.3195,1.3776,0.0,0.0,0.0,0.0,0.0,1.6655,0.0,0.0,0.0,0.0,0.0,0.0,0.0,0.0,0.0,0.0,0.0,0.0,0.0,0.0,0.0,1.095,1.0742,1.0949,1.1089,1.1028,1.0718,1.0433,1.022,1.0056,0.9387,0.8546,0.8008,0.693,0.5699,0.4616,0.3446,0.2364,0.1365,-0.0243,-0.1792,-0.2889,-0.4559,-0.6096,-0.6865,-0.8142,-0.9422,-1.0518,-1.0935,-1.1695,-1.3018,-1.2815,-1.2826,-1.3814,-1.3587,0.0,-1.481,0.0,0.0,-1.6133,-1.653,-1.6964,-1.7565,-1.7553,-1.7561,-1.7574,-1.7154,-1.6871,-1.6714,-1.6296,-1.6206,-1.6453,-1.6453,-1.6535,-1.6698,-1.6698,0.0,0.0,-1.5457,-1.4946,-1.4212,-1.4144,-1.4124,-1.413,-1.4192,-1.4178,-1.4061,0.0,0.0,0.0,0.0,0.0,0.0,0.0,0.0,0.0,0.0,0.0,0.0,0.0,0.0,0.0,0.0,0.0,0.0,0.0,0.0,0.0,0.0,0.0,0.0,0.0,0.0,0.0,0.9945,1.0822,0.0,0.0,0.0,0.0,0.0,0.0,1.5861,1.5678,0.0,0.0,0.0,0.0,0.0,0.0,0.0,0.0,0.0,0.0,1.1647,1.1025,1.0194,0.9846,0.9595,0.8983,0.9487,1.0178,1.0052,0.9745,0.9416,0.9417,0.9084,0.847,0.7544,0.7161,0.6546,0.4611,0.368,0.3059,0.2206,-0.016,-0.2175,-0.2846,-0.4329,-0.5799,0.0,0.0,-0.8935,-1.049,-1.1212,-1.1869,-1.2552,-1.2081,-1.2099,-1.2984,-1.331,-1.3585,-1.3992,0.0,0.0,-1.5482,-1.5286,-1.5484,-1.6373,-1.606,-1.6362,-1.7265,-1.623,-1.5751,-1.5816,-1.4824,-1.4741,-1.556,-1.556,-1.5966,-1.6698,-1.6698,0.0,0.0,-1.4568,-1.3647,-1.249,-1.2245,-1.2153,-1.2184,-1.2423,-1.2361,-1.2221,0.0,0.0,0.0,0.0,0.0,0.0,0.0,0.0,0.0,0.0,0.0,0.0,0.0,0.0,0.0,0.0,0.0,0.0,0.0,0.0,0.0,0.0,0.0,0.0,0.0,0.0,0.0,0.7187,0.7127,0.0,0.0,0.0,0.0,0.0,0.0,1.2781,1.2522,0.0,0.0,0.0,0.0,0.0,0.0,0.0,0.0,0.0,0.0,0.0,0.9425,0.8861,0.8659,0.8412,0.7735,0.776,0.819,0.8836,0.8983,0.8955,0.8954,0.8856,0.8551,0.7863,0.7319,0.6479,0.5194,0.3978,0.2988,0.2534,0.0391,-0.1656,-0.2618,-0.4128,-0.5439,0.0,0.0,0.0,-0.9743,-1.0344,-1.1102,-1.2528,-1.2134,-1.1957,0.0,0.0,-1.2375,-1.3035,0.0,0.0,-1.4838,-1.4728,-1.4806,-1.5184,-1.5055,-1.5225,-1.58,-1.516,-1.4916,-1.5068,-1.4227,-1.398,-1.4296,-1.4116,-1.4268,-1.4583,-1.4583,0.0,0.0,-1.3326,-1.2798,-1.2071,-1.1962,-1.192,-1.1932,-1.2041,-1.2113,-1.2186,0.0,0.0,0.0,0.0,0.0,0.0,0.0,0.0,0.0,0.0,0.0,0.0,0.0,0.0,0.0,0.0,0.0,0.0,0.0,0.0,0.0,0.0,0.0,0.0,0.0,0.0,0.0,0.0,0.4838,0.5618,0.0,0.0,0.8116,0.9186,0.0,0.0,0.0,0.0,0.0,0.0,0.0,0.0,0.0,0.0,0.0,0.0,0.0,0.0,0.0,0.0,0.0,0.6894,0.637,0.0,0.0,0.0,0.8068,0.811,0.8166,0.8221,0.8151,0.778,0.7154,0.6394,0.5433,0.4321,0.3211,0.2392,0.0833,-0.0841,-0.2347,-0.3979,-0.517,0.0,0.0,-0.7577,-0.9077,-0.9987,-1.1017,-1.2439,0.0,-1.1992,-1.218,-1.1804,-1.1751,0.0,0.0,0.0,-1.3865,-1.4103,-1.4223,-1.4326,-1.4231,-1.4333,-1.4655,-1.4251,-1.416,-1.4461,-1.377,-1.3514,-1.3507,-1.3307,-1.3213,-1.3213,0.0,0.0,0.0,-1.2482,-1.2207,-1.1799,-1.1715,-1.1685,-1.1691,-1.1775,-1.1872,-1.1992,0.0,0.0,0.0,0.0,0.0,0.0,0.0,0.0,0.0,0.0,0.0,0.0,0.0,0.0,0.0,0.0,0.0,0.0,0.0,0.0,0.0,0.0,0.0,0.0,0.0,0.0,0.0,0.0,0.0,0.0,0.2992,0.3906,0.5349,0.7126,0.0,0.0,0.0,0.0,0.0,0.0,0.0,0.0,0.0,0.0,0.0,0.0,0.0,0.0,0.0,0.0,0.0,0.0,0.0,0.0,0.0,0.0,0.6881,0.679,0.6978,0.7027,0.696,0.675,0.6678,0.6384,0.515,0.4795,0.4073,0.1749,0.0947,-0.0073,-0.2102,-0.3845,-0.4989,-0.5336,-0.6978,0.0,-0.8817,-1.0357,-1.1727,-1.2252,-1.2083,-1.192,-1.1926,-1.2126,-1.2164,0.0,0.0,0.0,-1.2385,-1.306,-1.3653,-1.3975,-1.3675,-1.366,-1.3989,-1.3521,-1.3516,-1.3824,-1.3365,-1.3213,-1.3213,-1.3213,-1.3213,0.0,0.0,0.0,0.0,-1.2279,-1.1927,-1.151,-1.1226,-1.1123,-1.1154,-1.1431,-1.1359,-1.1238,0.0,0.0,0.0,0.0,0.0,0.0,0.0,0.0,0.0,0.0,0.0,0.0,0.0,0.0,0.0,0.0,0.0,0.0,0.0,0.0,0.0,0.0,0.0,0.0,0.0,0.0,0.0,0.0,0.0,0.0,0.0,0.0,0.0,0.4463,0.5928,0.6671,0.0,0.0,0.0,0.0,0.0,0.0,0.0,0.0,0.0,0.0,0.0,0.0,0.0,0.0,0.0,0.0,0.0,0.0,0.0,0.0,0.0,0.5821,0.5973,0.6162,0.6233,0.6165,0.6012,0.5727,0.5527,0.4678,0.3975,0.4055,0.1438,-0.124,-0.2643,-0.4032,-0.521,-0.606,-0.6702,0.0,0.0,-0.9948,-1.077,-1.166,-1.2004,-1.2183,0.0,0.0,-1.3046,0.0,0.0,0.0,-1.3119,-1.2826,-1.2942,-1.3645,-1.355,-1.3653,-1.3982,-1.3506,-1.3509,-1.3817,-1.3219,-1.2893,-1.2886,-1.2679,0.0,0.0,0.0,0.0,0.0,-1.1884,-1.1621,-1.1232,-1.1148,-1.1111,-1.1148,-1.1425,-1.1479,-1.1461,0.0,0.0,0.0,0.0,0.0,0.0,0.0,0.0,0.0,0.0,0.0,0.0,0.0,0.0,0.0,0.0,0.0,0.0,0.0,0.0,0.0,0.0,0.0,0.0,0.0,0.0,0.0,0.0,0.0,0.0,0.0,0.0,0.0,0.0,0.0,0.0,0.0,0.0,0.0,0.0,0.0,0.0,0.1889,0.0,0.0,0.0,0.0,0.0,0.0,0.0,0.0,0.0,0.0,0.0,0.0,0.0,0.2097,0.3575,0.4482,0.4926,0.5208,0.5497,0.5507,0.545,0.5528,0.4909,0.4089,0.3356,0.0141,-0.285,-0.3695,-0.4798,-0.5758,-0.6394,-0.7017,-0.7946,-0.9219,0.0,-1.0548,-1.1569,-1.2139,0.0,0.0,-1.291,0.0,0.0,0.0,0.0,-1.3316,-1.2869,-1.2741,-1.3133,-1.3367,-1.3594,-1.3799,-1.3337,-1.3278,-1.3467,-1.2893,-1.2579,-1.2572,-1.2385,0.0,0.0,0.0,0.0,0.0,-1.1706,-1.1484,-1.1111,-1.1111,-1.1111,-1.1135,-1.131,-1.1371,-1.1413,0.0,0.0,0.0,0.0,0.0,0.0,0.0,0.0,0.0,0.0,0.0,0.0,0.0,0.0,0.0,0.0,0.0,0.0,0.0,0.0,0.0,0.0,0.0,0.0,0.0,0.0,0.0,0.0,-0.5459,-0.4706,-0.3351,0.0,0.0,0.0,0.0,0.0,0.0,0.0,0.0,0.0,0.0,0.0,0.0,0.0,0.0,0.0,0.0,0.0,0.0,0.0,0.0,0.0,0.0,0.0,0.0,0.0,0.0,0.0,0.0,0.3274,0.388,0.4616,0.497,0.5119,0.5176,0.5055,0.0,0.0069,-0.2674,-0.4532,-0.5123,-0.5848,-0.6427,-0.6462,-0.7831,-0.8999,-0.934,-1.0224,0.0,0.0,-1.2313,0.0,-1.2572,0.0,0.0,0.0,0.0,0.0,-1.2994,-1.2972,-1.2833,-1.2533,-1.3111,-1.3426,-1.3426,-1.3055,-1.2837,-1.283,-1.2485,-1.2271,-1.2271,-1.2271,0.0,0.0,0.0,0.0,0.0,-1.1675,-1.1452,-1.1087,-1.1105,-1.1111,-1.1111,-1.1135,-1.1129,-1.1148,0.0,0.0,0.0,0.0,0.0,0.0,0.0,0.0,0.0,0.0,0.0,0.0,0.0,0.0,0.0,0.0,0.0,0.0,0.0,0.0,0.0,0.0,0.0,0.0,0.0,0.0,0.0,-0.6148,-0.602,-0.5561,-0.49,-0.4706,0.0,0.0,0.0,0.0,0.0,0.0,0.0,0.0,0.0,0.0,0.0,0.0,0.0,0.0,-0.3737,-0.427,0.0,0.0,0.0,0.0,0.0,0.0,0.0,0.0,-0.3412,-0.2961,-0.1291,0.0,0.2199,0.2413,0.2507,0.2536,0.0,0.2049,0.027,-0.3211,-0.4261,-0.4996,-0.6261,-0.6321,-0.6643,-0.8216,-0.8685,-0.9264,-1.0201,-1.1143,0.0,-1.2512,-1.3096,-1.3353,-1.3038,0.0,0.0,0.0,0.0,-1.3267,-1.265,-1.2636,-1.2599,-1.2526,-1.2672,-1.2753,-1.2753,-1.2408,-1.2193,-1.22,-1.2077,-1.1971,-1.1971,-1.1971,0.0,0.0,0.0,0.0,-1.1395,-1.125,-1.1033,-1.0828,-1.1033,-1.1111,-1.1135,-1.1353,-1.1298,-1.1148,0.0,0.0,0.0,0.0,0.0,0.0,0.0,0.0,0.0,0.0,0.0,0.0,0.0,0.0,0.0,0.0,0.0,0.0,0.0,0.0,0.0,0.0,0.0,0.0,0.0,0.0,0.0,0.0,0.0,-0.6732,0.0,0.0,0.0,0.0,0.0,0.0,0.0,0.0,0.0,0.0,-0.6145,0.0,0.0,0.0,0.0,0.0,-0.6306,-0.6633,0.0,-0.6776,-0.7028,-0.7325,0.0,0.0,0.0,0.0,-0.5294,-0.4982,-0.3807,-0.2001,-0.0334,0.0133,-0.0135,-0.0474,-0.0198,-0.0596,-0.1817,-0.4941,-0.5566,-0.5866,-0.6933,-0.7276,-0.774,-0.8664,-0.9219,-0.9857,0.0,0.0,-1.2158,-1.2877,-1.3322,-1.3607,0.0,0.0,0.0,0.0,0.0,-1.2991,-1.2454,-1.2299,-1.2233,-1.2087,-1.208,-1.2219,-1.2519,-1.218,-1.184,-1.1485,-1.1583,-1.1383,-1.0738,-1.1096,-1.1101,0.0,0.0,0.0,-1.0178,-1.0036,-0.9817,-0.9554,-0.9794,-0.9887,-0.9903,-1.0045,-1.0078,-0.9986,0.0,0.0,0.0,0.0,0.0,0.0,0.0,0.0,0.0,0.0,0.0,0.0,0.0,0.0,0.0,0.0,0.0,0.0,0.0,0.0,0.0,0.0,0.0,0.0,0.0,0.0,0.0,0.0,0.0,0.0,0.0,0.0,0.0,0.0,0.0,0.0,0.0,0.0,0.0,0.0,-0.8027,0.0,0.0,0.0,0.0,0.0,0.0,0.0,0.0,-0.8259,-0.8458,-0.8809,-0.8194,0.0,0.0,0.0,0.0,0.0,-0.5811,-0.4703,-0.3482,-0.2322,-0.2766,-0.3457,-0.3228,-0.2941,-0.3416,-0.6058,-0.6646,-0.6869,-0.7414,-0.8284,-0.8895,-0.8864,0.0,0.0,-1.1411,-1.1819,-1.2386,-1.3252,-1.3352,0.0,0.0,0.0,0.0,0.0,0.0,-1.2579,-1.2243,-1.2027,-1.1838,-1.163,-1.1622,-1.1823,-1.2372,-1.1903,-1.135,-1.0585,-1.0915,-1.0386,-0.9344,-0.9904,-0.9921,0.0,0.0,0.0,-0.8723,-0.8653,-0.8444,-0.8178,-0.8399,-0.8481,-0.8481,-0.8481,-0.8541,-0.8633,0.0,0.0,0.0,0.0,0.0,0.0,0.0,0.0,0.0,0.0,0.0,0.0,0.0,0.0,0.0,0.0,0.0,0.0,0.0,0.0,0.0,0.0,0.0,0.0,0.0,0.0,0.0,0.0,0.0,0.0,-0.7962,-0.7962,-0.7962,0.0,0.0,0.0,0.0,-0.8027,-0.8027,-0.8027,-0.8291,0.0,0.0,0.0,0.0,0.0,0.0,0.0,0.0,-0.9945,-1.0332,-1.0801,-1.0431,0.0,0.0,0.0,0.0,0.0,-0.7635,-0.7654,-0.7545,-0.5417,-0.5071,-0.5216,-0.5001,-0.5239,-0.5892,-0.7441,-0.7421,-0.7348,-0.812,-0.8435,-0.8969,0.0,0.0,-1.2381,0.0,0.0,-1.3592,-1.3932,0.0,0.0,0.0,0.0,0.0,0.0,0.0,-1.2428,-1.1899,-1.1759,-1.1611,-1.1622,-1.1622,-1.1611,-1.1706,-1.0796,-0.9949,-0.9303,-0.9258,-0.9158,-0.8956,-0.9091,-0.9207,0.0,0.0,-0.8302,-0.8409,-0.8074,-0.7942,-0.7893,-0.8173,-0.8255,-0.8255,-0.8255,-0.8394,-0.8453,0.0,0.0,0.0,0.0,0.0,0.0,0.0,0.0,0.0,0.0,0.0,0.0,0.0,0.0,0.0,0.0,0.0,0.0,0.0,0.0,0.0,0.0,0.0,0.0,0.0,0.0,0.0,0.0,0.0,-0.9984,-1.0095,-0.9514,-0.9448,-0.9882,0.0,0.0,0.0,-1.0425,-1.0488,-1.0613,0.0,0.0,0.0,0.0,0.0,0.0,0.0,0.0,0.0,0.0,-1.2373,-1.2639,-1.2099,0.0,0.0,0.0,0.0,0.0,-1.025,-1.0632,-1.0863,-0.9984,-0.8925,-0.8111,-0.7889,-0.7918,-0.8307,-0.9068,-0.9152,0.0,0.0,0.0,-1.0866,-1.172,0.0,-1.284,-1.3383,-1.3408,-1.3528,0.0,0.0,0.0,0.0,0.0,0.0,0.0,0.0,0.0,-1.1745,-1.154,-1.1337,-1.1041,-1.0906,-1.0616,-1.0177,-0.9439,-0.8994,-0.8994,-0.8788,-0.8256,-0.7593,-0.7991,-0.7979,-0.773,0.0,-0.7109,-0.706,-0.686,-0.6664,-0.6546,-0.6729,-0.6798,-0.681,-0.6899,-0.6989,-0.7013,0.0,0.0,0.0,0.0,0.0,0.0,0.0,0.0,0.0,0.0,0.0,0.0,0.0,0.0,0.0,0.0,0.0,0.0,0.0,0.0,0.0,0.0,0.0,0.0,0.0,0.0,0.0,-1.3236,-1.2,-1.1701,-1.2143,-1.1333,-1.1284,0.0,0.0,0.0,0.0,-1.2693,-1.2776,-1.2834,0.0,0.0,0.0,0.0,0.0,0.0,0.0,0.0,0.0,0.0,0.0,0.0,0.0,0.0,0.0,-1.2518,-1.2328,-1.2277,-1.2521,-1.3141,-1.3717,-1.3847,-1.2409,-1.0962,-1.0947,-1.084,-1.0879,-1.1309,0.0,0.0,0.0,-1.2299,0.0,-1.3145,-1.3248,-1.3427,-1.3721,-1.3719,-1.3745,0.0,0.0,0.0,0.0,0.0,0.0,0.0,0.0,0.0,-1.1629,-1.13,-1.0902,-1.0422,-1.0123,-0.97,-0.8962,-0.8354,-0.8243,-0.8479,-0.8226,-0.7521,-0.6416,-0.7003,-0.6937,-0.642,-0.635,-0.6152,-0.5888,-0.5822,-0.569,-0.5439,-0.5491,-0.5538,-0.5559,-0.5735,-0.58,-0.5755,0.0,0.0,0.0,0.0,0.0,0.0,0.0,0.0,0.0,0.0,0.0,0.0,0.0,0.0,0.0,0.0,0.0,0.0,0.0,0.0,0.0,0.0,0.0,0.0,0.0,-1.3555,-1.3563,-1.3661,-1.3521,-1.3296,-1.2988,-1.29,-1.2949,-1.2949,0.0,0.0,0.0,-1.3251,-1.3127,-1.2858,-1.3568,0.0,0.0,0.0,0.0,0.0,0.0,0.0,0.0,0.0,0.0,0.0,0.0,0.0,-1.4143,-1.3555,-1.3971,-1.445,-1.3581,-1.4689,-1.5992,-1.533,-1.4221,-1.3428,-1.3688,-1.3876,-1.4082,-1.458,0.0,0.0,0.0,-1.3794,-1.3716,-1.403,-1.4505,-1.4935,-1.5312,0.0,0.0,0.0,0.0,0.0,0.0,0.0,0.0,0.0,0.0,0.0,-1.1613,-1.1017,-1.0379,-0.9768,-0.9731,-0.9453,-0.8928,-0.8104,-0.7521,-0.7073,-0.6872,-0.6675,-0.642,-0.6486,-0.642,-0.642,-0.628,-0.6083,-0.5888,-0.5686,-0.5554,-0.5428,-0.5439,-0.5446,-0.5413,-0.5698,-0.58,-0.5771,0.0,0.0,0.0,0.0,0.0,0.0,0.0,0.0,0.0,0.0,0.0,0.0,0.0,0.0,0.0,0.0,0.0,0.0,0.0,0.0,0.0,0.0,0.0,-1.608,-1.5676,-1.4805,-1.462,-1.5335,-1.4908,-1.4362,-1.3763,-1.3539,0.0,0.0,0.0,0.0,0.0,-1.5741,-1.5898,-1.5671,-1.6465,-1.6789,0.0,0.0,0.0,0.0,0.0,0.0,0.0,0.0,-1.689,0.0,0.0,0.0,-1.5756,-1.5581,-1.5341,-1.5219,-1.5564,-1.6417,-1.7261,-1.717,-1.7348,-1.7481,0.0,-1.7127,-1.7164,-1.7142,-1.644,0.0,0.0,0.0,-1.4771,-1.5448,-1.5404,-1.5351,-1.5496,0.0,0.0,0.0,0.0,0.0,0.0,0.0,0.0,0.0,0.0,0.0,0.0,-1.0744,-1.0192,-0.9656,-0.9062,-0.865,-0.8486,-0.7568,-0.6941,-0.6595,-0.6569,-0.6482,-0.642,-0.642,-0.642,-0.642,-0.635,-0.6152,-0.5888,-0.5822,-0.5624,-0.5428,-0.5428,-0.5428,-0.5452,-0.5593,-0.5657,-0.562,0.0,0.0,0.0,0.0,0.0,0.0,0.0,0.0,0.0,0.0,0.0,0.0,0.0,0.0,0.0,0.0,0.0,0.0,0.0,0.0,0.0,0.0,0.0,-1.6891,-1.7569,-1.6598,-1.6259,-1.6766,-1.6459,-1.5972,-1.5366,0.0,0.0,0.0,0.0,0.0,0.0,0.0,-1.8055,-1.7792,-1.8566,-1.8857,0.0,0.0,0.0,0.0,0.0,0.0,0.0,0.0,0.0,0.0,0.0,0.0,0.0,0.0,-1.6622,-1.6642,-1.7039,-1.7834,-1.8494,-1.857,-1.9526,0.0,-2.0053,-1.9781,-1.9458,-1.8997,-1.8491,-1.7644,-1.639,0.0,0.0,0.0,-1.6075,-1.5775,0.0,0.0,0.0,0.0,0.0,0.0,0.0,0.0,0.0,0.0,0.0,0.0,0.0,-1.0461,-0.9848,-0.9093,-0.8431,-0.7932,-0.755,-0.6934,-0.6515,-0.6283,-0.6233,-0.625,-0.625,-0.625,-0.625,-0.6254,-0.631,-0.6136,-0.5814,-0.587,-0.5693,-0.5428,-0.5428,-0.5428,-0.5449,-0.5535,-0.5584,-0.5552,0.0,0.0,0.0,0.0,0.0,0.0,0.0,0.0,0.0,0.0,0.0,0.0,0.0,0.0,0.0,0.0,0.0,0.0,0.0,0.0,0.0,0.0,0.0,-1.7737,-1.8967,-1.9044,-1.8576,-1.7706,-1.824,-1.8288,-1.793,0.0,0.0,0.0,0.0,0.0,0.0,0.0,-1.8967,-1.8648,-1.9179,-1.9225,-1.8912,0.0,0.0,0.0,0.0,0.0,0.0,0.0,0.0,0.0,0.0,0.0,0.0,0.0,-1.7784,-1.8951,-1.7822,-1.8712,-1.9864,-1.9357,-2.0368,-2.1644,-2.2171,-2.168,-2.0911,-2.0273,-1.9772,-1.8644,-1.5918,-1.6425,0.0,-1.6477,-1.6431,0.0,0.0,0.0,0.0,0.0,0.0,0.0,0.0,0.0,0.0,0.0,0.0,0.0,0.0,-1.0076,-0.9211,-0.7925,-0.7871,-0.7343,-0.6232,-0.6145,-0.6125,-0.6072,-0.5973,-0.5884,-0.5888,-0.5888,-0.5888,-0.5896,-0.6129,-0.5951,-0.5583,-0.5817,-0.569,-0.5425,-0.5428,-0.5428,-0.5449,-0.5535,-0.5589,-0.5564,0.0,0.0,0.0,0.0,0.0,0.0,0.0,0.0,0.0,0.0,0.0,0.0,0.0,0.0,0.0,0.0,0.0,0.0,0.0,0.0,0.0,0.0,0.0,0.0,0.0,0.0,-1.9607,-1.8946,-1.9145,-1.9149,0.0,0.0,0.0,-1.9013,0.0,0.0,0.0,0.0,0.0,-2.0449,-2.1437,-2.1971,-2.2147,0.0,0.0,0.0,0.0,0.0,0.0,0.0,0.0,0.0,0.0,0.0,0.0,0.0,-1.7917,-1.839,-1.8513,-1.9479,-2.0433,-2.0218,-2.1444,-2.2385,0.0,-2.1584,0.0,0.0,-1.9743,-1.9018,-1.8509,-1.7768,0.0,-1.7556,0.0,0.0,0.0,0.0,0.0,0.0,0.0,0.0,0.0,0.0,0.0,0.0,0.0,0.0,0.0,-0.9638,-0.8935,-0.8567,-0.7771,-0.7187,-0.682,-0.6245,-0.5955,-0.5874,-0.5686,-0.5745,-0.5888,-0.5888,-0.5888,-0.5892,-0.5876,-0.5716,-0.5424,-0.5392,-0.5264,-0.5209,-0.5318,-0.5428,-0.5449,-0.5535,-0.5451,-0.5199,0.0,0.0,0.0,0.0,0.0,0.0,0.0,0.0,0.0,0.0,0.0,0.0,0.0,0.0,0.0,0.0,0.0,0.0,0.0,0.0,0.0,0.0,0.0,0.0,0.0,-2.1215,-2.1345,0.0,0.0,0.0,0.0,0.0,0.0,-2.0257,0.0,-2.0602,0.0,0.0,0.0,-2.2089,-2.282,-2.3258,-2.3505,0.0,0.0,0.0,0.0,0.0,0.0,0.0,0.0,0.0,0.0,0.0,0.0,-1.8325,-1.8672,-1.9208,-1.9639,-2.0144,-2.0639,-2.1029,-2.1771,-2.2272,-2.1814,0.0,0.0,0.0,-2.0055,-1.9551,-1.9159,-1.8244,0.0,-1.7699,0.0,0.0,0.0,0.0,0.0,0.0,0.0,0.0,0.0,0.0,0.0,0.0,0.0,0.0,0.0,-0.9259,-0.8566,0.0,-0.7507,-0.6977,-0.6766,-0.6202,-0.5886,-0.5791,-0.5618,-0.558,-0.5677,-0.5677,-0.5677,-0.5681,-0.551,-0.5456,-0.535,-0.5137,-0.5081,-0.5138,-0.5233,-0.5308,-0.5439,-0.5464,-0.5362,-0.518,0.0,0.0,0.0,0.0,0.0,0.0,0.0,0.0,0.0,0.0,0.0,0.0,0.0,0.0,0.0,0.0,0.0,0.0,0.0,0.0,0.0,0.0,0.0,0.0,0.0,0.0,0.0,0.0,0.0,0.0,0.0,0.0,-2.1463,-2.1577,0.0,-2.2665,0.0,0.0,0.0,-2.339,-2.345,-2.3522,-2.3569,-2.3708,0.0,0.0,0.0,0.0,0.0,0.0,0.0,0.0,0.0,0.0,-1.9965,-1.9057,-1.9756,-2.0876,-2.0932,-2.0727,-2.0643,-2.1712,-2.1643,-2.1707,-2.302,-2.2424,-2.1469,-2.0819,0.0,-2.0209,-1.8565,-1.8147,-1.7929,0.0,0.0,0.0,0.0,0.0,0.0,0.0,0.0,0.0,0.0,0.0,0.0,0.0,0.0,0.0,0.0,-0.8844,-0.8124,-0.7386,-0.7138,-0.6766,-0.6232,-0.6041,-0.5932,0.0,-0.566,-0.5441,-0.5242,-0.5297,-0.5297,-0.525,-0.5121,-0.5155,-0.5299,-0.5012,-0.4982,-0.5111,-0.5125,-0.5223,-0.5362,-0.5296,-0.5296,-0.5316,0.0,0.0,0.0,0.0,0.0,0.0,0.0,0.0,0.0,0.0,0.0,0.0,0.0,0.0,0.0,0.0,0.0,0.0,0.0,0.0,0.0,0.0,0.0,0.0,0.0,0.0,0.0,0.0,0.0,0.0,0.0,0.0,0.0,-2.2763,0.0,-2.2592,0.0,0.0,0.0,-2.359,-2.3943,-2.4305,-2.4664,-2.4708,0.0,0.0,0.0,0.0,0.0,0.0,0.0,0.0,-2.1031,-2.0911,-2.0861,-2.0391,-2.0778,-2.1382,-2.1524,-2.1774,-2.1983,-2.189,-2.1876,-2.2284,-2.3573,-2.3321,-2.2526,-2.1568,-2.1008,-2.0435,-1.9587,-1.8685,-1.8038,0.0,0.0,0.0,0.0,0.0,0.0,0.0,0.0,0.0,0.0,0.0,0.0,0.0,0.0,0.0,-0.8844,-0.8044,0.0,-0.716,-0.6683,-0.6337,-0.6178,-0.6009,-0.5903,0.0,-0.5633,-0.521,-0.4684,-0.5128,-0.5183,-0.4959,-0.4938,-0.4863,-0.4681,-0.4749,-0.4826,-0.4975,-0.5087,-0.5223,-0.5362,-0.4755,-0.4764,-0.4982,0.0,0.0,0.0,0.0,0.0,0.0,0.0,0.0,0.0,0.0,0.0,0.0,0.0,0.0,0.0,0.0,0.0,0.0,0.0,0.0,0.0,0.0,0.0,0.0,0.0,0.0,0.0,0.0,0.0,0.0,0.0,0.0,0.0,-2.3233,0.0,-2.358,0.0,0.0,0.0,-2.3989,-2.4509,-2.4694,-2.4708,0.0,0.0,0.0,0.0,0.0,0.0,0.0,0.0,0.0,0.0,0.0,-2.1784,-2.1368,-2.1639,-2.2085,-2.2483,-2.2252,-2.1838,-2.1699,-2.2251,-2.2917,-2.3761,-2.3471,-2.2871,-2.2434,-2.1668,-2.0803,-1.9962,-1.8898,0.0,0.0,0.0,0.0,0.0,0.0,0.0,0.0,0.0,0.0,0.0,0.0,0.0,0.0,0.0,-0.8883,-0.8342,-0.7527,-0.6981,-0.6814,-0.6389,-0.6178,-0.6178,-0.6119,-0.5958,-0.5791,-0.5412,-0.4981,-0.4519,-0.4794,-0.4963,-0.5069,-0.4956,-0.4846,-0.4688,-0.432,-0.4262,-0.4342,-0.4165,-0.419,-0.4263,-0.4183,-0.4259,-0.4358,0.0,0.0,0.0,0.0,0.0,0.0,0.0,0.0,0.0,0.0,0.0,0.0,0.0,0.0,0.0,0.0,0.0,0.0,0.0,0.0,0.0,0.0,0.0,0.0,0.0,0.0,0.0,0.0,0.0,0.0,0.0,0.0,0.0,-2.3611,0.0,0.0,0.0,0.0,0.0,0.0,0.0,0.0,0.0,0.0,0.0,0.0,0.0,-2.4677,-2.4536,-2.4302,0.0,0.0,0.0,0.0,-2.2564,-2.213,-2.2239,-2.2638,-2.3386,-2.2546,-2.1527,-2.182,-2.2573,-2.3318,-2.3695,-2.3305,-2.2855,-2.2935,-2.2171,-2.1179,-2.0137,-1.8958,0.0,0.0,0.0,0.0,0.0,0.0,0.0,0.0,0.0,0.0,0.0,0.0,0.0,0.0,0.0,-0.8063,-0.7856,-0.717,-0.6663,-0.6473,-0.6207,-0.6119,-0.6119,-0.6009,-0.5845,-0.5517,-0.4842,-0.4457,-0.4349,-0.4239,-0.4574,-0.5183,-0.4791,-0.4622,-0.4622,-0.379,-0.3529,-0.3587,-0.3142,-0.3001,-0.3158,-0.3445,-0.3649,-0.3589,0.0,0.0,0.0,0.0,0.0,0.0,0.0,0.0,0.0,0.0,0.0,0.0,0.0,0.0,0.0,0.0,0.0,0.0,-2.2919,0.0,0.0,-2.509,0.0,0.0,0.0,0.0,0.0,0.0,0.0,0.0,0.0,0.0,0.0,-2.4784,0.0,0.0,0.0,0.0,0.0,0.0,0.0,0.0,0.0,0.0,0.0,0.0,0.0,0.0,-2.454,-2.3976,-2.3694,0.0,0.0,0.0,-2.2871,-2.2402,-2.2361,-2.2668,-2.3257,-2.3058,-2.271,-2.2892,-2.2725,-2.2714,0.0,0.0,-2.2554,0.0,-2.1693,-2.1292,-2.0665,0.0,0.0,0.0,0.0,0.0,0.0,0.0,0.0,0.0,0.0,0.0,0.0,0.0,0.0,0.0,-0.8743,-0.8086,-0.7247,-0.7078,-0.6763,-0.6275,-0.5854,-0.5677,-0.5677,-0.5285,-0.4842,-0.4398,-0.3456,-0.3236,-0.3683,-0.3181,-0.368,-0.4901,-0.3793,-0.3516,-0.3735,-0.307,-0.2904,-0.2995,-0.2949,-0.3004,-0.302,-0.2549,-0.2552,-0.268,0.0,0.0,0.0,0.0,0.0,0.0,0.0,0.0,0.0,0.0,0.0,0.0,0.0,0.0,0.0,-2.2652,-2.3399,-2.3943,-2.406,-2.501,-2.5727,-2.6089,-2.712,0.0,0.0,0.0,0.0,0.0,0.0,0.0,0.0,-2.7091,-2.6422,0.0,0.0,0.0,0.0,0.0,0.0,0.0,0.0,0.0,0.0,0.0,0.0,0.0,0.0,0.0,-2.3844,-2.4093,-2.3737,-2.3029,-2.2602,0.0,0.0,0.0,-2.2233,-2.2313,-2.246,-2.2866,-2.3185,-2.2714,-2.2665,-2.2714,-2.2884,-2.2714,-2.2335,-2.1789,-2.115,-2.0439,0.0,0.0,0.0,0.0,0.0,0.0,0.0,0.0,0.0,0.0,0.0,0.0,0.0,0.0,0.0,0.0,-0.7941,-0.7187,-0.6495,-0.6308,-0.5985,-0.5508,-0.5285,-0.5234,-0.5234,-0.5011,-0.4508,-0.3677,-0.3181,-0.2959,-0.307,-0.2462,-0.2905,-0.4125,-0.3408,-0.3186,-0.3239,-0.2514,-0.2255,-0.2232,-0.1926,-0.1819,-0.182,-0.1583,-0.1587,-0.1575,0.0,0.0,0.0,0.0,0.0,0.0,0.0,0.0,0.0,0.0,0.0,0.0,0.0,0.0,0.0,0.0,-2.4131,-2.4778,-2.5174,-2.5778,-2.638,-2.695,-2.7379,-2.7836,0.0,0.0,0.0,0.0,0.0,0.0,-2.7314,-2.7458,-2.7079,0.0,-2.6099,-2.569,0.0,0.0,0.0,0.0,0.0,0.0,0.0,0.0,0.0,0.0,0.0,0.0,0.0,-2.4059,-2.3477,-2.2577,-2.2644,-2.2498,0.0,0.0,0.0,-2.1811,-2.1581,-2.2331,-2.2997,-2.2334,-2.2494,-2.2665,0.0,0.0,-2.1901,0.0,-2.04,-1.9335,0.0,0.0,0.0,0.0,0.0,0.0,0.0,0.0,0.0,0.0,0.0,0.0,0.0,0.0,0.0,0.0,-0.7033,-0.6292,-0.5908,-0.5644,-0.534,-0.4901,-0.4787,-0.4732,-0.4732,-0.4512,-0.4012,-0.3125,-0.2961,-0.274,-0.246,-0.2018,-0.2298,-0.3128,-0.2796,-0.2685,-0.274,-0.1902,-0.1568,-0.1515,-0.1095,-0.0917,-0.0903,-0.0948,-0.0891,-0.0705,0.0,0.0,0.0,0.0,0.0,0.0,0.0,0.0,0.0,0.0,0.0,0.0,-2.3027,-2.3662,-2.4054,-2.4054,-2.439,-2.4948,-2.5784,-2.6386,-2.6917,-2.7533,-2.7448,0.0,-2.8066,0.0,0.0,0.0,0.0,0.0,-2.6726,-2.7275,-2.7497,-2.7419,-2.687,-2.6294,-2.5788,0.0,0.0,0.0,0.0,0.0,0.0,0.0,0.0,0.0,0.0,0.0,0.0,-2.3446,-2.2913,-2.2415,-2.2415,-2.1799,-2.1073,0.0,0.0,0.0,-2.0915,-2.132,-2.1835,-2.2127,-2.2185,-2.2247,0.0,0.0,-2.0996,-2.0291,-1.9254,-1.8206,0.0,0.0,0.0,0.0,0.0,0.0,0.0,0.0,0.0,0.0,0.0,0.0,0.0,0.0,0.0,0.0,-0.6147,-0.5742,-0.5526,-0.5374,-0.5171,-0.4897,-0.4453,-0.4233,-0.4233,-0.3516,-0.3021,-0.2747,-0.2408,-0.213,-0.1853,-0.1797,-0.1853,-0.1852,-0.1515,-0.1625,-0.2015,-0.1233,-0.0953,-0.0954,-0.0899,-0.0899,-0.0898,-0.0901,-0.0676,-0.0454,0.0,0.0,0.0,0.0,0.0,0.0,0.0,0.0,0.0,0.0,0.0,0.0,0.0,-2.3923,-2.4112,-2.4112,-2.4261,-2.4753,-2.5548,-2.5765,-2.6321,-2.7311,-2.7332,-2.7466,-2.7908,0.0,0.0,0.0,0.0,-2.6478,-2.6687,-2.7262,-2.7523,-2.751,-2.6935,-2.6356,-2.5826,-2.6185,0.0,0.0,0.0,0.0,0.0,0.0,0.0,0.0,0.0,0.0,0.0,0.0,-2.4269,-2.3485,-2.3485,-2.2743,-2.1708,-2.0875,-2.0589,-2.0466,-2.0072,-2.0418,-2.09,-2.1016,-2.1023,-2.1043,-2.1181,-2.0985,-2.0537,-1.9573,-1.8465,-1.7451,0.0,0.0,0.0,0.0,0.0,0.0,0.0,0.0,0.0,0.0,0.0,0.0,0.0,0.0,0.0,0.0,0.0,-0.5197,-0.4796,-0.4647,-0.4457,-0.4079,-0.3913,-0.3802,-0.3802,-0.3355,-0.2965,-0.2691,-0.2352,-0.2074,-0.1797,-0.1797,-0.1797,-0.1797,-0.1459,-0.1402,-0.1514,-0.1065,-0.0898,-0.0898,-0.0898,-0.0898,-0.0898,-0.0898,-0.0673,-0.0396,0.0,0.0,0.0,0.0,0.0,0.0,0.0,0.0,0.0,0.0,0.0,0.0,0.0,0.0,-2.4583,-2.505,-2.5109,-2.5504,-2.6262,-2.6113,-2.6438,-2.7449,-2.725,-2.7338,-2.7762,0.0,0.0,0.0,0.0,0.0,0.0,-2.7262,-2.7523,-2.751,-2.7131,-2.6763,0.0,0.0,0.0,-2.7442,0.0,0.0,-2.8728,0.0,0.0,0.0,0.0,0.0,0.0,0.0,-2.5197,-2.4439,-2.4635,-2.389,-2.2564,-2.0545,-1.9982,-1.9928,-1.9344,-1.9446,-1.9843,-2.0118,-2.0185,-2.0251,-2.0495,-2.0217,-1.9749,-1.9201,-1.8191,-1.7083,0.0,0.0,0.0,0.0,0.0,0.0,0.0,0.0,0.0,0.0,0.0,0.0,0.0,0.0,0.0,0.0,0.0,0.0,-0.429,-0.4122,-0.386,-0.3588,-0.3588,-0.3588,-0.3588,-0.336,-0.3021,-0.2577,-0.2465,-0.2186,-0.1797,-0.1797,-0.1797,-0.1741,-0.1403,-0.1291,-0.129,-0.101,-0.0898,-0.0898,-0.0898,-0.0898,-0.0898,-0.0898,-0.0673,-0.034,0.0,0.0,0.0,0.0,0.0,0.0,0.0,0.0,0.0,0.0,0.0,0.0,0.0,0.0,0.0,-2.6854,-2.6909,-2.7207,-2.7996,-2.7471,-2.7377,-2.7982,-2.73,-2.7208,-2.7776,0.0,0.0,0.0,0.0,0.0,0.0,0.0,-2.7456,-2.7456,-2.7456,-2.7538,-2.7566,0.0,-2.7982,-2.854,0.0,-2.833,-2.9301,0.0,0.0,0.0,-2.6944,-2.6347,0.0,-2.5876,0.0,0.0,-2.5592,-2.4992,-2.3496,-2.0643,-1.978,-1.9614,0.0,0.0,0.0,-1.9458,-1.9631,0.0,-2.0251,0.0,-1.8732,-1.9117,-1.825,-1.7055,0.0,0.0,0.0,0.0,0.0,0.0,0.0,0.0,0.0,0.0,0.0,0.0,0.0,0.0,0.0,0.0,-0.3971,-0.3884,-0.4061,-0.3724,-0.354,-0.354,-0.354,-0.354,-0.354,-0.3532,-0.3137,-0.241,-0.2577,-0.2355,-0.1797,-0.1797,-0.1741,-0.1572,-0.1403,-0.1291,-0.129,-0.101,-0.0898,-0.0898,-0.0898,-0.0898,-0.0898,-0.0898,-0.0673,-0.0396,0.0,0.0,0.0,0.0,0.0,0.0,0.0,0.0,0.0,0.0,0.0,0.0,-2.4908,-2.5299,-2.5703,-2.6096,-2.6109,-2.6405,-2.7068,-2.6907,-2.7046,-2.7629,-2.7407,-2.7433,-2.759,0.0,0.0,0.0,0.0,0.0,0.0,0.0,0.0,0.0,-2.7335,-2.7378,-2.7394,-2.7524,0.0,-2.7911,-2.7707,-2.8034,0.0,0.0,0.0,0.0,0.0,-2.6932,-2.6683,0.0,-2.6765,-2.644,-2.5384,-2.423,-2.2911,-2.077,-1.9832,-1.9336,-1.8419,0.0,0.0,0.0,0.0,0.0,0.0,0.0,-1.809,-1.7642,-1.6611,-1.5737,0.0,0.0,0.0,0.0,0.0,0.0,0.0,0.0,0.0,0.0,0.0,0.0,0.0,0.0,0.0,0.0,-0.4131,-0.3633,-0.2684,-0.2407,-0.2296,-0.2296,-0.2296,-0.2296,-0.2296,-0.1845,-0.2069,-0.2805,-0.1962,-0.1626,-0.1797,-0.1797,-0.1797,-0.1741,-0.1403,-0.1291,-0.129,-0.101,-0.0898,-0.0898,-0.0898,-0.0898,-0.0898,-0.0898,-0.0842,-0.0679,0.0,0.0,0.0,0.0,0.0,0.0,0.0,0.0,0.0,0.0,0.0,0.0,-2.5692,-2.5986,-2.6396,-2.6887,-2.6658,-2.6803,-2.7391,-2.7222,-2.7183,-2.751,-2.7523,-2.7523,-2.7523,0.0,0.0,0.0,0.0,0.0,0.0,0.0,0.0,0.0,0.0,0.0,0.0,0.0,0.0,0.0,-2.7597,0.0,0.0,-2.759,-2.7268,0.0,0.0,0.0,-2.7146,-2.7146,-2.7214,0.0,0.0,-2.4766,-2.3689,-2.193,-2.0797,-1.9916,-1.8857,-1.8447,-1.8305,-1.8392,0.0,0.0,-1.8051,-1.7838,-1.7576,0.0,-1.6528,-1.5692,0.0,0.0,0.0,0.0,0.0,0.0,0.0,0.0,0.0,0.0,0.0,0.0,0.0,-0.3493,-0.3338,-0.3481,-0.3348,-0.266,-0.1271,-0.1131,-0.1064,-0.1064,-0.1064,-0.1064,-0.1064,-0.0615,-0.0671,-0.14,-0.1344,-0.1401,-0.1515,-0.1629,-0.1685,-0.1572,-0.1347,-0.1178,-0.1122,-0.0954,-0.0898,-0.0898,-0.0898,-0.0898,-0.0898,-0.0729,-0.0785,-0.0791,0.0,0.0,0.0,0.0,0.0,0.0,0.0,0.0,0.0,0.0,0.0,0.0,-2.6335,-2.6635,-2.7221,-2.8233,-2.7908,-2.7855,-2.8352,-2.7908,-2.7589,-2.7523,-2.7523,-2.7456,-2.7469,0.0,0.0,0.0,0.0,0.0,0.0,0.0,0.0,0.0,0.0,0.0,0.0,0.0,0.0,-2.8091,-2.7523,-2.7973,0.0,0.0,-2.731,-2.7736,-2.7201,-2.7079,-2.7201,-2.7011,-2.7079,0.0,0.0,0.0,0.0,-2.3453,-2.2122,-2.0941,-1.9777,-1.916,-1.8692,-1.8289,-1.8104,0.0,-1.78,-1.7388,-1.7096,0.0,0.0,-1.6139,0.0,0.0,0.0,0.0,0.0,0.0,0.0,0.0,0.0,0.0,0.0,0.0,-0.3228,-0.242,-0.1947,-0.2206,-0.1965,-0.1257,0.0057,0.0168,0.0224,0.0224,0.0224,0.0168,0.0056,0.0393,0.0617,0.0785,-0.0671,-0.1287,-0.1122,-0.1403,-0.1459,-0.1347,-0.1178,-0.101,-0.0898,-0.0898,-0.0898,-0.0898,-0.0898,-0.0898,-0.0842,-0.0561,-0.0617,-0.0733,-2.0829,0.0,0.0,0.0,0.0,0.0,0.0,0.0,0.0,0.0,0.0,0.0,-2.6616,-2.6966,-2.7285,-2.7523,-2.7954,-2.8075,-2.7749,-2.8022,-2.8007,-2.7549,-2.7523,-2.7469,-2.7335,-2.7335,0.0,0.0,0.0,0.0,0.0,0.0,0.0,0.0,0.0,0.0,0.0,0.0,0.0,-2.6985,-2.7079,0.0,-2.7175,-2.685,-2.6782,-2.6782,-2.6794,-2.6726,-2.6658,-2.6726,-2.6782,-2.6701,0.0,0.0,0.0,-2.3282,-2.2273,-2.1377,-2.04,-1.9756,-1.9372,-1.9286,-1.871,0.0,-1.7066,-1.6752,-1.6252,0.0,-1.4518,-1.4066,-1.3576,0.0,0.0,0.0,0.0,0.0,0.0,0.0,0.0,0.0,0.0,0.0,-0.3226,-0.2619,-0.1929,-0.1105,-0.043,0.0177,0.0701,0.1196,0.1459,0.1459,0.1456,0.1064,0.0336,0.1122,0.1066,0.0168,-0.0056,-0.0505,-0.1122,-0.1066,-0.1234,-0.1515,-0.1234,-0.1066,-0.1066,-0.0954,-0.0898,-0.0898,-0.0898,-0.0898,-0.0898,-0.0842,-0.0561,-0.0169,-2.0731,0.0,0.0,0.0,0.0,0.0,0.0,0.0,0.0,0.0,0.0,-2.7043,-2.6752,-2.7242,-2.7546,-2.7546,-2.7859,-2.7967,-2.7695,-2.7941,-2.7851,-2.7307,-2.7268,-2.7214,-2.7146,-2.7146,-2.7079,0.0,0.0,0.0,0.0,0.0,0.0,0.0,0.0,0.0,0.0,0.0,-2.6671,-2.6589,-2.6794,0.0,-2.6714,-2.6658,-2.6589,-2.6533,-2.6589,-2.6589,-2.6521,-2.6658,-2.6714,0.0,-2.5918,-2.5288,-2.4517,0.0,-2.2517,-2.1594,0.0,0.0,0.0,-1.9245,0.0,0.0,0.0,-1.5918,-1.5597,-1.4594,-1.4252,-1.3899,-1.3112,0.0,-1.2047,0.0,0.0,0.0,0.0,0.0,0.0,0.0,0.0,0.0,-0.2555,-0.188,-0.0796,0.0774,0.1127,0.1397,0.1767,0.1794,0.205,0.2697,0.2693,0.2523,0.2188,0.1909,0.157,0.1064,0.0448,-0.0056,-0.0449,-0.0393,-0.0505,-0.0673,-0.0617,-0.0561,-0.0561,-0.0505,-0.0617,-0.0898,-0.0898,-0.0785,-0.0673,-0.0842,-0.0505,-0.0,-2.0566,-2.0886,0.0,0.0,0.0,0.0,0.0,0.0,0.0,-2.6534,-2.7157,-2.7379,-2.7012,-2.7507,-2.7915,-2.7915,-2.8075,-2.8139,-2.8139,-2.8036,-2.7793,-2.737,-2.7139,-2.6943,-2.6943,-2.6943,-2.6875,0.0,0.0,0.0,0.0,0.0,0.0,0.0,0.0,0.0,0.0,0.0,0.0,-2.6314,0.0,-2.6658,-2.6658,-2.6521,-2.6533,-2.6533,-2.6533,-2.6533,-2.6521,-2.6589,-2.6658,-2.6508,-2.5779,-2.5134,0.0,0.0,0.0,0.0,0.0,0.0,0.0,0.0,0.0,-1.8016,0.0,0.0,0.0,0.0,0.0,0.0,0.0,0.0,0.0,0.0,0.0,0.0,0.0,0.0,0.0,0.0,0.0,0.0,0.0,-0.1008,0.0266,0.1953,0.213,0.226,0.2554,0.2294,0.2544,0.3485,0.3593,0.3708,0.3822,0.2637,0.2074,0.2015,0.1008,0.0392,0.0224,0.028,0.028,0.0224,0.0168,0.0112,-0.0,0.0112,-0.0168,-0.0728,-0.0841,-0.0729,-0.0505,-0.0673,-0.0393,-0.0,-2.0566,-2.0809,-2.0984,0.0,0.0,0.0,0.0,0.0,0.0,-2.7047,-2.7243,-2.7515,-2.7871,-2.8201,-2.8324,-2.8324,-2.8902,-2.933,-2.933,-2.8869,-2.8562,-2.851,-2.7549,-2.6943,-2.6726,-2.6726,-2.6658,-2.6521,0.0,0.0,0.0,0.0,0.0,0.0,-2.4636,0.0,0.0,0.0,-2.5453,0.0,-2.6245,-2.6521,0.0,-2.6533,-2.6533,-2.6533,-2.6533,-2.6533,-2.6533,0.0,-2.6521,-2.6383,0.0,-2.4791,-2.4047,-2.3276,0.0,0.0,0.0,0.0,0.0,0.0,-1.9758,0.0,0.0,0.0,-1.4482,-1.3469,0.0,0.0,-1.2352,0.0,0.0,0.0,0.0,0.0,0.0,0.0,0.0,0.0,0.0,0.0,0.0,-0.0807,-0.0,0.0669,0.1565,0.2092,0.1965,0.2858,0.335,0.3137,0.3577,0.3577,0.3188,0.3021,0.2573,0.1846,0.1679,0.1119,0.0224,0.0617,0.0617,0.0224,0.0615,0.0504,0.0056,0.0559,0.0503,-0.0,-0.0672,-0.0898,-0.0785,-0.028,-0.0056,0.0056,-2.0566,-2.0741,-2.0906,0.0,0.0,0.0,0.0,0.0,0.0,0.0,-2.8134,-2.8574,-2.8147,-2.8472,-2.8673,-2.8673,-2.8949,-2.915,-2.915,-2.9252,-2.9011,-2.8353,-2.8518,-2.8151,-2.7094,-2.7314,-2.7163,-2.6533,-2.6025,0.0,0.0,0.0,0.0,0.0,-2.4059,0.0,-2.4515,0.0,-2.5312,0.0,0.0,0.0,0.0,-2.6314,-2.6533,-2.6465,-2.5955,-2.5804,-2.5734,0.0,-2.5441,0.0,0.0,0.0,0.0,-2.2692,0.0,0.0,0.0,0.0,0.0,0.0,0.0,0.0,-1.7063,0.0,-1.5044,0.0,0.0,0.0,0.0,0.0,0.0,0.0,-1.0337,0.0,0.0,0.0,0.0,0.0,0.0,0.0,0.0,0.0,0.0,0.0,0.2223,0.292,0.3447,0.3698,0.3872,0.391,0.3907,0.3855,0.3747,0.3411,0.2963,0.2291,0.1958,0.1456,0.0842,0.1232,0.1231,0.0839,0.0894,0.0559,0.0056,0.0392,0.0784,0.112,0.1178,0.0449,-0.0561,-0.0168,0.0224,0.0561,-2.0566,-2.0731,-2.0829,-2.0906,0.0,0.0,0.0,0.0,0.0,0.0,0.0,-2.9478,-2.8662,-2.8925,-2.9164,-2.9164,-2.9302,-2.939,-2.939,-2.9641,-2.9428,-2.8599,-2.9063,-2.8762,-2.7544,-2.7528,-2.7195,-2.6387,0.0,0.0,0.0,0.0,0.0,0.0,0.0,-2.3412,-2.3276,0.0,-2.4576,-2.4647,-2.4791,-2.4933,-2.5087,-2.5873,-2.6176,-2.6094,-2.5523,-2.5158,-2.4862,-2.4264,-2.4492,0.0,-2.3434,0.0,0.0,0.0,0.0,0.0,-2.1807,0.0,0.0,0.0,0.0,0.0,0.0,0.0,0.0,0.0,0.0,0.0,0.0,0.0,-1.2258,-1.1368,0.0,-0.9585,0.0,-0.7225,0.0,0.0,0.0,0.0,0.0,0.0,0.0,0.1592,0.252,0.3386,0.4071,0.4098,0.4219,0.4301,0.4187,0.4135,0.4193,0.3747,0.3241,0.2681,0.2237,0.1793,0.1291,0.1736,0.179,0.151,0.1285,0.0839,0.0448,0.056,0.0841,0.1291,0.2305,0.1853,0.0617,0.0168,0.0336,0.0785,-2.0566,-2.0644,-2.0654,-2.0906,0.0,0.0,0.0,0.0,0.0,0.0,0.0,-2.9779,-2.9741,-2.9754,-2.9767,-2.9767,-3.0256,-3.057,-3.057,-3.008,-2.9779,-2.9741,-2.8725,-2.8134,-2.8084,-2.6822,-2.6178,-2.6142,0.0,0.0,0.0,0.0,0.0,0.0,0.0,-2.2596,-2.3745,-2.3095,-2.2798,-2.2883,-2.3526,-2.3963,-2.4264,0.0,-2.5312,-2.5312,-2.5312,0.0,0.0,-2.4108,-2.412,0.0,0.0,0.0,0.0,0.0,0.0,0.0,0.0,0.0,0.0,-2.1787,0.0,0.0,0.0,0.0,-1.5239,0.0,0.0,0.0,0.0,-1.2832,-1.1744,-1.1443,-0.9667,0.0,0.0,0.0,0.0,0.0,0.0,0.0,0.0,0.0,0.0,0.0451,0.2068,0.2917,0.2767,0.387,0.4273,0.3855,0.4242,0.4408,0.4193,0.391,0.3405,0.2681,0.2687,0.2188,0.1347,0.1905,0.2183,0.2183,0.1902,0.1677,0.1454,0.1454,0.0727,-0.0112,0.1909,0.3042,0.3212,0.0842,0.0168,0.0393,-2.1435,-2.166,-2.1582,-2.0801,-2.0819,0.0,0.0,-2.7012,0.0,0.0,-3.0208,0.0,0.0,-3.0018,-2.9942,-3.0306,-3.0507,-3.0758,-3.111,-3.1298,-3.0979,-2.9955,-3.0499,-2.9739,-2.7384,-2.7598,-2.7002,-2.5698,0.0,0.0,0.0,0.0,0.0,0.0,0.0,-2.1949,0.0,0.0,0.0,0.0,0.0,-2.3317,-2.3243,0.0,0.0,-2.442,-2.3925,-2.357,0.0,-2.2756,-2.2905,-2.3276,-2.2467,-2.2553,-2.2852,-2.2025,-2.1807,0.0,0.0,0.0,-2.1502,-2.1021,0.0,0.0,0.0,0.0,0.0,0.0,0.0,0.0,0.0,-1.3542,-1.2558,-1.1693,-1.0347,-0.905,0.0,0.0,0.0,0.0,0.0,0.0,0.0,0.0,0.0,0.0966,0.2214,0.3034,0.0,0.3452,0.3786,0.4242,0.4298,0.4249,0.4193,0.4135,0.358,0.2687,0.2689,0.241,0.1905,0.2128,0.2127,0.1902,0.1679,0.1287,0.0672,0.0112,-0.0224,-0.0168,0.1909,0.3042,0.3383,0.1347,0.0673,0.0897,-2.1855,-2.21,-2.2031,-2.1182,-2.1332,0.0,0.0,0.0,0.0,0.0,-2.975,0.0,-2.9654,0.0,-2.9096,0.0,-2.9992,-3.0412,-3.1085,-3.1282,-3.0989,-3.0062,-3.0616,-2.9786,-2.7367,-2.7487,-2.6817,-2.5363,0.0,-2.3477,0.0,0.0,0.0,0.0,0.0,-2.1517,-2.1524,-2.2346,-2.2616,0.0,0.0,-2.2429,0.0,0.0,-2.3327,-2.3621,0.0,-2.2852,-2.2478,-2.1949,-2.2101,-2.2478,-2.1949,-2.2176,-2.2478,-2.1883,-2.1731,-2.1721,-2.1252,-2.1088,0.0,-2.0051,-1.9413,0.0,-1.7908,0.0,0.0,0.0,0.0,0.0,0.0,0.0,-1.2934,-1.1708,-1.0616,-0.9341,0.0,-0.646,0.0,0.0,0.0,-0.2585,0.0,-0.1441,-0.032,0.1078,0.2303,0.3047,0.0,0.0,0.3618,0.4298,0.435,0.43,0.4193,0.4079,0.358,0.2691,0.2691,0.241,0.1902,0.224,0.2071,0.1454,0.151,0.1175,0.0561,-0.0449,-0.0673,-0.0056,0.2135,0.2871,0.2475,0.1347,0.0898,0.1121,-2.1894,-2.1982,0.0,0.0,-2.2503,0.0,0.0,0.0,-2.7244,0.0,-2.8573,-2.8162,-2.7832,-2.7401,-2.7429,-2.8419,-2.8955,-2.9606,-3.0473,-3.0117,0.0,-2.9869,-2.8963,-2.8208,-2.7668,-2.6406,-2.5518,-2.5164,0.0,0.0,0.0,0.0,0.0,0.0,-2.1396,0.0,-2.1431,-2.156,-2.15,-2.1541,-2.1261,-2.1225,-2.1205,-2.1205,-2.1883,-2.2927,-2.2927,-2.2402,-2.1807,-2.1807,-2.1807,-2.1807,-2.1807,-2.1807,-2.1731,-2.1502,-2.1578,-2.1405,-2.0216,-1.9972,-1.9875,-1.8841,0.0,0.0,0.0,0.0,-1.6087,0.0,0.0,0.0,0.0,0.0,-1.2708,-1.1577,-1.0358,-0.8822,-0.6849,-0.6485,-0.595,0.0,-0.3987,-0.333,-0.2701,-0.1309,-0.0127,0.0679,0.2219,0.3085,0.0,0.0,0.3765,0.3981,0.4378,0.4438,0.4138,0.391,0.3411,0.2691,0.2691,0.2183,0.1342,0.224,0.1959,0.0894,0.1285,0.14,0.1178,-0.028,-0.0505,0.0224,0.2531,0.2419,0.0898,0.0898,0.0898,0.1122,-2.3183,-2.3301,-2.3398,0.0,-2.4037,-2.4386,0.0,0.0,0.0,0.0,-2.8341,-2.8386,-2.7892,-2.7397,-2.7273,-2.7785,-2.7983,0.0,0.0,0.0,0.0,-2.7612,-2.7603,-2.6918,-2.5367,-2.5306,-2.4925,-2.4173,0.0,0.0,-2.3089,0.0,0.0,0.0,0.0,0.0,-2.1114,-2.1759,-2.1955,-2.1762,-2.156,-2.1262,0.0,0.0,-2.1359,-2.1655,-2.1655,-2.1502,-2.1359,-2.1359,-2.1359,-2.1359,-2.1359,-2.1359,-2.1195,-2.0547,-2.0382,-2.0138,-1.9167,-1.885,-1.8612,-1.7811,-1.7253,-1.6788,0.0,0.0,0.0,0.0,0.0,0.0,0.0,0.0,0.0,-1.1328,-0.9786,-0.8249,-0.6775,-0.6485,0.0,-0.4924,-0.439,-0.3602,-0.2357,-0.0962,-0.0062,0.0185,0.2514,0.0,0.0,0.0,0.0,0.3828,0.3877,0.3772,0.3583,0.3524,0.3246,0.2691,0.224,0.1902,0.1677,0.1454,0.1174,0.0894,0.1008,0.1121,0.1234,0.0168,-0.0112,0.0112,0.1178,0.1178,0.0561,0.0785,0.0898,0.1125,-2.2909,0.0,0.0,-2.4375,0.0,0.0,-2.467,-2.5613,0.0,-2.6785,-2.6687,0.0,-2.6451,-2.599,-2.5883,-2.6455,-2.6539,0.0,-2.7935,0.0,0.0,-2.6729,-2.6483,-2.582,-2.4515,-2.4563,-2.4327,-2.3841,-2.3133,0.0,-2.3018,0.0,0.0,0.0,0.0,-2.1005,-2.1066,-2.1548,-2.1683,-2.1562,-2.1273,0.0,0.0,-2.0886,-2.0964,-2.0964,-2.0964,-2.1041,-2.1205,-2.1205,-2.1205,-2.1205,-2.1205,-2.0964,-2.0557,-1.9913,-1.958,-1.9088,-1.8052,-1.773,-1.7496,-1.6698,-1.6304,-1.6064,-1.5839,-1.5597,-1.5423,0.0,0.0,0.0,0.0,0.0,0.0,-1.0819,-0.943,-0.816,-0.7108,-0.6574,0.0,-0.49,-0.4345,-0.3656,-0.2861,-0.1112,-0.0,0.0063,0.1508,0.0,0.0,0.0,0.0,0.3818,0.3796,0.3765,0.3659,0.3268,0.2852,0.2408,0.1734,0.1286,0.1008,0.095,0.0615,0.0168,0.0672,0.0673,0.0336,0.0112,-0.0,0.0056,0.0673,0.0785,0.0617,0.0842,0.1065,0.1459,0.0,0.0,0.0,0.0,0.0,0.0,0.0,-2.4756,0.0,-2.5401,0.0,-2.4286,-2.4516,-2.4105,-2.4054,-2.4808,0.0,-2.5391,-2.6749,-2.6002,-2.576,-2.6182,-2.5429,-2.4726,-2.4345,-2.3914,-2.3714,-2.3754,-2.2597,-2.2203,0.0,0.0,0.0,0.0,0.0,0.0,0.0,-2.0931,-2.0931,-2.0861,-2.0418,-2.0245,-2.0245,-2.0245,-2.0245,-2.0245,-2.0245,-2.0644,-2.1128,-2.1128,-2.1051,-2.0964,-2.0964,-2.0313,-1.958,-1.9274,-1.878,-1.8043,-1.6854,-1.669,-1.6609,-1.5665,-1.5431,-1.5431,-1.5431,-1.5431,-1.5431,-1.5431,-1.5347,-1.4821,0.0,0.0,0.0,-1.0068,0.0,0.0,0.0,0.0,-0.5806,-0.493,0.0,0.0,-0.3672,-0.1639,-0.0195,0.0129,0.0,0.0,0.0,0.0,0.0,0.3873,0.4013,0.0,0.3876,0.0,0.2471,0.1847,0.1174,0.0559,0.0112,0.0503,0.0112,-0.0842,0.0224,0.0056,-0.0842,-0.0168,0.0112,0.0168,0.0673,0.0898,0.0898,0.0898,0.1288,0.1903,0.0,0.0,0.0,0.0,0.0,-2.3476,-2.4438,-2.5088,-2.5537,-2.5615,-2.5261,-2.48,-2.4438,-2.4026,-2.3792,-2.3774,-2.3744,0.0,0.0,0.0,0.0,-2.3702,-2.3536,-2.3418,-2.335,-2.2928,-2.2879,-2.3222,-2.193,-2.1211,-2.095,0.0,0.0,0.0,0.0,0.0,-1.9115,-1.946,0.0,-1.9015,-1.8628,-1.8479,-1.8479,-1.8479,-1.8479,-1.8479,-1.8479,-1.9441,-2.0722,-2.0722,-2.0245,-1.9618,-1.9618,-1.9045,-1.8149,-1.7423,-1.7098,-1.6854,-1.5906,-1.5665,-1.5665,-1.5423,-1.5431,-1.5431,-1.5431,-1.5431,-1.5431,-1.5431,-1.4831,-1.4205,-1.3601,0.0,0.0,0.0,0.0,0.0,0.0,0.0,0.0,-0.5049,-0.4125,-0.362,-0.3605,-0.2641,-0.1297,0.0,0.0,0.0,0.0,0.0,0.0,0.0,0.4114,0.0,0.0,0.0,0.242,0.1065,0.0616,0.0505,0.0729,-0.0168,-0.0673,-0.0898,-0.0673,-0.0729,-0.0842,0.028,0.0729,0.0729,0.0842,0.0898,0.0898,0.0898,0.1288,0.1918,0.0,0.0,0.0,0.0,0.0,0.0,0.0,-2.3624,0.0,-2.5314,-2.501,-2.457,-2.4141,-2.3906,-2.3613,-2.3359,-2.3319,-2.3319,-2.3319,-2.3319,-2.3232,-2.3144,-2.3135,-2.2862,-2.2413,-2.1807,-2.1521,-2.1596,-2.0354,-1.9898,-2.011,0.0,0.0,0.0,0.0,-1.81,0.0,0.0,0.0,-1.8245,-1.8066,-1.7997,-1.7997,-1.7997,-1.7997,-1.7997,-1.7997,-1.8559,-1.9274,-1.9274,-1.8957,-1.8647,-1.8647,-1.7997,-1.7269,-1.6854,-1.6378,-1.5899,-1.5506,-1.5431,-1.5431,-1.5431,-1.5431,-1.5431,-1.5431,-1.5431,-1.5257,-1.465,-1.4307,-1.371,-1.2337,-1.0513,0.0,0.0,0.0,0.0,0.0,0.0,-0.5461,-0.5079,-0.3832,-0.2963,-0.3001,0.0,0.0,0.0,0.0,0.0,0.0,0.0,0.0,0.0,0.0,0.0,0.0,0.0,0.0,0.1347,0.0393,-0.0056,-0.0056,-0.0449,-0.0729,-0.0898,-0.0898,-0.0561,0.0056,0.0673,0.0898,0.0898,0.0898,0.0898,0.0898,0.0898,0.1065,0.1466,0.0,-1.9976,0.0,0.0,-2.1357,0.0,-2.1744,-2.2133,-2.2982,-2.4641,-2.4533,-2.4108,-2.3975,-2.3838,-2.3613,-2.3174,-2.296,-2.2775,-2.2775,-2.2589,-2.2501,-2.2501,-2.2501,-2.2138,-2.1418,-2.0648,-2.0232,-2.0112,-1.8896,-1.865,0.0,-1.8742,0.0,0.0,0.0,0.0,0.0,0.0,-1.7594,-1.744,-1.744,-1.744,-1.744,-1.744,-1.744,-1.744,-1.744,-1.744,-1.744,-1.744,-1.7594,-1.7755,-1.7755,-1.7107,-1.646,-1.646,-1.5906,-1.5431,-1.5431,-1.5431,-1.5431,-1.5431,-1.5257,-1.509,-1.509,-1.4915,-1.4482,-1.362,-1.3366,-1.2687,-1.0669,-0.9414,0.0,0.0,0.0,0.0,0.0,0.0,-0.5375,0.0,-0.3605,-0.26,-0.247,0.0,0.0,0.0,0.0,0.0,0.0,0.0,0.0,0.0,0.0,0.3501,0.3851,0.0,0.2003,0.0,-0.0,-0.096,-0.1459,-0.0729,-0.0505,-0.0729,-0.0729,-0.0112,0.0898,0.0898,0.0898,0.0898,0.0898,0.0898,0.0898,0.0898,0.0902,0.1081,0.0,0.0,0.0,0.0,0.0,0.0,-2.1428,-2.1836,-2.2574,-2.3987,-2.3888,-2.3776,-2.4312,-2.4014,-2.3613,-2.3174,-2.2325,-2.1872,-2.1872,-2.0962,-2.0503,-2.0503,-2.0503,-2.0413,-2.0322,-1.9583,-1.9402,0.0,-1.8431,-1.7818,-1.7961,-1.7384,0.0,0.0,0.0,0.0,0.0,-1.646,-1.6386,-1.5673,-1.5673,-1.5673,-1.5673,-1.5673,-1.5673,-1.5673,-1.5673,-1.5673,-1.5673,-1.5673,-1.6147,-1.6854,-1.6854,-1.6221,-1.5506,-1.5506,-1.5431,-1.5431,-1.5431,-1.5431,-1.5431,-1.5431,-1.4824,-1.4223,-1.4223,-1.336,-1.2583,-1.2413,-1.1655,-1.056,-0.9329,-0.8776,-0.8539,0.0,0.0,0.0,0.0,0.0,-0.5806,-0.5003,-0.4157,-0.3301,-0.2435,-0.2367,0.0,0.0,-0.1041,0.0,0.0,0.0,0.0,0.1951,0.0,0.1029,0.2271,0.345,0.0,0.0176,-0.1054,-0.2252,-0.3271,-0.1291,-0.028,-0.0112,-0.0112,0.028,0.0898,0.0898,0.0898,0.0898,0.0898,0.0898,0.0898,0.0898,0.0915,0.1119,0.0,0.0,0.0,0.0,0.0,0.0,0.0,-1.9473,-1.9992,-2.1399,-2.1969,-2.2307,-2.2288,-2.2198,-2.1853,-2.1356,-2.1051,-2.0782,-2.0782,-2.0413,-2.0232,-2.0232,-2.0232,-1.9859,-1.9101,-1.86,-1.8151,0.0,0.0,-1.7075,-1.7272,-1.6965,0.0,0.0,0.0,-1.5875,-1.5431,-1.5741,-1.5748,-1.5431,-1.5431,-1.5431,-1.5431,-1.5431,-1.5431,-1.5431,-1.5431,-1.5431,-1.5431,-1.5431,-1.5673,-1.5906,-1.5906,-1.5665,-1.5431,-1.5431,-1.5431,-1.5264,-1.4741,-1.4657,-1.4482,-1.388,-1.336,-1.3014,-1.3014,-1.2583,-1.1901,-1.1214,-1.0193,-0.9318,-0.8979,-0.871,-0.8566,0.0,0.0,0.0,0.0,0.0,0.0,-0.432,0.0,-0.2772,-0.2387,-0.2398,0.0,0.0,0.0,0.0,0.0,0.0,0.0,-0.0573,0.0,0.0408,-0.0402,-0.0718,-0.0937,-0.1058,-0.1587,-0.2431,-0.3546,-0.2695,-0.1849,-0.1008,0.0056,0.0336,0.0056,0.0673,0.0898,0.0898,0.0898,0.0898,0.09,0.0918,0.128,0.1892,-1.688,0.0,-1.6801,0.0,-1.7372,-1.7584,-1.7697,-1.7682,-1.8025,-1.8974,-1.971,-2.0404,-2.0823,-2.089,-2.0735,-2.0266,-1.9859,-1.9661,-1.9778,-1.9307,-1.9151,-1.9257,-1.9159,0.0,-1.7765,-1.7422,-1.6911,-1.6235,-1.6235,-1.6352,-1.6579,0.0,0.0,0.0,-1.5679,-1.5518,-1.5431,-1.5431,-1.5431,-1.5431,-1.5431,-1.5431,-1.5431,-1.5431,-1.5431,-1.5431,-1.5431,-1.5431,-1.5347,-1.5082,-1.4999,-1.4999,-1.5257,-1.5257,-1.4999,-1.4999,-1.4741,-1.4307,-1.3711,-1.3535,-1.336,-1.2674,-1.2163,-1.1821,-1.1821,-1.1391,-1.088,-1.0019,-0.9165,-0.8656,-0.8828,-0.8652,-0.8436,-0.8041,0.0,0.0,0.0,-0.5018,0.0,-0.3795,-0.3179,-0.261,-0.2394,-0.239,0.0,0.0,0.0,0.0,0.0,0.0,0.0,0.0,0.0,0.0,0.0,-0.3451,-0.3705,-0.254,-0.2479,-0.2901,-0.3645,-0.3498,-0.2749,-0.1455,-0.028,-0.0,-0.0336,0.0561,0.0898,0.0898,0.0898,0.096,0.1085,0.1052,0.1666,0.2609,-1.6593,-1.6677,-1.6772,-1.7066,-1.7413,-1.7513,-1.7197,-1.7154,-1.7049,-1.7029,-1.7088,-1.8029,-2.0577,-2.089,-2.0735,-2.0266,-1.9093,-1.8505,-1.8772,-1.7356,-1.661,0.0,0.0,-1.6463,-1.6463,-1.6074,-1.5921,-1.5921,0.0,0.0,-1.5935,0.0,-1.6213,-1.5913,-1.5913,-1.5731,-1.5431,-1.5431,-1.5431,-1.5431,-1.5431,-1.5431,-1.5431,-1.5431,-1.5431,-1.5431,-1.5431,-1.5431,-1.5257,-1.4398,-1.3964,-1.388,-1.5082,-1.4824,-1.4139,-1.4139,-1.3275,-1.2328,-1.2322,-1.2157,-1.1986,-1.1986,-1.1311,-1.0636,-1.0636,-0.9772,-0.8911,-0.8656,-0.8568,-0.8568,-0.8568,-0.8568,-0.8296,-0.7316,0.0,0.0,0.0,0.0,0.0,-0.3789,-0.3776,-0.3377,-0.2421,-0.244,0.0,0.0,0.0,0.0,0.0,0.0,0.0,-0.0561,-0.2455,0.0,-0.105,-0.3213,-0.4259,-0.426,-0.4129,-0.3998,-0.3762,-0.3246,-0.2244,-0.0898,-0.1178,-0.0785,0.0056,0.0673,0.0898,0.0898,0.0898,0.1145,0.1474,0.1475,0.2081,0.3021,-1.4131,-1.4661,-1.5133,-1.5221,-1.5816,-1.6375,-1.647,-1.6457,-1.6441,-1.6415,-1.6465,-1.6692,-1.7274,-1.7827,-1.8109,0.0,-1.7415,-1.7092,0.0,-1.6655,-1.6411,-1.6521,-1.6426,-1.6272,-1.6067,-1.5965,-1.5804,-1.5584,0.0,0.0,0.0,-1.5561,-1.544,-1.5064,-1.5064,-1.5007,-1.4908,-1.4908,-1.4908,-1.4908,-1.4307,-1.4048,-1.3964,-1.336,-1.3099,-1.3099,-1.3099,-1.3099,-1.3014,-1.276,-1.2589,-1.2583,-1.293,-1.293,-1.2674,-1.2674,-1.2413,-1.1986,-1.1311,-1.1058,-1.0885,-1.0289,-0.9772,-0.9428,-0.9428,-0.9087,-0.8652,-0.8656,-0.8568,-0.8388,-0.7676,-0.7588,-0.7231,-0.634,-0.5515,0.0,0.0,0.0,-0.3203,-0.2948,-0.2844,-0.2735,0.0,-0.2426,0.0,0.0,0.0,0.0,0.0,0.0,0.0,0.0,-0.2569,0.0,-0.273,-0.3155,-0.3583,-0.3796,-0.3796,-0.3658,-0.3522,-0.2943,-0.2511,-0.2211,-0.1018,-0.0532,-0.058,0.0534,0.0935,0.0901,0.1177,0.1368,0.1541,0.1792,0.2722,0.3862,-1.268,-1.3205,-1.3631,-1.3537,-1.4069,-1.4571,-1.4665,-1.4746,-1.4868,-1.5329,-1.5393,-1.5416,-1.5686,-1.6002,0.0,-1.6397,-1.6109,-1.5979,-1.6094,-1.5878,-1.5799,-1.5922,-1.5806,-1.5662,-1.5468,0.0,0.0,-1.4657,-1.4412,-1.415,-1.3972,-1.3972,-1.3874,-1.3704,-1.3704,-1.3704,-1.3704,-1.3704,-1.3704,-1.362,-1.3099,-1.2845,-1.2845,-1.2242,-1.1986,-1.1986,-1.1986,-1.1986,-1.1986,-1.1563,-1.1391,-1.13,-1.0966,-1.0794,-1.0794,-1.1311,-1.1139,-1.0707,-1.0115,-0.9946,-0.9689,-0.9174,-0.8915,-0.8828,-0.8828,-0.8384,-0.8032,-0.8032,-0.7764,-0.7319,-0.6697,-0.6609,-0.6251,-0.5364,-0.4606,-0.3982,-0.3613,0.0,-0.2456,0.0,0.0,0.0,0.0,-0.2454,-0.2461,0.0,0.0,0.0,0.0,0.0,0.0,-0.2828,-0.2449,0.0,-0.3226,-0.3033,-0.308,-0.3463,-0.3425,-0.3251,-0.307,-0.2662,-0.2523,-0.2461,-0.0925,-0.0488,-0.0719,0.049,0.0966,0.0994,0.1335,0.1596,0.1778,0.2161,0.3043,0.4189,-1.2005,-1.2188,0.0,0.0,-1.2314,0.0,-1.227,-1.2237,-1.2592,-1.3748,-1.382,-1.4257,-1.5239,-1.5161,-1.5019,-1.5396,0.0,0.0,0.0,-1.5056,-1.4867,-1.5154,-1.4803,-1.465,-1.465,-1.4566,-1.4132,-1.3275,-1.2413,-1.1986,-1.1986,-1.1986,-1.1986,-1.1986,-1.1986,-1.1986,-1.1986,-1.1986,-1.1986,-1.1986,-1.1901,-1.1815,-1.1815,-1.1815,-1.1729,-1.1729,-1.1729,-1.1729,-1.1643,-1.0717,-1.0366,-1.0014,-0.9165,-0.874,-0.8828,-1.012,-0.9685,-0.8911,-0.8911,-0.874,-0.8568,-0.8568,-0.8568,-0.848,-0.8388,-0.7672,-0.6962,-0.6962,-0.634,-0.5719,-0.563,-0.563,-0.5275,-0.4387,-0.413,-0.3781,-0.2785,0.0,-0.2333,0.0,0.0,0.0,0.0,-0.2511,-0.2489,0.0,0.0,0.0,0.0,0.0,-0.2465,-0.235,-0.2352,-0.2466,-0.2745,-0.274,-0.2906,-0.3159,-0.3075,-0.2844,-0.2586,-0.2452,-0.2296,-0.1985,-0.0931,-0.0496,-0.0434,0.0559,0.0992,0.105,0.1424,0.1763,0.2191,0.2515,0.3216,0.4159,0.0,0.0,-1.1071,-1.1022,-1.1838,-1.2444,-1.2488,-1.2384,-1.2406,-1.2495,-1.2406,-1.2309,-1.2377,-1.2308,-1.229,-1.2354,-1.3854,-1.4874,-1.4951,-1.4818,-1.4769,-1.4846,-1.4088,-1.3711,-1.3711,-1.3021,-1.2504,-1.2077,-1.1906,-1.1649,-1.1488,-1.1488,-1.1488,-1.1488,-1.1488,-1.1488,-1.1488,-1.1488,-1.1488,-1.1402,-1.0717,-1.0371,-1.0284,-0.9685,-0.9428,-0.9428,-0.9428,-0.9428,-0.934,-0.917,-0.9087,-0.8995,-0.874,-0.8656,-0.8652,-0.8999,-0.8911,-0.8656,-0.8656,-0.8656,-0.8568,-0.8568,-0.8032,-0.7231,-0.652,-0.6163,-0.6074,-0.6074,-0.5897,-0.5453,-0.4743,-0.4654,-0.43,-0.3409,-0.3042,-0.2706,-0.2524,-0.2195,0.0,0.0,-0.2119,-0.2196,-0.2275,-0.2431,-0.2523,0.0,0.0,0.0,0.0,-0.2572,-0.2546,-0.2471,-0.2514,-0.2486,-0.2526,-0.2481,-0.2539,-0.282,-0.307,-0.2994,-0.2661,-0.2642,-0.2438,-0.211,-0.0989,-0.0521,-0.0511,0.0588,0.1221,0.1423,0.1879,0.222,0.2516,0.2903,0.3735,0.4616,-0.8739,-0.9289,-0.9753,-0.9668,-1.0356,-1.0857,-1.0857,-1.0857,-1.0905,-1.1146,-1.112,-1.1144,-1.1262,-1.1327,-1.1327,-1.1327,-1.2431,-1.3112,-1.3112,-1.3112,-1.3112,-1.3112,-1.2687,-1.2431,-1.2431,-1.1912,-1.1397,-1.088,-1.0453,-1.0197,-1.0033,-1.0033,-1.0033,-1.0033,-1.0033,-1.0033,-1.0033,-1.0033,-1.0033,-1.0033,-0.9515,-0.9345,-0.9257,-0.874,-0.8568,-0.8568,-0.8568,-0.8568,-0.8568,-0.8568,-0.8568,-0.8568,-0.8568,-0.8568,-0.8568,-0.8568,-0.8568,-0.8568,-0.8568,-0.8296,-0.7852,-0.7408,-0.6874,-0.634,-0.5808,-0.5275,-0.4919,-0.5008,-0.4652,-0.4119,-0.3585,-0.3496,-0.3307,-0.2658,-0.2342,-0.2289,-0.2242,-0.1947,0.0,-0.1889,-0.1885,-0.1962,-0.2042,-0.2199,-0.2211,-0.224,0.0,0.0,-0.2242,-0.2425,-0.2492,-0.2512,-0.2542,-0.2515,-0.242,-0.2337,-0.2331,-0.2467,-0.2639,-0.2622,-0.2487,-0.2487,-0.222,-0.1748,-0.0874,-0.0266,0.0131,0.1002,0.1518,0.1867,0.2259,0.253,0.2696,0.3338,0.3959,0.4489,-0.8633,-0.8723,-0.8767,-0.8597,-0.871,-0.882,-0.882,-0.882,-0.91,-0.9931,-0.9975,-1.0248,-1.0922,-1.0937,-1.0906,-1.0942,-1.0911,-1.0982,-1.1241,-1.1327,-1.1327,-1.1327,-1.1154,-1.1068,-1.1068,-1.0982,-1.0463,-0.9685,-0.8999,-0.8568,-0.8568,-0.8568,-0.8568,-0.8568,-0.8568,-0.8568,-0.8568,-0.8568,-0.8568,-0.8568,-0.8568,-0.8568,-0.8568,-0.8568,-0.8568,-0.8568,-0.8568,-0.8568,-0.8568,-0.8568,-0.8568,-0.8568,-0.8388,-0.8388,-0.8388,-0.8208,-0.812,-0.8212,-0.83,-0.7676,-0.6697,-0.5719,-0.5453,-0.5364,-0.5275,-0.4385,-0.3671,-0.3941,-0.3138,-0.2424,-0.2424,-0.2417,-0.24,-0.2189,-0.2079,-0.2041,-0.197,0.0,-0.1689,-0.1812,-0.165,-0.165,-0.1808,-0.1887,-0.1887,-0.1887,-0.1887,-0.1887,0.0,-0.2082,-0.2324,-0.2434,-0.2441,-0.2491,-0.242,-0.2312,-0.2183,-0.2174,-0.2183,-0.2221,-0.2221,-0.2221,-0.1884,-0.1277,-0.0739,-0.0,0.0874,0.1412,0.1883,0.2287,0.2619,0.2753,0.2954,0.3758,0.4095,0.4361,-0.8787,-0.88,-0.8767,-0.8597,-0.871,-0.882,-0.882,-0.882,-0.8877,-0.9216,-0.9058,-0.8974,-0.9439,-0.9187,-0.9059,-0.9212,-0.9089,-0.9689,-1.1241,-1.1327,-1.1327,-1.1327,-1.0549,-1.012,-1.012,-0.9432,-0.8915,-0.8828,-0.8656,-0.8568,-0.8568,-0.8568,-0.8568,-0.8568,-0.8568,-0.8568,-0.8568,-0.8568,-0.8568,-0.8568,-0.8568,-0.8568,-0.8568,-0.8568,-0.8568,-0.8568,-0.8568,-0.8568,-0.8568,-0.8568,-0.8568,-0.8476,-0.7584,-0.7319,-0.7139,-0.634,-0.6163,-0.634,-0.7139,-0.6609,-0.5719,-0.4743,-0.4385,-0.3939,-0.3138,-0.269,-0.2512,-0.2512,-0.2333,-0.2243,-0.2243,-0.2211,-0.2194,-0.2138,-0.1963,-0.1734,-0.1753,0.0,-0.1341,-0.1415,-0.1493,-0.165,-0.165,-0.1808,-0.1887,-0.1887,-0.1887,-0.1887,-0.1887,-0.1972,-0.1972,-0.1965,-0.2402,-0.2533,-0.2421,-0.2354,-0.2224,-0.2174,-0.2183,-0.2221,-0.2221,-0.2221,-0.1884,-0.1277,-0.0739,-0.0,0.0874,0.1412,0.2017,0.2619,0.2686,0.3157,0.3825,0.3961,0.4558,0.5435,-0.8702,-0.8682,-0.8662,-0.858,-0.8633,-0.8714,-0.8804,-0.882,-0.8848,-0.8938,-0.8808,-0.8731,-0.8804,-0.8666,-0.8601,-0.8678,-0.8613,-0.8911,-0.9777,-0.9864,-0.9864,-0.9864,-0.9432,-0.917,-0.917,-0.8828,-0.8568,-0.8568,-0.8568,-0.8568,-0.8568,-0.8568,-0.8568,-0.8568,-0.8568,-0.8568,-0.8568,-0.8568,-0.8568,-0.8568,-0.8568,-0.8568,-0.8568,-0.8568,-0.8568,-0.8568,-0.8568,-0.8212,-0.7764,-0.7764,-0.7496,-0.6962,-0.652,-0.6251,-0.6071,-0.5628,-0.563,-0.563,-0.545,-0.5095,-0.4461,-0.3356,-0.3022,-0.286,-0.2388,-0.2136,-0.2064,-0.2154,-0.2064,-0.1974,-0.1974,-0.194,-0.1824,-0.1736,-0.1591,0.0,0.0,-0.1354,-0.1335,-0.1335,-0.1415,-0.1415,-0.1415,-0.1493,-0.1414,-0.0941,-0.0863,-0.0706,-0.0235,-0.0314,-0.0628,-0.102,-0.1903,-0.2367,-0.2315,-0.2335,-0.2352,-0.2221,-0.2232,-0.1926,-0.1372,-0.1421,-0.0813,0.0206,0.0406,0.1008,0.1813,0.2083,0.2487,0.3023,0.3291,0.3625,0.4095,0.4625,0.5286,0.5969,-0.8653,-0.8625,-0.8613,-0.8572,-0.8568,-0.8613,-0.8743,-0.8763,-0.8775,-0.8816,-0.882,-0.8787,-0.8702,-0.8653,-0.8645,-0.8686,-0.8613,-0.8584,-0.8625,-0.8589,-0.8568,-0.8568,-0.8568,-0.8568,-0.8568,-0.8568,-0.8568,-0.8568,-0.8568,-0.8568,-0.8568,-0.8568,-0.8568,-0.8568,-0.8568,-0.8568,-0.8568,-0.8568,-0.8568,-0.8568,-0.8568,-0.8476,-0.8212,-0.8212,-0.812,-0.794,-0.794,-0.7408,-0.6694,-0.6694,-0.616,-0.5539,-0.5272,-0.5095,-0.4914,-0.4736,-0.4739,-0.4652,-0.376,-0.3492,-0.3301,-0.2373,-0.2128,-0.2055,-0.2021,-0.1862,-0.1794,-0.1974,-0.1884,-0.1702,-0.1694,-0.1663,-0.1459,-0.1097,0.0,0.0,0.0,-0.0709,-0.0707,-0.0707,-0.0707,-0.0707,-0.0707,-0.0707,-0.0392,0.0235,0.0313,0.0627,0.1254,0.1097,0.0705,0.0078,-0.1333,-0.2118,-0.2118,-0.2222,-0.2099,-0.1912,-0.1791,-0.1271,-0.0352,-0.0414,0.0276,0.1466,0.1369,0.1891,0.2686,0.2686,0.2956,0.3426,0.3828,0.4161,0.4492,0.5418,0.5947,0.644,-0.8804,-0.88,-0.8751,-0.8597,-0.8568,-0.8572,-0.8584,-0.8584,-0.8641,-0.88,-0.882,-0.8881,-0.9039,-0.8905,-0.8873,-0.9043,-0.8759,-0.8633,-0.8792,-0.8653,-0.8568,-0.8568,-0.8568,-0.8568,-0.8568,-0.8568,-0.8568,-0.8568,-0.8568,-0.8568,-0.8568,-0.8568,-0.8568,-0.8568,-0.8568,-0.8568,-0.8568,-0.8568,-0.8568,-0.8568,-0.8568,-0.8032,-0.7231,-0.7231,-0.6697,-0.5897,-0.5897,-0.5716,-0.5536,-0.5536,-0.5356,-0.491,-0.4024,-0.3757,-0.358,-0.2689,-0.2423,-0.2422,-0.2333,-0.2333,-0.2332,-0.2239,-0.1972,-0.1793,-0.1791,-0.1613,-0.1436,-0.1436,-0.1436,-0.1427,-0.1398,-0.137,-0.1097,-0.0336,0.0,0.0,0.0888,0.1034,0.1097,0.1097,0.1097,0.1097,0.1097,0.1097,0.1097,0.1175,0.1175,0.1254,0.1332,0.1254,0.1254,0.1175,-0.0863,-0.1886,-0.1886,-0.1841,-0.1437,-0.0602,-0.0587,-0.0072,0.0724,0.0651,0.1,0.1467,0.1464,0.1923,0.2686,0.2686,0.3222,0.3961,0.3961,0.4625,0.5547,0.5947,0.6412,0.6999,-0.8666,-0.8666,-0.8641,-0.8576,-0.8568,-0.8568,-0.8568,-0.8568,-0.8593,-0.8658,-0.8666,-0.869,-0.8759,-0.8706,-0.8694,-0.8763,-0.8645,-0.8597,-0.8662,-0.8605,-0.8568,-0.8568,-0.8568,-0.8568,-0.8568,-0.8568,-0.8568,-0.8568,-0.8568,-0.8568,-0.8568,-0.8568,-0.8568,-0.8568,-0.7944,-0.7672,-0.7676,-0.7051,-0.6786,-0.6786,-0.6786,-0.6609,-0.6251,-0.6251,-0.5985,-0.5719,-0.5719,-0.5184,-0.4469,-0.4469,-0.3937,-0.3224,-0.2868,-0.2598,-0.2419,-0.1884,-0.1705,-0.1705,-0.1705,-0.1794,-0.1878,-0.1765,-0.16,-0.152,-0.1588,-0.1511,-0.1436,-0.1436,-0.0976,-0.0614,-0.0609,-0.0169,0.0329,0.0658,0.0,0.0943,0.119,0.1261,0.1332,0.1332,0.1332,0.1332,0.1332,0.1332,0.1489,0.2038,0.2038,0.2273,0.2821,0.2352,0.2038,0.2038,0.0784,-0.0,-0.0157,-0.0233,-0.0153,0.0227,0.0299,0.0819,0.1712,0.1685,0.2026,0.2724,0.2678,0.2826,0.3025,0.3357,0.382,0.435,0.5017,0.5683,0.6358,0.6936,0.7386,0.7846,-0.8568,-0.8568,-0.8568,-0.8568,-0.8568,-0.8568,-0.8568,-0.8568,-0.8568,-0.8568,-0.8613,-0.8625,-0.8572,-0.8617,-0.8649,-0.8649,-0.8601,-0.8593,-0.8641,-0.8597,-0.8568,-0.8568,-0.8568,-0.8568,-0.8568,-0.8568,-0.854,-0.8479,-0.8214,-0.8099,-0.8045,-0.7786,-0.7609,-0.7609,-0.6914,-0.6589,-0.663,-0.5926,-0.5684,-0.5716,-0.5588,-0.5398,-0.5129,-0.5007,-0.4819,-0.4559,-0.4559,-0.3947,-0.3247,-0.3247,-0.2637,-0.1939,-0.1951,-0.1865,-0.1601,-0.1433,-0.1429,-0.1423,-0.1433,-0.1525,-0.1609,-0.141,-0.142,-0.1338,-0.1048,-0.0966,-0.0886,-0.0616,-0.0087,0.0343,0.0341,0.083,0.1296,0.1528,0.1664,0.1803,0.2037,0.2116,0.2116,0.2116,0.2116,0.2116,0.2116,0.2116,0.235,0.2901,0.2902,0.3137,0.3763,0.3214,0.2902,0.2902,0.2352,0.1958,0.1802,0.1175,0.0932,0.1299,0.1299,0.1757,0.2752,0.2705,0.297,0.3534,0.3446,0.3422,0.3332,0.3708,0.4223,0.4945,0.5679,0.6378,0.7114,0.7721,0.8157,0.8472,-0.8564,-0.8568,-0.8568,-0.8568,-0.8568,-0.8568,-0.8568,-0.8568,-0.8568,-0.8568,-0.8714,-0.8755,-0.8584,-0.8718,-0.8816,-0.8816,-0.8662,-0.8637,-0.8808,-0.8662,-0.8568,-0.8568,-0.8568,-0.8564,-0.8564,-0.8564,-0.8471,-0.8288,-0.7428,-0.6919,-0.6767,-0.5939,-0.5524,-0.5524,-0.5524,-0.5507,-0.5623,-0.5537,-0.5605,-0.5617,-0.5407,-0.4758,-0.389,-0.3549,-0.2937,-0.2102,-0.2102,-0.1934,-0.1681,-0.1681,-0.1514,-0.1353,-0.1381,-0.139,-0.1395,-0.1426,-0.1413,-0.1396,-0.1426,-0.1434,-0.1434,-0.1345,-0.1345,-0.1159,-0.0262,-0.0087,0.0172,0.1013,0.1176,0.1251,0.1223,0.1217,0.1531,0.2362,0.2511,0.2824,0.3684,0.3763,0.3763,0.3763,0.3763,0.3763,0.3763,0.3763,0.3763,0.3763,0.3763,0.3763,0.3763,0.3763,0.3763,0.3763,0.3763,0.3763,0.3763,0.2116,0.1724,0.2511,0.2511,0.2979,0.3763,0.3763,0.3712,0.362,0.3536,0.3518,0.3628,0.3538,0.4361,0.562,0.562,0.6522,0.785,0.818,0.8462,0.876,-0.7935,-0.8036,-0.812,-0.812,-0.7672,-0.7312,-0.7041,-0.6779,-0.6517,-0.6337,-0.6551,-0.6653,-0.6612,-0.6643,-0.6665,-0.6665,-0.6631,-0.6532,-0.6391,-0.6174,-0.6065,-0.6065,-0.6947,-0.7156,-0.6548,-0.6449,-0.6379,-0.6334,-0.5913,-0.5725,-0.5684,-0.5266,-0.51,-0.5017,-0.4353,-0.4118,-0.4061,-0.3389,-0.3148,-0.3166,-0.3059,-0.2883,-0.2628,-0.2527,-0.2353,-0.2102,-0.2102,-0.1934,-0.1681,-0.1681,-0.1514,-0.1265,-0.1358,-0.1361,-0.1362,-0.1371,-0.1367,-0.1192,-0.0599,-0.0514,-0.0516,-0.0524,-0.0526,-0.0262,0.0597,0.0849,0.0847,0.1178,0.1658,0.2126,0.2112,0.2641,0.3082,0.3376,0.345,0.3528,0.3763,0.3763,0.3763,0.3763,0.3763,0.3763,0.3763,0.3763,0.3763,0.3763,0.3763,0.3763,0.3763,0.3763,0.3763,0.3763,0.3763,0.3763,0.3763,0.3292,0.3214,0.345,0.345,0.3496,0.3669,0.3734,0.3755,0.3754,0.3795,0.4193,0.4796,0.5185,0.608,0.7259,0.7614,0.8211,0.8847,0.9085,0.9267,0.9357,-0.7762,-0.7861,-0.7865,-0.7933,-0.7496,-0.7224,-0.7041,-0.6782,-0.6517,-0.6425,-0.6517,-0.6609,-0.6609,-0.6248,-0.598,-0.598,-0.5625,-0.5359,-0.5267,-0.5087,-0.4821,-0.4465,-0.5206,-0.5485,-0.536,-0.5291,-0.5212,-0.5123,-0.4707,-0.4437,-0.432,-0.3914,-0.3753,-0.3672,-0.3104,-0.2874,-0.2898,-0.2322,-0.2085,-0.2101,-0.1999,-0.191,-0.1908,-0.1808,-0.1802,-0.1802,-0.1802,-0.1719,-0.1556,-0.1556,-0.1401,-0.133,-0.133,-0.133,-0.1249,-0.0923,-0.0836,-0.0582,0.0168,0.042,0.0504,0.0844,0.0681,0.0682,0.1499,0.174,0.1818,0.2129,0.2667,0.3041,0.3041,0.3482,0.3763,0.3763,0.3763,0.3841,0.3921,0.3921,0.3921,0.3995,0.4075,0.4075,0.4075,0.4075,0.4075,0.4075,0.4075,0.4075,0.4075,0.4112,0.4115,0.4075,0.4112,0.4115,0.4075,0.4075,0.3997,0.3763,0.3843,0.3889,0.3836,0.3932,0.4128,0.4489,0.4469,0.5029,0.6016,0.6244,0.7003,0.8075,0.8367,0.8846,0.9373,0.9523,0.9637,0.9733,-0.7808,-0.7769,-0.7834,-0.7826,-0.7764,-0.7768,-0.7676,-0.7676,-0.7588,-0.7496,-0.7496,-0.7496,-0.7408,-0.6599,-0.606,-0.606,-0.5262,-0.4732,-0.4732,-0.4732,-0.4287,-0.34,-0.3274,-0.365,-0.4653,-0.4723,-0.4624,-0.4357,-0.3632,-0.3117,-0.2976,-0.2199,-0.1808,-0.1808,-0.1808,-0.1908,-0.1944,-0.1944,-0.1968,-0.2002,-0.18,-0.1705,-0.162,-0.1426,-0.1335,-0.1335,-0.1335,-0.1335,-0.1335,-0.1335,-0.1276,-0.1299,-0.1217,-0.1217,-0.1059,-0.0249,0.0082,0.0325,0.1079,0.1337,0.1495,0.2439,0.2054,0.166,0.2437,0.2586,0.2813,0.3622,0.3763,0.3841,0.3841,0.3841,0.3841,0.3841,0.3841,0.3919,0.4077,0.4157,0.4233,0.4384,0.4384,0.4384,0.4384,0.4384,0.4384,0.4384,0.4384,0.4384,0.4384,0.4557,0.4564,0.4387,0.448,0.4562,0.4384,0.4384,0.4229,0.3841,0.4077,0.4151,0.4217,0.4287,0.4822,0.5742,0.5574,0.612,0.7134,0.7041,0.7481,0.8355,0.8355,0.8908,0.961,0.961,0.9739,0.9922,-0.6968,-0.7017,-0.7146,-0.7295,-0.6877,-0.6435,-0.6251,-0.5897,-0.5275,-0.4385,-0.438,-0.4291,-0.3492,-0.3224,-0.3135,-0.3135,-0.2688,-0.2509,-0.2509,-0.2329,-0.206,-0.1882,-0.1865,-0.1919,-0.2118,-0.2372,-0.2556,-0.2452,-0.2135,-0.1973,-0.1885,-0.1571,-0.1415,-0.1415,-0.1415,-0.1419,-0.1425,-0.1425,-0.1429,-0.1435,-0.1429,-0.1425,-0.1346,-0.1338,-0.1335,-0.1335,-0.1335,-0.1335,-0.1335,-0.1335,-0.1262,-0.1187,-0.0474,-0.0316,-0.0079,0.0715,0.1031,0.1185,0.1988,0.223,0.2466,0.3322,0.3408,0.3259,0.3478,0.3553,0.3549,0.3767,0.3763,0.3843,0.3999,0.4001,0.4077,0.4229,0.4307,0.4307,0.4307,0.4307,0.4384,0.4384,0.4384,0.4384,0.4384,0.4384,0.4384,0.4384,0.4384,0.4384,0.4384,0.4406,0.4408,0.4384,0.4406,0.4408,0.4384,0.4384,0.4384,0.4307,0.4307,0.4647,0.5165,0.524,0.5838,0.6734,0.6798,0.7374,0.8326,0.828,0.8786,0.9543,0.9543,0.9649,0.9846,0.9846,0.9879,0.9916,-0.6231,-0.6157,-0.6098,-0.5771,-0.5455,-0.5124,-0.5085,-0.4825,-0.4472,-0.3848,-0.3846,-0.3757,-0.3223,-0.2778,-0.2332,-0.1884,-0.1705,-0.1615,-0.1615,-0.1436,-0.1436,-0.1436,-0.1421,-0.1393,-0.1265,-0.1465,-0.1591,-0.165,-0.1493,-0.1493,-0.1493,-0.1335,-0.1335,-0.1335,-0.1335,-0.1335,-0.1335,-0.1335,-0.1335,-0.1335,-0.1335,-0.1335,-0.1335,-0.1335,-0.1335,-0.1335,-0.1335,-0.1335,-0.1335,-0.1335,-0.1021,-0.0628,-0.0157,0.0313,0.0784,0.1646,0.1882,0.2038,0.2901,0.3215,0.3372,0.3843,0.3997,0.4075,0.3841,0.3843,0.3921,0.3921,0.3997,0.4153,0.4231,0.4231,0.4309,0.4384,0.4384,0.4462,0.454,0.4543,0.4543,0.4698,0.4701,0.4701,0.4701,0.4701,0.4701,0.4701,0.4701,0.4701,0.4701,0.514,0.5143,0.4701,0.5526,0.5792,0.548,0.5795,0.6064,0.6208,0.5445,0.5505,0.6349,0.6356,0.6885,0.778,0.7789,0.8378,0.9236,0.9236,0.9539,0.9922,0.9922,0.9922,0.9922,0.9992,1.0067,1.0368,-0.5636,-0.5339,-0.5002,-0.4359,-0.4228,-0.4177,-0.4255,-0.4265,-0.4265,-0.409,-0.4076,-0.3984,-0.382,-0.3115,-0.2318,-0.1517,-0.1427,-0.1429,-0.1435,-0.143,-0.1429,-0.1435,-0.1401,-0.1371,-0.1264,-0.1318,-0.1288,-0.1335,-0.1335,-0.1335,-0.1335,-0.1335,-0.1335,-0.1335,-0.1335,-0.1335,-0.1335,-0.1335,-0.1335,-0.1335,-0.1335,-0.1335,-0.1335,-0.1335,-0.1335,-0.1335,-0.1335,-0.1178,-0.1021,-0.0942,-0.0392,0.0235,0.0392,0.094,0.1646,0.251,0.2744,0.2902,0.3686,0.3999,0.4155,0.4155,0.4309,0.4307,0.3997,0.3999,0.4155,0.4155,0.4309,0.4384,0.4462,0.4462,0.4462,0.4462,0.454,0.4543,0.4701,0.4779,0.4857,0.5168,0.5323,0.5401,0.5401,0.5401,0.5401,0.5401,0.5401,0.5401,0.5401,0.6126,0.6215,0.5482,0.6831,0.7304,0.6777,0.7497,0.799,0.8405,0.7141,0.6843,0.7508,0.7559,0.8014,0.8922,0.8812,0.9214,0.9922,0.9922,0.9922,0.9922,0.9922,0.9916,0.9992,1.0143,1.0443,1.0962,-0.5242,-0.4698,-0.4166,-0.4193,-0.4189,-0.4243,-0.4169,-0.4171,-0.3913,-0.3134,-0.2998,-0.2729,-0.1914,-0.1657,-0.157,-0.1396,-0.1396,-0.1408,-0.1433,-0.141,-0.1408,-0.1434,-0.1383,-0.1267,-0.1263,-0.1318,-0.1288,-0.1335,-0.1335,-0.1335,-0.1335,-0.1335,-0.1335,-0.1335,-0.1335,-0.1335,-0.1335,-0.1335,-0.1335,-0.1335,-0.1335,-0.1335,-0.1335,-0.1335,-0.1335,-0.1335,-0.1335,-0.0785,-0.0078,0.0705,0.1019,0.1254,0.196,0.2275,0.251,0.3372,0.3763,0.3921,0.4001,0.4233,0.4384,0.4384,0.4384,0.4384,0.4307,0.4307,0.4384,0.4384,0.4384,0.4462,0.4621,0.4621,0.4701,0.4859,0.4937,0.4937,0.4937,0.4937,0.5246,0.5935,0.67,0.7157,0.7157,0.7157,0.7157,0.7157,0.7157,0.7157,0.7157,0.7257,0.7257,0.7157,0.7411,0.7577,0.7656,0.774,0.8306,0.9222,0.9018,0.8903,0.8797,0.8598,0.8978,0.9765,0.9734,0.9814,0.9922,0.9922,0.9922,0.9922,0.9922,0.9992,1.0143,1.0368,1.1037,1.1855,-0.381,-0.3421,-0.3047,-0.2628,-0.2576,-0.2604,-0.2551,-0.2556,-0.2472,-0.2048,-0.1947,-0.1773,-0.1365,-0.1367,-0.1367,-0.1367,-0.1367,-0.1372,-0.1386,-0.1373,-0.1372,-0.1386,-0.1276,-0.134,-0.1323,-0.1309,-0.1288,-0.1335,-0.1335,-0.1335,-0.1335,-0.1335,-0.1335,-0.1335,-0.1335,-0.1335,-0.1335,-0.1335,-0.1335,-0.1335,-0.1335,-0.1335,-0.1257,-0.0785,-0.0549,-0.0549,-0.0,0.0392,0.0784,0.1175,0.1568,0.2038,0.2508,0.2978,0.3528,0.3995,0.4229,0.4231,0.4231,0.4387,0.4543,0.4543,0.4621,0.4701,0.4701,0.4701,0.4701,0.4621,0.4621,0.4779,0.4859,0.4859,0.5012,0.555,0.5767,0.6025,0.6328,0.6471,0.6649,0.6865,0.7234,0.7464,0.7464,0.7464,0.7464,0.7464,0.7464,0.7464,0.7464,0.7927,0.7927,0.754,0.8385,0.8716,0.8528,0.9124,0.9695,1.0316,1.0116,0.9948,0.9729,0.9627,0.9745,0.9922,0.9922,0.9922,0.9922,0.9922,0.9997,1.0084,1.0215,1.0881,1.1772,1.1849,1.2542,1.3514]},{"header":{"parameterUnit":"m.s-1","parameterCategory":1,"la1":30.6,"la2":28.766,"lo1":-90.7593,"lo2":-88.6598,"dy":0.0162,"dx":0.0183,"nx":116,"ny":114,"refTime":"2023-06-26T12:00:00:Z","depth":0,"parameterNumber":3,"parameterNumberName":"V-component_of_WINDS"},"data":[0.0,0.0,0.0,0.0,0.0,0.0,0.0,0.0,0.0,0.0,0.0,0.0,0.0,0.0,0.0,0.0,0.0,0.0,0.0,0.0,0.0,0.0,0.0,0.0,0.0,0.0,0.0,0.0,0.0,0.0,0.0,0.0,0.0,0.0,0.0,0.0,0.0,0.0,0.0,0.0,0.0,0.0,0.0,0.0,0.0,0.0,0.0,0.0,0.0,0.0,0.0,0.0,0.0,0.0,0.0,0.0,0.0,0.0,0.0,0.0,0.0,0.0,0.0,0.0,0.0,0.0,0.0,0.0,0.0,0.0,0.0,0.0,0.0,0.0,0.0,0.0,0.0,0.0,0.0,0.0,0.0,0.0,0.0,0.0,0.0,0.0,0.0,0.0,0.0,0.0,0.0,0.0,0.0,0.0,0.0,0.0,0.0,0.0,0.0,0.0,0.0,0.0,0.0,0.0,0.0,0.0,0.0,0.0,0.0,0.0,0.0,0.0,0.0,0.0,0.0,0.0,0.0,0.0,0.0,0.0,0.0,0.0,0.0,0.0,0.0,0.0,0.0,0.0,0.0,0.0,0.0,0.0,0.0,0.0,0.0,0.0,0.0,0.0,0.0,0.0,0.0,0.0,0.0,0.0,0.0,0.0,0.0,0.0,0.0,0.0,0.0,0.0,0.0,0.0,0.0,0.0,0.0,0.0,0.0,0.0,0.0,0.0,0.0,0.0,0.0,0.0,0.0,0.0,0.0,0.0,0.0,0.0,0.0,0.0,0.0,0.0,0.0,0.0,0.0,0.0,0.0,0.0,0.0,0.0,0.0,0.0,0.0,0.0,0.0,0.0,0.0,0.0,0.0,0.0,0.0,0.0,0.0,0.0,0.0,0.0,0.0,0.0,0.0,0.0,0.0,0.0,0.0,0.0,0.0,0.0,0.0,0.0,0.0,0.0,0.0,0.0,0.0,0.0,0.0,0.0,0.0,0.0,0.0,0.0,0.0,0.0,0.0,0.0,0.0,0.0,0.0,0.0,0.0,0.0,0.0,0.0,0.0,0.0,0.0,0.0,0.0,0.0,0.0,0.0,0.0,0.0,0.0,0.0,0.0,0.0,0.0,0.0,0.0,0.0,0.0,0.0,0.0,0.0,0.0,0.0,0.0,0.0,0.0,0.0,0.0,0.0,0.0,0.0,0.0,0.0,0.0,0.0,0.0,0.0,0.0,0.0,0.0,0.0,0.0,0.0,0.0,0.0,0.0,0.0,0.0,0.0,0.0,0.0,0.0,0.0,0.0,0.0,0.0,0.0,0.0,0.0,0.0,0.0,0.0,0.0,0.0,0.0,0.0,0.0,0.0,0.0,0.0,0.0,0.0,0.0,0.0,0.0,0.0,0.0,0.0,0.0,0.0,0.0,0.0,0.0,0.0,0.0,0.0,0.0,0.0,0.0,0.0,0.0,0.0,0.0,0.0,0.0,0.0,0.0,0.0,0.0,0.0,0.0,0.0,0.0,0.0,0.0,0.0,0.0,0.0,0.0,0.0,0.0,0.0,0.0,0.0,0.0,0.0,0.0,0.0,0.0,0.0,0.0,0.0,0.0,0.0,0.0,0.0,0.0,0.0,0.0,0.0,0.0,0.0,0.0,0.0,0.0,0.0,0.0,0.0,0.0,0.0,0.0,0.0,0.0,0.0,0.0,0.0,0.0,0.0,0.0,0.0,0.0,0.0,0.0,0.0,0.0,0.0,0.0,0.0,0.0,0.0,0.0,0.0,0.0,0.0,0.0,0.0,0.0,0.0,0.0,0.0,0.0,0.0,0.0,0.0,0.0,0.0,0.0,0.0,0.0,0.0,0.0,0.0,0.0,0.0,0.0,0.0,0.0,0.0,0.0,0.0,0.0,0.0,0.0,0.0,0.0,0.0,0.0,0.0,0.0,0.0,0.0,0.0,0.0,0.0,0.0,0.0,0.0,0.0,0.0,0.0,0.0,0.0,0.0,0.0,0.0,0.0,0.0,0.0,0.0,0.0,0.0,0.0,0.0,0.0,0.0,0.0,0.0,0.0,0.0,0.0,0.0,0.0,0.0,0.0,0.0,0.0,0.0,0.0,0.0,0.0,0.0,0.0,0.0,0.0,0.0,0.0,0.0,0.0,0.0,0.0,0.0,0.0,0.0,0.0,0.0,0.0,0.0,0.0,0.0,0.0,0.0,0.0,0.0,0.0,0.0,0.0,0.0,0.0,0.0,0.0,0.0,0.0,0.0,0.0,0.0,0.0,0.0,0.0,0.0,0.0,0.0,0.0,0.0,0.0,0.0,0.0,0.0,0.0,0.0,0.0,0.0,0.0,0.0,0.0,0.0,0.0,0.0,0.0,0.0,0.0,0.0,0.0,0.0,0.0,0.0,0.0,0.0,0.0,0.0,0.0,0.0,0.0,0.0,0.0,0.0,0.0,0.0,0.0,0.0,0.0,0.0,0.0,0.0,0.0,0.0,0.0,0.0,0.0,0.0,0.0,0.0,0.0,0.0,0.0,0.0,0.0,0.0,0.0,0.0,0.0,0.0,0.0,0.0,0.0,0.0,0.0,0.0,0.0,0.0,0.0,0.0,0.0,0.0,0.0,0.0,0.0,0.0,0.0,0.0,0.0,0.0,0.0,0.0,0.0,0.0,0.0,0.0,0.0,0.0,0.0,0.0,0.0,0.0,0.0,0.0,0.0,0.0,0.0,0.0,0.0,0.0,0.0,0.0,0.0,0.0,0.0,0.0,0.0,0.0,0.0,0.0,0.0,0.0,0.0,0.0,0.0,0.0,0.0,0.0,0.0,0.0,0.0,0.0,0.0,0.0,0.0,0.0,0.0,0.0,0.0,0.0,0.0,0.0,0.0,0.0,0.0,0.0,0.0,0.0,0.0,0.0,0.0,0.0,0.0,0.0,0.0,0.0,0.0,0.0,0.0,0.0,0.0,0.0,0.0,0.0,0.0,0.0,0.0,0.0,0.0,0.0,0.0,0.0,0.0,0.0,0.0,0.0,0.0,0.0,0.0,0.0,0.0,0.0,0.0,0.0,0.0,0.0,0.0,0.0,0.0,0.0,0.0,0.0,0.0,0.0,0.0,0.0,0.0,0.0,0.0,0.0,0.0,0.0,0.0,0.0,0.0,0.0,0.0,0.0,0.0,0.0,0.0,0.0,0.0,0.0,0.0,0.0,0.0,0.0,0.0,0.0,0.0,0.0,0.0,0.0,0.0,0.0,0.0,0.0,0.0,0.0,0.0,0.0,0.0,0.0,0.0,0.0,0.0,0.0,0.0,0.0,0.0,0.0,0.0,0.0,0.0,0.0,0.0,0.0,0.0,0.0,0.0,0.0,0.0,0.0,0.0,0.0,0.0,0.0,0.0,0.0,0.0,0.0,0.0,0.0,0.0,0.0,0.0,0.0,0.0,0.0,0.0,0.0,0.0,0.0,0.0,0.0,0.0,0.0,0.0,0.0,0.0,0.0,0.0,0.0,0.0,0.0,0.0,0.0,0.0,0.0,0.0,0.0,0.0,0.0,0.0,0.0,0.0,0.0,0.0,0.0,0.0,0.0,0.0,0.0,0.0,0.0,0.0,0.0,0.0,0.0,0.0,0.0,0.0,0.0,0.0,0.0,0.0,0.0,0.0,0.0,0.0,0.0,0.0,0.0,0.0,0.0,0.0,0.0,0.0,0.0,0.0,0.0,0.0,0.0,0.0,0.0,0.0,0.0,0.0,0.0,0.0,0.0,0.0,0.0,0.0,0.0,0.0,0.0,0.0,0.0,0.0,0.0,0.0,0.0,0.0,0.0,0.0,0.0,0.0,0.0,0.0,0.0,0.0,0.0,0.0,0.0,0.0,0.0,0.0,0.0,0.0,0.0,0.0,0.0,0.0,0.0,0.0,0.0,0.0,0.0,0.0,0.0,0.0,0.0,0.0,0.0,0.0,0.0,0.0,0.0,0.0,0.0,0.0,0.0,0.0,0.0,0.0,0.0,0.0,0.0,0.0,0.0,0.0,0.0,0.0,0.0,0.0,0.0,0.0,0.0,0.0,0.0,0.0,0.0,0.0,0.0,0.0,0.0,0.0,0.0,0.0,0.0,0.0,0.0,0.0,0.0,0.0,0.0,0.0,0.0,0.0,0.0,0.0,0.0,0.0,0.0,0.0,0.0,0.0,0.0,0.0,0.0,0.0,0.0,0.0,0.0,0.0,0.0,0.0,0.0,0.0,0.0,0.0,0.0,0.0,0.0,0.0,0.0,0.0,0.0,0.0,0.0,0.0,0.0,0.0,0.0,0.0,0.0,0.0,0.0,0.0,0.0,0.0,0.0,0.0,0.0,0.0,0.0,0.0,0.0,0.0,0.0,0.0,0.0,0.0,0.0,0.0,0.0,0.0,0.0,0.0,0.0,0.0,0.0,0.0,0.0,0.0,0.0,0.0,0.0,0.0,0.0,0.0,0.0,0.0,0.0,0.0,0.0,0.0,0.0,0.0,0.0,0.0,0.0,0.0,0.0,0.0,0.0,0.0,0.0,0.0,0.0,0.0,0.0,0.0,0.0,0.0,0.0,0.0,0.0,0.0,0.0,0.0,0.0,0.0,0.0,0.0,0.0,0.0,0.0,0.0,0.0,0.0,0.0,0.0,0.0,0.0,0.0,0.0,0.0,0.0,0.0,0.0,0.0,0.0,0.0,0.0,0.0,0.0,0.0,0.0,0.0,0.0,0.0,0.0,0.0,0.0,0.0,0.0,0.0,0.0,0.0,0.0,0.0,0.0,0.0,0.0,0.0,0.0,0.0,0.0,0.0,0.0,0.0,0.0,0.0,0.0,0.0,0.0,0.0,0.0,0.0,0.0,0.0,0.0,0.0,0.0,0.0,0.0,0.0,0.0,0.0,0.0,0.0,0.0,0.0,0.0,0.0,0.0,0.0,0.0,0.0,0.0,0.0,0.0,0.0,0.0,0.0,0.0,0.0,0.0,0.0,0.0,0.0,0.0,0.0,0.0,0.0,0.0,0.0,0.0,0.0,0.0,0.0,0.0,0.0,0.0,0.0,0.0,0.0,0.0,0.0,0.0,0.0,0.0,0.0,0.0,0.0,0.0,0.0,0.0,0.0,0.0,0.0,0.0,0.0,0.0,0.0,0.0,0.0,0.0,0.0,0.0,0.0,0.0,0.0,0.0,0.0,0.0,0.0,0.0,0.0,0.0,0.0,0.0,0.0,0.0,0.0,0.0,0.0,0.0,0.0,0.0,0.0,0.0,0.0,0.0,0.0,0.0,0.0,0.0,0.0,0.0,0.0,0.0,0.0,0.0,0.0,0.0,0.0,0.0,0.0,0.0,0.0,0.0,0.0,0.0,0.0,0.0,0.0,0.0,0.0,0.0,0.0,0.0,0.0,0.0,0.0,0.0,0.0,0.0,0.0,0.0,0.0,0.0,0.0,0.0,0.0,0.0,0.0,0.0,0.0,0.0,0.0,0.0,0.0,0.0,0.0,0.0,0.0,0.0,0.0,0.0,0.0,0.0,0.0,0.0,0.0,0.0,0.0,0.0,0.0,0.0,0.0,0.0,0.0,0.0,0.0,0.0,0.0,0.0,0.0,0.0,0.0,0.0,0.0,0.0,0.0,0.0,0.0,0.0,0.0,0.0,0.0,0.0,0.0,0.0,0.0,0.0,0.0,0.0,0.0,0.0,0.0,0.0,0.0,0.0,0.0,0.0,0.0,0.0,0.0,0.0,0.0,0.0,0.0,0.0,0.0,0.0,0.0,0.0,0.0,0.0,0.0,0.0,0.0,0.0,0.0,0.0,0.0,0.0,0.0,0.0,0.0,0.0,0.0,0.0,0.0,0.0,0.0,0.0,0.0,0.0,0.0,0.0,0.0,0.0,0.0,0.0,0.0,0.0,0.0,0.0,0.0,0.0,0.0,0.0,0.0,0.0,0.0,0.0,0.0,0.0,0.0,0.0,0.0,0.0,0.0,0.0,0.0,0.0,0.0,0.0,0.0,0.0,0.0,0.0,0.0,0.0,0.0,0.0,0.0,0.0,0.0,0.0,0.0,0.0,0.0,0.0,0.0,0.0,0.0,-3.0249,0.0,0.0,0.0,0.0,0.0,0.0,0.0,0.0,0.0,0.0,0.0,0.0,0.0,0.0,0.0,0.0,0.0,0.0,0.0,0.0,0.0,0.0,0.0,0.0,0.0,0.0,0.0,0.0,0.0,0.0,0.0,0.0,0.0,0.0,0.0,0.0,0.0,0.0,0.0,0.0,0.0,0.0,0.0,0.0,0.0,0.0,0.0,0.0,0.0,0.0,0.0,0.0,0.0,0.0,0.0,0.0,0.0,0.0,0.0,0.0,0.0,0.0,0.0,0.0,0.0,0.0,0.0,0.0,0.0,0.0,0.0,0.0,0.0,0.0,0.0,0.0,0.0,0.0,0.0,0.0,0.0,0.0,0.0,0.0,0.0,0.0,0.0,0.0,0.0,0.0,0.0,0.0,0.0,0.0,0.0,0.0,0.0,0.0,0.0,0.0,0.0,0.0,0.0,0.0,0.0,0.0,0.0,0.0,0.0,0.0,0.0,0.0,0.0,0.0,0.0,0.0,-3.0951,0.0,0.0,0.0,0.0,0.0,0.0,0.0,0.0,0.0,0.0,0.0,0.0,0.0,0.0,0.0,0.0,0.0,0.0,0.0,0.0,0.0,0.0,0.0,0.0,0.0,0.0,0.0,0.0,0.0,0.0,0.0,0.0,0.0,0.0,0.0,0.0,0.0,0.0,0.0,0.0,0.0,0.0,0.0,0.0,0.0,0.0,0.0,0.0,0.0,0.0,0.0,0.0,0.0,0.0,0.0,0.0,0.0,0.0,0.0,0.0,0.0,0.0,0.0,0.0,0.0,0.0,0.0,0.0,0.0,0.0,0.0,0.0,0.0,0.0,0.0,0.0,0.0,0.0,0.0,0.0,0.0,0.0,0.0,0.0,0.0,0.0,0.0,0.0,0.0,0.0,0.0,0.0,0.0,0.0,0.0,0.0,0.0,0.0,0.0,0.0,0.0,0.0,0.0,0.0,0.0,0.0,0.0,0.0,-3.3747,-3.3803,-3.3803,-3.3803,-3.3803,-3.3846,-3.3325,-3.2931,-3.2621,-3.2834,0.0,0.0,0.0,0.0,0.0,0.0,0.0,0.0,0.0,0.0,0.0,0.0,0.0,0.0,0.0,0.0,0.0,0.0,0.0,0.0,0.0,0.0,0.0,0.0,0.0,0.0,0.0,0.0,0.0,0.0,0.0,0.0,0.0,0.0,0.0,0.0,0.0,0.0,0.0,0.0,0.0,0.0,0.0,0.0,0.0,0.0,0.0,0.0,0.0,0.0,0.0,0.0,0.0,0.0,0.0,0.0,0.0,0.0,0.0,0.0,0.0,0.0,0.0,0.0,0.0,0.0,0.0,0.0,0.0,0.0,0.0,0.0,0.0,0.0,0.0,0.0,0.0,0.0,0.0,0.0,0.0,0.0,0.0,0.0,0.0,0.0,-3.4839,-3.3606,0.0,0.0,0.0,0.0,0.0,0.0,0.0,0.0,0.0,0.0,0.0,0.0,0.0,-3.2455,-3.3073,-3.3691,-3.4309,-3.4987,-3.5447,-3.5714,-3.5714,-3.5714,-3.5864,-3.6014,-3.5929,0.0,-3.3407,-3.3207,0.0,0.0,0.0,0.0,0.0,0.0,0.0,0.0,0.0,0.0,0.0,0.0,0.0,0.0,0.0,0.0,0.0,0.0,0.0,0.0,0.0,0.0,0.0,0.0,0.0,0.0,0.0,0.0,0.0,0.0,0.0,0.0,0.0,0.0,0.0,0.0,0.0,0.0,0.0,0.0,0.0,0.0,0.0,0.0,0.0,0.0,0.0,0.0,0.0,0.0,0.0,0.0,0.0,0.0,0.0,0.0,0.0,0.0,0.0,0.0,0.0,0.0,0.0,0.0,0.0,0.0,0.0,0.0,0.0,0.0,0.0,0.0,0.0,0.0,0.0,0.0,0.0,0.0,0.0,0.0,0.0,0.0,0.0,0.0,0.0,-3.4206,-3.3769,-3.2291,-3.2422,-3.1991,0.0,0.0,0.0,0.0,0.0,0.0,0.0,0.0,0.0,-3.1791,-3.2821,-3.3733,-3.4351,-3.4955,-3.5574,-3.6178,-3.6459,-3.6585,-3.6585,-3.6739,-3.6816,-3.6892,-3.7135,-3.6814,-3.5998,-3.5511,-3.528,-3.5163,0.0,0.0,0.0,0.0,-3.6235,-3.6801,0.0,0.0,0.0,0.0,0.0,0.0,0.0,0.0,0.0,0.0,0.0,0.0,0.0,0.0,0.0,0.0,0.0,0.0,0.0,0.0,0.0,0.0,0.0,0.0,0.0,0.0,0.0,0.0,0.0,0.0,0.0,0.0,0.0,0.0,0.0,0.0,0.0,0.0,0.0,0.0,0.0,0.0,0.0,0.0,0.0,0.0,0.0,0.0,0.0,0.0,0.0,0.0,0.0,0.0,0.0,0.0,0.0,0.0,0.0,0.0,0.0,0.0,0.0,0.0,0.0,0.0,0.0,0.0,0.0,0.0,0.0,0.0,0.0,0.0,0.0,0.0,0.0,-3.3743,-3.3442,-3.1648,-3.2421,-3.2327,0.0,0.0,0.0,0.0,0.0,0.0,-3.1564,-3.1802,-3.2192,-3.2809,-3.4001,-3.4997,-3.5616,-3.6079,-3.6543,-3.6978,-3.6978,-3.7056,-3.707,-3.7226,-3.738,-3.7457,-3.7777,-3.7929,-3.7947,-3.7327,-3.6779,-3.6259,-3.5677,-3.5598,-3.5957,-3.6313,-3.7235,-3.8372,0.0,0.0,0.0,0.0,0.0,0.0,0.0,0.0,0.0,0.0,0.0,0.0,0.0,0.0,0.0,0.0,0.0,0.0,0.0,0.0,0.0,0.0,0.0,0.0,0.0,0.0,0.0,0.0,0.0,0.0,0.0,0.0,0.0,0.0,0.0,0.0,0.0,0.0,0.0,0.0,0.0,0.0,0.0,0.0,0.0,0.0,0.0,0.0,0.0,0.0,0.0,0.0,0.0,0.0,0.0,0.0,0.0,0.0,0.0,0.0,0.0,0.0,0.0,0.0,0.0,0.0,0.0,0.0,0.0,0.0,0.0,0.0,0.0,0.0,0.0,0.0,0.0,0.0,0.0,-3.2933,-3.423,0.0,0.0,0.0,0.0,-3.2356,-3.1379,-3.1569,-3.3115,-3.232,-3.2809,-3.4966,-3.5658,-3.6276,-3.688,-3.6922,-3.695,-3.6978,-3.6978,-3.707,-3.7303,-3.7303,-3.7534,-3.7853,-3.7853,-3.8005,-3.8159,-3.7549,-3.7288,-3.7128,-3.5851,-3.6192,-3.7218,-3.6798,-3.7902,-3.9745,0.0,0.0,0.0,0.0,0.0,0.0,0.0,0.0,0.0,0.0,0.0,0.0,0.0,0.0,0.0,0.0,0.0,0.0,0.0,0.0,0.0,0.0,0.0,0.0,0.0,0.0,0.0,0.0,0.0,0.0,0.0,0.0,0.0,0.0,0.0,0.0,0.0,0.0,0.0,0.0,0.0,0.0,0.0,0.0,0.0,0.0,0.0,0.0,0.0,0.0,0.0,0.0,0.0,0.0,0.0,0.0,0.0,0.0,0.0,0.0,0.0,0.0,0.0,0.0,0.0,0.0,0.0,0.0,0.0,0.0,0.0,0.0,0.0,0.0,0.0,0.0,0.0,0.0,0.0,-3.3657,-3.4855,0.0,-3.317,-3.3185,-3.3396,-3.3578,-3.2541,-3.2564,-3.4101,-3.3727,-3.406,-3.5517,-3.6297,-3.6768,-3.6978,-3.7148,-3.7226,-3.7226,-3.7303,-3.738,-3.7457,-3.7625,-3.7777,-3.7929,-3.8066,-3.8127,-3.8188,-3.8458,-3.8337,-3.7893,-3.6976,-3.6963,-3.7399,-3.7748,-3.8426,-3.9354,0.0,0.0,0.0,0.0,0.0,0.0,0.0,0.0,0.0,0.0,0.0,0.0,0.0,0.0,0.0,0.0,0.0,0.0,0.0,0.0,0.0,0.0,0.0,0.0,0.0,0.0,0.0,0.0,0.0,0.0,0.0,0.0,0.0,0.0,0.0,0.0,0.0,0.0,0.0,0.0,0.0,0.0,-3.34,0.0,0.0,0.0,0.0,0.0,0.0,0.0,0.0,0.0,0.0,0.0,0.0,0.0,0.0,0.0,0.0,0.0,0.0,0.0,0.0,0.0,0.0,0.0,0.0,0.0,0.0,0.0,0.0,0.0,0.0,0.0,0.0,0.0,0.0,0.0,-3.5823,-3.4727,-3.579,-3.5912,-3.4128,-3.4309,-3.4632,-3.4843,-3.4086,-3.4099,-3.5425,-3.5009,-3.5156,-3.6084,-3.673,-3.7056,-3.707,-3.7226,-3.7303,-3.738,-3.7534,-3.7625,-3.7701,-3.7853,-3.7929,-3.7991,-3.8412,-3.8546,-3.862,-3.9376,-3.9288,-3.8576,-3.7918,-3.7811,-3.8121,-3.8523,-3.907,-3.9709,0.0,0.0,0.0,0.0,0.0,0.0,0.0,0.0,0.0,0.0,0.0,0.0,0.0,0.0,0.0,0.0,0.0,0.0,0.0,0.0,0.0,0.0,0.0,0.0,0.0,0.0,0.0,0.0,0.0,0.0,0.0,0.0,0.0,0.0,0.0,0.0,0.0,0.0,0.0,0.0,0.0,0.0,-3.3863,0.0,0.0,0.0,0.0,0.0,0.0,0.0,0.0,0.0,0.0,0.0,0.0,0.0,0.0,0.0,0.0,0.0,0.0,0.0,0.0,0.0,0.0,0.0,0.0,0.0,0.0,0.0,0.0,0.0,0.0,0.0,0.0,0.0,-3.549,-3.6625,-3.7128,-3.6119,-3.7128,-3.7232,-3.5441,-3.6276,-3.674,-3.6136,-3.5833,-3.6084,-3.6978,-3.6163,-3.6084,-3.6978,-3.6978,-3.707,-3.7303,-3.7303,-3.738,-3.7625,-3.7625,-3.7701,-3.7929,-3.7929,-3.8005,-3.8277,-3.8942,-3.929,-3.9346,-4.0093,-3.9971,-3.9267,-3.8645,-3.8823,-3.9359,-3.8982,-3.9725,-4.0845,0.0,0.0,0.0,0.0,0.0,0.0,0.0,0.0,0.0,0.0,0.0,0.0,0.0,0.0,0.0,0.0,0.0,0.0,0.0,0.0,0.0,0.0,0.0,0.0,0.0,0.0,0.0,0.0,0.0,0.0,0.0,0.0,0.0,0.0,0.0,0.0,0.0,0.0,0.0,0.0,0.0,0.0,-3.5175,0.0,0.0,0.0,0.0,0.0,0.0,0.0,0.0,0.0,0.0,0.0,0.0,0.0,0.0,0.0,0.0,0.0,0.0,0.0,0.0,0.0,0.0,0.0,0.0,0.0,0.0,0.0,0.0,0.0,0.0,0.0,0.0,-3.6577,-3.6738,-3.7155,-3.7328,-3.7162,-3.7565,-3.7434,-3.6499,-3.6745,-3.6908,-3.6754,-3.6067,-3.6084,-3.6978,-3.6163,-3.6084,-3.6978,-3.7148,-3.7148,-3.707,-3.7534,-3.7701,-3.7625,-3.7915,-3.8052,-3.8142,-3.8142,-3.8127,-3.8173,-3.8498,-3.856,-3.8657,-3.9369,-3.9219,-3.8667,-3.8984,-3.9023,-3.8811,-3.8732,-3.8753,-3.8804,0.0,0.0,0.0,0.0,0.0,0.0,0.0,0.0,0.0,0.0,0.0,0.0,0.0,0.0,0.0,0.0,0.0,0.0,0.0,0.0,0.0,0.0,0.0,0.0,0.0,0.0,0.0,0.0,0.0,0.0,0.0,0.0,0.0,0.0,0.0,0.0,0.0,0.0,0.0,0.0,0.0,0.0,-3.544,-3.7227,-3.7774,-3.7696,-3.8948,-3.8953,-3.843,-3.8815,0.0,0.0,0.0,0.0,0.0,0.0,0.0,0.0,0.0,0.0,0.0,0.0,0.0,0.0,0.0,0.0,0.0,0.0,0.0,0.0,0.0,0.0,0.0,0.0,-3.7449,-3.7645,-3.7976,-3.7902,-3.7869,-3.7994,-3.7654,-3.7214,-3.6921,-3.6755,-3.6712,-3.6964,-3.6573,-3.6494,-3.6978,-3.6494,-3.6494,-3.6978,-3.7148,-3.7226,-3.7226,-3.7625,-3.7777,-3.7839,-3.8052,-3.8202,-3.8202,-3.8546,-3.8473,0.0,-3.8946,-3.9023,-3.8836,-3.955,-3.9428,0.0,0.0,0.0,0.0,0.0,-3.8241,-3.8025,0.0,0.0,0.0,0.0,0.0,0.0,0.0,0.0,0.0,0.0,0.0,0.0,0.0,0.0,0.0,0.0,0.0,0.0,0.0,0.0,0.0,0.0,0.0,0.0,0.0,0.0,0.0,0.0,0.0,0.0,0.0,0.0,0.0,0.0,0.0,0.0,0.0,0.0,0.0,0.0,0.0,0.0,-3.5329,-3.7252,-3.8055,-3.8376,-3.9972,-4.0043,-3.9515,-4.0275,0.0,0.0,0.0,0.0,0.0,0.0,0.0,0.0,0.0,0.0,0.0,0.0,0.0,0.0,0.0,0.0,0.0,0.0,0.0,0.0,0.0,0.0,0.0,0.0,-3.84,-3.8688,-3.9069,-3.8705,-3.8416,-3.8479,-3.7436,-3.6784,-3.6881,-3.6493,-3.6519,-3.6916,-3.7092,-3.7056,-3.6978,0.0,0.0,0.0,0.0,-3.7226,-3.7534,-3.7687,-3.7901,-3.8263,-3.8412,-3.8486,-3.8472,-3.9028,-3.8972,-3.8502,-3.9691,-3.985,-3.9313,-3.9955,-3.9897,-3.9421,-3.9421,-3.9072,-3.859,-3.8159,-3.8058,-3.7897,0.0,0.0,0.0,0.0,0.0,0.0,0.0,0.0,0.0,0.0,0.0,0.0,0.0,0.0,0.0,0.0,0.0,0.0,0.0,0.0,0.0,0.0,0.0,0.0,0.0,0.0,0.0,0.0,0.0,0.0,0.0,0.0,0.0,0.0,0.0,0.0,0.0,0.0,0.0,0.0,0.0,0.0,-3.6644,-3.84,-3.9112,-3.9282,-4.0422,-4.0712,-4.0595,-4.077,-4.0722,-4.0568,-4.0583,0.0,0.0,0.0,0.0,0.0,0.0,0.0,0.0,0.0,0.0,0.0,0.0,0.0,0.0,0.0,0.0,0.0,0.0,0.0,0.0,-3.9175,-3.9126,-3.9257,-3.9935,-3.8942,-3.8009,-3.766,-3.7021,-3.6626,-3.6626,-3.7119,-3.7288,-3.6974,-3.7447,-3.7505,-3.7056,-3.6978,-3.6978,-3.6978,-3.7148,-3.7303,-3.738,-3.8308,-3.8796,-3.887,0.0,0.0,-3.9984,-3.9535,-3.9298,-3.9183,-3.8857,-3.8651,-3.8555,-3.8717,-3.8772,-3.8772,-3.8867,-3.8881,-3.8723,-3.8302,-3.7779,-3.7201,0.0,0.0,0.0,0.0,0.0,0.0,0.0,0.0,0.0,0.0,0.0,0.0,0.0,0.0,0.0,0.0,0.0,0.0,0.0,0.0,0.0,0.0,0.0,0.0,0.0,0.0,0.0,0.0,0.0,0.0,0.0,0.0,0.0,0.0,0.0,0.0,0.0,0.0,0.0,0.0,0.0,0.0,-3.645,-3.7712,-3.8492,-3.9024,-3.9966,-4.0577,-4.0952,-4.0952,-4.0948,-4.0937,-4.0836,-4.0792,-4.0785,0.0,0.0,0.0,0.0,0.0,0.0,0.0,0.0,0.0,0.0,0.0,0.0,0.0,0.0,-3.7935,0.0,0.0,-3.8651,-3.9554,-3.9696,-3.971,-3.971,-3.9027,-3.8383,-3.7812,-3.677,-3.624,-3.6571,-3.701,-3.7298,-3.7361,-3.7682,-3.7839,-3.7872,-3.7584,-3.7616,-3.8144,-3.8234,-3.8442,-3.8708,-3.9275,-3.9632,-3.9703,-4.0209,-4.0247,-3.9924,-3.9936,-3.9539,-3.8838,-3.8912,-3.8674,-3.8366,-3.8407,-3.8448,-3.8616,-3.875,-3.8646,-3.8323,-3.781,-3.7185,-3.6439,0.0,0.0,0.0,0.0,0.0,0.0,0.0,0.0,0.0,0.0,0.0,0.0,0.0,0.0,0.0,0.0,0.0,0.0,0.0,0.0,0.0,0.0,0.0,0.0,0.0,0.0,0.0,0.0,0.0,0.0,0.0,0.0,0.0,0.0,0.0,0.0,0.0,0.0,0.0,0.0,0.0,0.0,-3.5755,-3.6404,-3.7276,-3.8251,-3.9133,-3.9895,-4.0498,-4.0519,-4.0617,-4.0755,-4.0741,-4.0859,-4.0995,-4.1,-4.0994,0.0,0.0,0.0,0.0,0.0,0.0,0.0,0.0,-3.9877,-3.9732,-4.0034,-3.91,-3.8561,-3.9672,-3.9487,-3.9406,-3.9933,-4.0203,-4.0082,-3.9299,-3.9158,-3.887,-3.8244,-3.6872,-3.6204,-3.6736,-3.6858,-3.7189,-3.7715,-3.776,-3.7984,-3.8561,-3.7986,-3.8056,-3.8967,-3.9053,-3.9369,-3.9969,-4.004,-4.0201,-4.0436,-4.0432,-4.022,-3.9847,-4.0181,-3.9707,-3.8769,-3.9114,-3.8942,-3.8391,-3.8464,-3.856,-3.8821,-3.8952,-3.8722,-3.8234,-3.7418,-3.6771,-3.6222,0.0,0.0,0.0,0.0,0.0,0.0,0.0,0.0,0.0,0.0,0.0,0.0,0.0,0.0,0.0,0.0,0.0,0.0,0.0,0.0,0.0,0.0,0.0,0.0,0.0,0.0,0.0,0.0,0.0,0.0,0.0,0.0,0.0,0.0,0.0,0.0,0.0,0.0,0.0,0.0,0.0,0.0,-3.5276,-3.5374,-3.6163,-3.7367,-3.8232,-3.8606,-3.8707,-3.8751,-3.9244,-3.9854,-3.9856,-4.0388,-4.0996,-4.1009,0.0,-4.0976,-4.0889,-4.0868,-4.0855,-4.0742,-4.1088,-4.1607,0.0,-4.2033,-4.1466,-4.0686,-3.9889,-3.9574,-4.0346,-3.9783,-3.9666,-4.1077,-4.0926,-4.0391,-3.9667,-3.9463,-3.9099,-3.8347,-3.7625,-3.7254,-3.7272,-3.7374,-3.7471,-3.7586,-3.7631,-3.7724,-3.7898,-3.7208,-3.7149,-3.7969,-3.8255,-3.8777,-3.9647,-4.0019,-4.0285,-4.0511,-4.051,-4.0756,-4.1316,-4.0151,-3.9828,-4.0167,-3.8998,-3.8472,-3.8408,-3.852,-3.8914,-3.9506,-3.9645,-3.9628,-3.9328,-3.7686,-3.7336,-3.7405,0.0,0.0,0.0,0.0,0.0,0.0,0.0,0.0,0.0,0.0,0.0,0.0,0.0,0.0,0.0,0.0,0.0,0.0,0.0,0.0,0.0,0.0,0.0,0.0,0.0,0.0,0.0,0.0,0.0,0.0,0.0,0.0,0.0,0.0,0.0,0.0,0.0,0.0,0.0,0.0,0.0,0.0,-3.5078,-3.5078,-3.5398,-3.601,-3.6947,-3.7667,0.0,0.0,-3.8402,-3.8682,-3.8883,-3.917,-3.9451,-3.9527,-3.9902,0.0,-4.0833,-4.0602,-4.0422,-4.1326,-4.169,-4.1999,-4.2641,-4.2198,-4.1594,-4.1431,-4.0337,-3.9626,-4.0498,-4.0257,-4.0199,0.0,-4.113,-4.0776,-4.0058,-3.958,-3.8991,-3.8216,-3.8319,-3.8197,-3.7476,-3.7806,-3.7902,-3.7552,-3.7567,-3.774,-3.819,-3.7518,-3.7591,-3.8461,-3.8795,-3.9249,-3.9857,-4.0642,-4.1038,-4.1116,-4.1555,-4.1452,-4.0917,-4.0335,-3.9784,-3.9233,-3.8916,-3.8766,-3.8766,-3.9206,-3.961,-3.9986,-4.0186,-4.0292,-4.0186,-3.9054,-3.8172,-3.7456,0.0,0.0,0.0,0.0,0.0,0.0,0.0,0.0,0.0,0.0,0.0,0.0,0.0,0.0,0.0,0.0,0.0,0.0,0.0,0.0,0.0,0.0,0.0,0.0,0.0,0.0,0.0,0.0,0.0,0.0,0.0,0.0,0.0,0.0,0.0,0.0,0.0,0.0,0.0,0.0,0.0,0.0,-3.4832,-3.4832,-3.487,-3.5035,-3.5832,-3.6584,0.0,0.0,-3.7371,-3.7577,-3.7839,-3.8073,-3.8299,-3.8385,-3.9048,-3.9877,-4.0474,-4.0333,-4.0379,-4.1801,-4.2099,-4.2217,-4.2783,-4.2333,-4.18,-4.1813,-4.0867,-4.0234,-4.0859,-4.0896,-4.0999,-4.1453,-4.1297,-4.0858,-4.0087,-3.9416,-3.8884,-3.8491,-3.9042,-3.9193,-3.8573,-3.8599,-3.8505,-3.8029,-3.767,-3.7762,-3.8443,-3.7712,-3.765,-3.8587,-3.9078,-3.9483,-3.9875,-4.0877,-4.1395,-4.1274,-4.1598,-4.1367,-4.0642,-4.0564,-3.9911,-3.875,-3.9061,-3.9169,-3.9222,-3.98,-4.0186,-4.0431,-4.072,-4.0834,-4.0837,-4.0262,-3.9173,-3.7845,0.0,0.0,0.0,0.0,0.0,0.0,0.0,0.0,0.0,0.0,0.0,0.0,0.0,0.0,0.0,0.0,0.0,0.0,0.0,0.0,0.0,0.0,0.0,0.0,0.0,0.0,0.0,0.0,0.0,0.0,0.0,0.0,0.0,0.0,0.0,0.0,0.0,0.0,0.0,0.0,0.0,0.0,-3.4409,-3.4409,-3.4545,-3.4754,-3.5032,0.0,0.0,0.0,-3.5888,-3.6636,-3.665,-3.7365,0.0,-3.8218,-3.8877,-3.9624,-3.9713,-4.0288,-4.1092,-4.2046,-4.2234,-4.2373,-4.304,-4.2969,-4.2482,-4.1513,-4.1696,-4.1926,-4.1623,-4.1828,-4.2223,-4.2776,-4.1636,-4.0465,-3.9633,-3.8938,-3.8763,-3.9451,-3.9876,-4.0422,0.0,-4.0099,-3.9363,-3.9231,-3.8093,-3.7689,-3.8383,-3.7173,-3.683,-3.7507,-3.846,-3.9081,-3.9487,-4.0464,-4.0792,-4.0529,-3.9881,-4.0114,-4.1074,-4.0812,-4.0277,-3.9542,-3.961,-3.9594,-3.9594,-4.0036,-4.048,-4.1036,-4.1338,-4.1294,-4.1087,-4.1069,-4.0235,-3.8929,0.0,0.0,0.0,0.0,0.0,0.0,0.0,0.0,0.0,0.0,0.0,0.0,0.0,0.0,0.0,0.0,0.0,0.0,0.0,0.0,0.0,0.0,0.0,0.0,0.0,0.0,0.0,0.0,0.0,0.0,0.0,0.0,0.0,0.0,0.0,0.0,0.0,0.0,0.0,0.0,0.0,0.0,-3.282,-3.2802,-3.2585,-3.2397,0.0,0.0,0.0,0.0,0.0,-3.5434,-3.5676,-3.5982,-3.6421,-3.7191,-3.7656,-3.8197,-3.9334,-3.9864,-4.0453,-4.1872,-4.2229,-4.2396,-4.3149,-4.2831,-4.2344,-4.2362,-4.1513,-4.0857,-4.1092,-4.138,-4.147,-4.1103,-4.192,-4.2144,-4.0806,-4.0581,-4.0438,-4.0158,-4.0814,0.0,0.0,0.0,0.0,-3.9453,-3.8963,-3.8621,-3.8322,-3.7908,-3.7775,-3.8014,-3.8553,-3.9194,-3.9877,-4.0885,-4.1359,-4.1342,-4.0166,-3.9454,-3.9295,-3.9272,-3.9125,-3.8907,-3.9733,-4.007,-4.0121,-4.0819,-4.0941,-4.0622,-4.1054,-4.0864,-4.0253,-3.9753,-3.9281,-3.8862,0.0,0.0,0.0,0.0,0.0,0.0,0.0,0.0,0.0,0.0,0.0,0.0,0.0,0.0,0.0,0.0,0.0,0.0,0.0,0.0,0.0,0.0,0.0,0.0,0.0,0.0,0.0,0.0,0.0,0.0,0.0,0.0,0.0,0.0,0.0,0.0,0.0,0.0,0.0,0.0,0.0,0.0,-3.1939,-3.1679,-3.151,0.0,0.0,0.0,0.0,0.0,0.0,-3.4097,-3.4376,-3.4778,-3.5285,-3.608,-3.6629,-3.7193,-3.833,-3.9121,-3.9906,-4.1023,-4.1542,-4.1893,-4.2383,-4.2303,-4.2138,-4.2151,-4.1628,-4.1142,-4.1085,-4.1625,-4.1772,-4.0839,-4.1837,-4.2356,-4.1306,-4.0828,-4.0647,-4.0983,-4.1443,-4.1717,0.0,0.0,0.0,-4.0166,-3.9591,-3.9119,-3.8662,-3.8407,-3.8278,-3.8278,-3.8717,-3.9166,-3.9704,-4.0779,-4.1247,-4.1017,-4.0201,-3.9412,-3.8656,-3.8552,-3.8667,-3.8986,-3.9484,-3.9682,-3.973,-4.0471,-4.0481,-4.0024,-4.0522,-4.0199,-3.9468,-3.8986,-3.8629,-3.838,0.0,0.0,0.0,0.0,0.0,0.0,0.0,0.0,0.0,0.0,0.0,0.0,0.0,0.0,0.0,0.0,0.0,0.0,0.0,0.0,0.0,0.0,0.0,0.0,0.0,0.0,0.0,0.0,0.0,0.0,0.0,0.0,0.0,0.0,0.0,0.0,0.0,0.0,0.0,0.0,0.0,0.0,-3.1714,-3.108,0.0,0.0,0.0,0.0,0.0,0.0,-3.2047,-3.2797,-3.3008,-3.3848,-3.4832,-3.5016,-3.5832,-3.6728,-3.6839,-3.817,-3.9528,-3.9657,-4.0357,-4.0974,-4.0916,-4.1546,-4.1889,-4.0999,-4.1974,-4.2656,0.0,0.0,-4.3052,-4.1919,-4.156,-4.1346,-4.1185,-3.9929,-3.9774,0.0,0.0,0.0,0.0,0.0,0.0,-4.1341,0.0,-3.9292,-3.9259,-3.8684,-3.839,-3.839,-3.8941,-3.9156,-3.9098,-4.0277,-4.0454,-3.9527,-3.9952,-3.9744,-3.8996,-3.8671,-3.8939,-3.9595,-3.8888,-3.8594,-3.8639,-3.9136,-3.9287,-3.9294,-3.9704,-3.9432,-3.8808,-3.8754,-3.8272,-3.7648,0.0,0.0,0.0,0.0,0.0,0.0,0.0,0.0,0.0,0.0,0.0,0.0,0.0,0.0,0.0,0.0,0.0,0.0,0.0,0.0,0.0,0.0,0.0,0.0,0.0,0.0,0.0,0.0,0.0,0.0,0.0,0.0,0.0,0.0,0.0,0.0,0.0,0.0,0.0,0.0,0.0,0.0,-3.0331,0.0,0.0,0.0,0.0,0.0,0.0,-3.1952,-3.2964,-3.3839,-3.3953,-3.4292,-3.4675,-3.4774,-3.5642,-3.6562,-3.6584,-3.7968,-3.9463,-3.9585,-4.0276,-4.0922,-4.0971,-4.119,-4.1281,-4.0935,-4.1198,-4.1291,-4.0739,-4.1723,0.0,-4.1237,-4.276,0.0,-4.2446,-4.276,0.0,-4.3051,-4.2947,-4.2942,-4.32,-4.2893,0.0,0.0,-4.1273,-4.0456,-3.9884,-3.9731,-3.9627,-3.9627,-3.9278,-3.9362,-3.9969,-4.0475,-4.0092,-3.887,-3.898,-3.8631,-3.7909,-3.7809,-3.8163,-3.887,-3.8663,-3.8684,-3.8842,-3.9178,-3.9054,-3.8669,-3.8961,-3.8986,-3.8736,-3.813,-3.8148,-3.8415,0.0,0.0,0.0,0.0,0.0,0.0,0.0,0.0,0.0,0.0,0.0,0.0,0.0,0.0,0.0,0.0,0.0,0.0,0.0,0.0,0.0,0.0,0.0,0.0,0.0,0.0,0.0,0.0,0.0,0.0,0.0,0.0,0.0,0.0,0.0,0.0,0.0,0.0,0.0,0.0,0.0,0.0,0.0,0.0,0.0,0.0,0.0,0.0,0.0,-3.2064,-3.2818,-3.3442,-3.3862,-3.4203,-3.4439,-3.4508,-3.5135,-3.5808,-3.5837,-3.6987,-3.8196,-3.831,-3.9054,-3.9757,-3.9811,-4.0184,-4.0505,-4.0437,-4.0671,-4.0835,-4.0623,-4.1639,-4.2214,0.0,0.0,0.0,-4.3042,-4.3095,-4.3152,-4.2907,-4.2505,-4.2145,-4.1805,-4.1516,-4.1445,0.0,-4.1423,-4.1154,-4.0724,-4.0223,-3.9907,-3.9907,-3.9033,-3.8798,-3.9399,-3.959,-3.9175,-3.8112,-3.8112,-3.7887,-3.7473,-3.7129,-3.7387,-3.8094,0.0,-3.7724,-3.7955,-3.8205,-3.8144,-3.7934,-3.818,-3.8272,-3.8219,-3.7755,-3.788,-3.8238,0.0,0.0,0.0,0.0,0.0,0.0,0.0,0.0,0.0,0.0,0.0,0.0,0.0,0.0,0.0,0.0,0.0,0.0,0.0,0.0,0.0,0.0,0.0,0.0,0.0,0.0,0.0,0.0,0.0,0.0,0.0,0.0,0.0,0.0,0.0,0.0,0.0,0.0,0.0,0.0,0.0,0.0,0.0,0.0,0.0,0.0,0.0,0.0,0.0,0.0,-3.2399,-3.262,-3.3386,-3.3868,-3.4179,-3.426,-3.4551,-3.4889,-3.4963,-3.5761,-3.6584,-3.668,-3.7494,-3.8277,-3.828,-3.8993,-3.9582,-3.9472,-4.0145,-4.0655,-4.0335,-4.1591,-4.243,-4.1628,-4.2484,-4.3363,-4.3555,-4.2614,-4.2013,-4.2415,-4.1709,-4.0878,-3.9996,-3.994,-4.0071,-4.0317,-4.0969,-4.1349,-4.1323,-4.0242,-3.9537,-3.9388,-3.8389,-3.7874,-3.7923,-3.8174,-3.7998,-3.7404,-3.7577,-3.7629,-3.7525,-3.6748,-3.6774,-3.7439,0.0,0.0,-3.6806,-3.6987,-3.7203,-3.7466,-3.7649,-3.7793,-3.7828,-3.7757,-3.7793,-3.7847,0.0,0.0,0.0,0.0,0.0,0.0,0.0,0.0,0.0,0.0,0.0,0.0,0.0,0.0,0.0,0.0,0.0,0.0,0.0,0.0,0.0,0.0,0.0,0.0,0.0,0.0,0.0,0.0,0.0,0.0,0.0,0.0,0.0,0.0,0.0,0.0,0.0,0.0,0.0,0.0,0.0,0.0,0.0,0.0,0.0,0.0,0.0,0.0,0.0,0.0,-3.3442,-3.3488,-3.3698,-3.3895,-3.4074,-3.4179,-3.4416,-3.4674,-3.4812,-3.5626,-3.6482,-3.6661,-3.7385,-3.809,-3.8258,-3.8514,-3.853,-3.7806,-3.8843,-3.9441,-3.7858,-4.0017,-4.1928,-4.1475,-4.2764,-4.4212,-4.5489,-4.4643,-4.3886,-4.3871,-4.3002,-4.1949,-4.0741,-4.0719,0.0,0.0,0.0,-4.0635,-4.0516,-3.9686,-3.8773,-3.7818,-3.7593,-3.7144,-3.6368,-3.7353,-3.7537,-3.7009,-3.798,-3.8258,-3.7971,-3.7149,-3.7032,-3.7439,-3.6646,0.0,-3.7281,-3.7319,-3.7685,-3.8219,-3.8252,-3.8634,-3.9091,-3.8489,-3.867,-3.9091,0.0,0.0,0.0,0.0,0.0,0.0,0.0,0.0,0.0,0.0,0.0,0.0,0.0,0.0,0.0,0.0,0.0,0.0,0.0,0.0,0.0,0.0,0.0,0.0,0.0,0.0,0.0,-2.6084,0.0,0.0,0.0,0.0,0.0,0.0,0.0,0.0,0.0,0.0,0.0,0.0,0.0,0.0,0.0,0.0,0.0,0.0,0.0,0.0,0.0,0.0,-3.286,-3.3361,-3.3766,-3.3972,-3.4074,-3.4221,-3.4367,-3.4524,-3.4628,-3.5115,-3.5662,-3.5774,-3.6262,-3.674,-3.69,-3.7039,-3.7167,-3.7201,-3.7831,-3.8244,-3.7759,-3.9254,-4.0482,-4.0283,-4.1571,-4.2971,-4.4004,-4.3284,-4.2675,-4.2827,-4.1649,-4.0503,-3.9731,-3.9772,-3.9905,-4.0031,0.0,-3.9749,-4.036,-3.943,-3.8355,-3.7154,-3.7137,-3.6963,-3.6591,-3.7131,-3.733,-3.7188,-3.7769,-3.7947,-3.7757,-3.7385,-3.7306,-3.7501,-3.7097,0.0,-3.7667,-3.7667,-3.7929,-3.8382,-3.8382,-3.862,-3.8893,-3.8528,-3.862,-3.8893,0.0,0.0,0.0,0.0,0.0,0.0,0.0,0.0,0.0,0.0,0.0,0.0,0.0,0.0,0.0,0.0,0.0,0.0,0.0,0.0,0.0,0.0,0.0,0.0,0.0,0.0,0.0,-2.7203,-2.6892,0.0,0.0,0.0,0.0,0.0,-2.577,0.0,0.0,0.0,0.0,0.0,0.0,0.0,0.0,0.0,0.0,0.0,0.0,0.0,0.0,0.0,-3.2027,-3.2818,-3.3449,-3.3629,-3.369,-3.3995,-3.4124,-3.4229,-3.4502,-3.473,-3.4926,-3.5034,-3.5243,-3.5483,-3.5659,-3.5791,-3.6075,-3.6791,-3.7069,-3.7301,-3.7761,-3.852,-3.9039,-3.8931,-4.002,-4.1222,-4.2185,-4.1534,-4.1123,-4.1605,-4.0337,-3.9185,-3.8474,-3.8637,0.0,-3.8834,0.0,0.0,-3.993,-3.8942,-3.7879,-3.6826,-3.6594,-3.6612,-3.6844,-3.6998,-3.7235,-3.7541,-3.7703,-3.7721,-3.7614,-3.7614,-3.7578,-3.7505,-3.7505,0.0,0.0,-3.7781,-3.7944,-3.8266,-3.8083,-3.8028,-3.8047,-3.8211,-3.8175,-3.8114,0.0,0.0,0.0,0.0,0.0,0.0,0.0,0.0,0.0,0.0,0.0,0.0,0.0,0.0,0.0,0.0,0.0,0.0,0.0,0.0,0.0,0.0,0.0,0.0,0.0,0.0,0.0,-2.8883,-2.8377,0.0,0.0,0.0,0.0,0.0,0.0,-2.6266,-2.6353,0.0,0.0,0.0,0.0,0.0,0.0,0.0,0.0,0.0,0.0,-3.2217,-3.1795,-3.1846,-3.1955,-3.2133,-3.2391,-3.2287,-3.2281,-3.3138,-3.3433,-3.3669,-3.454,-3.4811,-3.4945,-3.5117,-3.5197,-3.5316,-3.5621,-3.5768,-3.5866,-3.6065,-3.664,-3.6889,-3.6158,-3.7269,-3.8234,0.0,0.0,-3.989,-4.2071,-4.148,-4.1053,-4.1707,-4.1113,-3.9885,-3.7978,-3.8383,-3.8099,-3.645,0.0,0.0,-3.8319,-3.7597,-3.6924,-3.6346,-3.5651,-3.5492,-3.5995,-3.6453,-3.7108,-3.7949,-3.8368,-3.8401,-3.8034,-3.8034,-3.7844,-3.7505,-3.7505,0.0,0.0,-3.7462,-3.7496,-3.7877,-3.7135,-3.6856,-3.6949,-3.7673,-3.7487,-3.706,0.0,0.0,0.0,0.0,0.0,0.0,0.0,0.0,0.0,0.0,0.0,0.0,0.0,0.0,0.0,0.0,0.0,0.0,0.0,0.0,0.0,0.0,0.0,0.0,0.0,0.0,0.0,-2.9649,-2.9402,0.0,0.0,0.0,0.0,0.0,0.0,-2.7723,-2.7798,0.0,0.0,0.0,0.0,0.0,0.0,0.0,0.0,0.0,0.0,0.0,-3.1817,-3.0903,-3.096,-3.1393,-3.1023,-3.0835,-3.1108,-3.2977,-3.3524,-3.3714,-3.4623,-3.487,-3.4945,-3.5107,-3.4805,-3.4534,-3.4751,-3.4911,-3.5029,-3.5143,-3.5818,-3.6114,-3.5235,-3.5542,-3.5859,0.0,0.0,0.0,-3.9077,-3.8943,-3.9038,-4.0039,-3.9077,-3.8212,0.0,0.0,-3.7256,-3.6305,0.0,0.0,-3.6725,-3.6453,-3.619,-3.599,-3.5684,-3.5867,-3.6556,-3.6826,-3.7388,-3.8252,-3.8052,-3.7894,-3.7734,-3.7259,-3.6929,-3.6785,-3.6785,0.0,0.0,-3.6864,-3.6906,-3.7151,-3.6816,-3.6686,-3.6723,-3.7058,-3.7281,-3.7503,0.0,0.0,0.0,0.0,0.0,0.0,0.0,0.0,0.0,0.0,0.0,0.0,0.0,0.0,0.0,0.0,0.0,0.0,0.0,0.0,0.0,0.0,0.0,0.0,0.0,0.0,0.0,0.0,-3.0122,-2.9946,0.0,0.0,-2.9266,-2.9133,0.0,0.0,0.0,0.0,0.0,0.0,0.0,0.0,0.0,0.0,0.0,0.0,0.0,0.0,0.0,0.0,0.0,-3.078,-3.0294,0.0,0.0,0.0,-3.2972,-3.3143,-3.4014,-3.4242,-3.4279,-3.4385,-3.4022,-3.3676,-3.3824,-3.3964,-3.4127,-3.4213,-3.4716,-3.5029,-3.4647,-3.4262,-3.4083,0.0,0.0,-3.5269,-3.6405,-3.6632,-3.7192,-3.8571,0.0,-3.6909,-3.7485,-3.6601,-3.5899,0.0,0.0,0.0,-3.52,-3.5126,-3.5204,-3.5457,-3.5222,-3.5476,-3.6272,-3.6412,-3.6887,-3.7671,-3.7326,-3.7129,-3.711,-3.656,-3.6303,-3.6303,0.0,0.0,0.0,-3.6251,-3.6221,-3.6315,-3.6055,-3.5962,-3.598,-3.624,-3.6538,-3.6909,0.0,0.0,0.0,0.0,0.0,0.0,0.0,0.0,0.0,0.0,0.0,0.0,0.0,0.0,0.0,0.0,0.0,0.0,0.0,0.0,0.0,0.0,0.0,0.0,0.0,0.0,0.0,0.0,0.0,0.0,-3.038,-3.0178,-2.9956,-2.9684,0.0,0.0,0.0,0.0,0.0,0.0,0.0,0.0,0.0,0.0,0.0,0.0,0.0,0.0,0.0,0.0,0.0,0.0,0.0,0.0,0.0,0.0,-3.1363,-3.1603,-3.2481,-3.2711,-3.2745,-3.2809,-3.2824,-3.2842,-3.2979,-3.3072,-3.3169,-3.3372,-3.3365,-3.3574,-3.4369,-3.3746,-3.3379,-3.4176,-3.3918,0.0,-3.4718,-3.5248,-3.6092,-3.7708,-3.7188,-3.6686,-3.6705,-3.4969,-3.3879,0.0,0.0,0.0,-3.3798,-3.3585,-3.3791,-3.4588,-3.3846,-3.381,-3.4624,-3.4768,-3.521,-3.6012,-3.6227,-3.6303,-3.6303,-3.6303,-3.6303,0.0,0.0,0.0,0.0,-3.566,-3.5388,-3.5423,-3.455,-3.4234,-3.4327,-3.5182,-3.4959,-3.4587,0.0,0.0,0.0,0.0,0.0,0.0,0.0,0.0,0.0,0.0,0.0,0.0,0.0,0.0,0.0,0.0,0.0,0.0,0.0,0.0,0.0,0.0,0.0,0.0,0.0,0.0,0.0,0.0,0.0,0.0,0.0,0.0,0.0,-3.0318,-3.0145,-3.009,0.0,0.0,0.0,0.0,0.0,0.0,0.0,0.0,0.0,0.0,0.0,0.0,0.0,0.0,0.0,0.0,0.0,0.0,0.0,0.0,0.0,-3.1796,-3.2622,-3.2845,-3.2831,-3.2864,-3.2436,-3.2071,-3.2165,-3.226,-3.2374,-3.2443,-3.2937,-3.3414,-3.3587,-3.2839,-3.2436,-3.3102,-3.2579,0.0,0.0,-3.4411,-3.5226,-3.6154,-3.5877,-3.5383,0.0,0.0,-3.3549,0.0,0.0,0.0,-3.352,-3.3633,-3.3715,-3.3773,-3.3538,-3.3791,-3.4606,-3.4732,-3.5192,-3.5994,-3.5593,-3.5422,-3.5404,-3.4835,0.0,0.0,0.0,0.0,0.0,-3.4515,-3.4481,-3.4569,-3.4309,-3.4197,-3.4309,-3.5163,-3.533,-3.5274,0.0,0.0,0.0,0.0,0.0,0.0,0.0,0.0,0.0,0.0,0.0,0.0,0.0,0.0,0.0,0.0,0.0,0.0,0.0,0.0,0.0,0.0,0.0,0.0,0.0,0.0,0.0,0.0,0.0,0.0,0.0,0.0,0.0,0.0,0.0,0.0,0.0,0.0,0.0,0.0,0.0,0.0,-3.2034,0.0,0.0,0.0,0.0,0.0,0.0,0.0,0.0,0.0,0.0,0.0,0.0,0.0,-3.0964,-3.1379,-3.1894,-3.2006,-3.1981,-3.1992,-3.1634,-3.1306,-3.1352,-3.1435,-3.1592,-3.1933,-3.2226,-3.2571,-3.3075,-3.2104,-3.145,-3.2144,-3.1653,-3.1574,-3.269,0.0,-3.4232,-3.4828,-3.5006,0.0,0.0,-3.3413,0.0,0.0,0.0,0.0,-3.2958,-3.3093,-3.2976,-3.2506,-3.3085,-3.3647,-3.4154,-3.4295,-3.459,-3.5082,-3.4714,-3.4559,-3.4541,-3.4027,0.0,0.0,0.0,0.0,0.0,-3.3998,-3.4074,-3.4197,-3.4197,-3.4197,-3.4271,-3.481,-3.4996,-3.5126,0.0,0.0,0.0,0.0,0.0,0.0,0.0,0.0,0.0,0.0,0.0,0.0,0.0,0.0,0.0,0.0,0.0,0.0,0.0,0.0,0.0,0.0,0.0,0.0,0.0,0.0,0.0,0.0,-3.0571,-3.0577,-3.0598,0.0,0.0,0.0,0.0,0.0,0.0,0.0,0.0,0.0,0.0,0.0,0.0,0.0,0.0,0.0,0.0,0.0,0.0,0.0,0.0,0.0,0.0,0.0,0.0,0.0,0.0,0.0,0.0,-3.0508,-3.0496,-3.0433,-3.0516,-3.059,-3.0521,-3.0621,0.0,-3.1836,-3.1351,-3.1255,-3.2806,-3.1552,-3.0562,-3.1412,-3.112,-3.1128,-3.2045,-3.2676,0.0,0.0,-3.4531,0.0,-3.2538,0.0,0.0,0.0,0.0,0.0,-3.2162,-3.2107,-3.1763,-3.1021,-3.2451,-3.323,-3.323,-3.3356,-3.3441,-3.3423,-3.3616,-3.3715,-3.3715,-3.3715,0.0,0.0,0.0,0.0,0.0,-3.3906,-3.3981,-3.4123,-3.4179,-3.4197,-3.4197,-3.4271,-3.4253,-3.4309,0.0,0.0,0.0,0.0,0.0,0.0,0.0,0.0,0.0,0.0,0.0,0.0,0.0,0.0,0.0,0.0,0.0,0.0,0.0,0.0,0.0,0.0,0.0,0.0,0.0,0.0,0.0,-3.0221,-3.0266,-3.0374,-3.0507,-3.0577,0.0,0.0,0.0,0.0,0.0,0.0,0.0,0.0,0.0,0.0,0.0,0.0,0.0,0.0,-3.0435,-3.0385,0.0,0.0,0.0,0.0,0.0,0.0,0.0,0.0,-2.9373,-2.9402,-2.9562,0.0,-3.0487,-2.9824,-3.0169,-3.052,0.0,-3.0243,-3.0956,-3.1889,-3.1313,-3.1105,-3.2588,-3.1421,-3.0596,-3.1767,-3.1318,-3.1274,-3.2601,-3.3302,0.0,-3.3689,-3.3676,-3.3259,-3.227,0.0,0.0,0.0,0.0,-3.2029,-3.131,-3.1274,-3.1184,-3.1003,-3.1365,-3.1564,-3.1564,-3.1701,-3.1764,-3.1782,-3.2517,-3.2889,-3.2889,-3.2889,0.0,0.0,0.0,0.0,-3.3093,-3.3142,-3.3215,-3.3324,-3.3956,-3.4197,-3.4271,-3.494,-3.4773,-3.4309,0.0,0.0,0.0,0.0,0.0,0.0,0.0,0.0,0.0,0.0,0.0,0.0,0.0,0.0,0.0,0.0,0.0,0.0,0.0,0.0,0.0,0.0,0.0,0.0,0.0,0.0,0.0,0.0,0.0,-3.0056,0.0,0.0,0.0,0.0,0.0,0.0,0.0,0.0,0.0,0.0,-3.0202,0.0,0.0,0.0,0.0,0.0,-2.9989,-2.9918,0.0,-2.9946,-2.9848,-2.9655,0.0,0.0,0.0,0.0,-2.8219,-2.8255,-2.8438,-2.9542,-3.0643,-3.0566,-3.0898,-3.1031,-3.0195,-3.0365,-3.0806,-3.1193,-3.1167,-3.1271,-3.1932,-3.1515,-3.1042,-3.0979,-3.1124,-3.1502,0.0,0.0,-3.2737,-3.2902,-3.2766,-3.2649,0.0,0.0,0.0,0.0,0.0,-3.1171,-3.0442,-3.0441,-3.0278,-2.9916,-2.9898,-3.0242,-3.0985,-3.1119,-3.125,-3.1341,-3.1825,-3.2145,-3.2326,-3.2225,-3.2471,0.0,0.0,0.0,-3.2527,-3.2571,-3.2617,-3.2777,-3.3602,-3.392,-3.3977,-3.4464,-3.4577,-3.4542,0.0,0.0,0.0,0.0,0.0,0.0,0.0,0.0,0.0,0.0,0.0,0.0,0.0,0.0,0.0,0.0,0.0,0.0,0.0,0.0,0.0,0.0,0.0,0.0,0.0,0.0,0.0,0.0,0.0,0.0,0.0,0.0,0.0,0.0,0.0,0.0,0.0,0.0,0.0,0.0,-2.9696,0.0,0.0,0.0,0.0,0.0,0.0,0.0,0.0,-2.9531,-2.9495,-2.9269,-2.8575,0.0,0.0,0.0,0.0,0.0,-2.7338,-2.8877,-3.0564,-3.1242,-3.1617,-3.1569,-3.071,-3.0542,-3.0571,-3.0458,-3.0935,-3.1306,-3.1181,-3.1467,-3.1279,-2.9926,0.0,0.0,-3.1783,-3.1613,-3.1647,-3.1993,-3.2036,0.0,0.0,0.0,0.0,0.0,0.0,-3.0369,-2.9557,-2.9582,-2.93,-2.8605,-2.8587,-2.9264,-3.0622,-3.0808,-3.0974,-3.1182,-3.1254,-3.1496,-3.18,-3.1651,-3.1707,0.0,0.0,0.0,-3.1996,-3.2015,-3.2071,-3.22,-3.3071,-3.3393,-3.3393,-3.3393,-3.3942,-3.4624,0.0,0.0,0.0,0.0,0.0,0.0,0.0,0.0,0.0,0.0,0.0,0.0,0.0,0.0,0.0,0.0,0.0,0.0,0.0,0.0,0.0,0.0,0.0,0.0,0.0,0.0,0.0,0.0,0.0,0.0,-2.9713,-2.9713,-2.9713,0.0,0.0,0.0,0.0,-2.9696,-2.9696,-2.9696,-2.9644,0.0,0.0,0.0,0.0,0.0,0.0,0.0,0.0,-2.9089,-2.8975,-2.8699,-2.7899,0.0,0.0,0.0,0.0,0.0,-2.6846,-2.832,-2.9439,-2.9229,-3.0301,-3.1168,-3.0293,-3.0094,-3.0312,-3.0994,-3.0617,-3.0314,-3.0843,-3.0415,-3.0037,0.0,0.0,-3.2465,0.0,0.0,-3.2613,-3.1852,0.0,0.0,0.0,0.0,0.0,0.0,0.0,-2.9458,-2.8727,-2.8742,-2.8739,-2.8587,-2.8587,-2.8739,-2.8974,-2.9263,-2.9521,-2.9731,-3.0521,-3.0918,-3.0977,-3.0938,-3.1332,0.0,0.0,-3.0451,-3.111,-3.1219,-3.1273,-3.1366,-3.2181,-3.2503,-3.2503,-3.2503,-3.3052,-3.3903,0.0,0.0,0.0,0.0,0.0,0.0,0.0,0.0,0.0,0.0,0.0,0.0,0.0,0.0,0.0,0.0,0.0,0.0,0.0,0.0,0.0,0.0,0.0,0.0,0.0,0.0,0.0,0.0,0.0,-2.9839,-2.9739,-2.95,-2.9295,-2.9111,0.0,0.0,0.0,-2.8838,-2.8815,-2.8769,0.0,0.0,0.0,0.0,0.0,0.0,0.0,0.0,0.0,0.0,-2.8121,-2.7895,-2.7174,0.0,0.0,0.0,0.0,0.0,-2.5055,-2.6481,-2.7755,-2.8,-3.0132,-3.1935,-3.1065,-3.0896,-3.0733,-3.013,-3.041,0.0,0.0,0.0,-3.1334,-3.1983,0.0,-3.1781,-3.2509,-3.1779,-3.1112,0.0,0.0,0.0,0.0,0.0,0.0,0.0,0.0,0.0,-2.7839,-2.7861,-2.7712,-2.7327,-2.7864,-2.8205,-2.8346,-2.9052,-2.9418,-2.9418,-2.9907,-3.0281,-3.0454,-3.0352,-3.0578,-3.1004,0.0,-3.019,-3.0582,-3.0628,-3.0691,-3.0796,-3.1656,-3.1981,-3.2038,-3.2458,-3.2879,-3.3353,0.0,0.0,0.0,0.0,0.0,0.0,0.0,0.0,0.0,0.0,0.0,0.0,0.0,0.0,0.0,0.0,0.0,0.0,0.0,0.0,0.0,0.0,0.0,0.0,0.0,0.0,0.0,-2.9554,-3.0077,-3.009,-2.9682,-2.9332,-2.9016,0.0,0.0,0.0,0.0,-2.8342,-2.8198,-2.8,0.0,0.0,0.0,0.0,0.0,0.0,0.0,0.0,0.0,0.0,0.0,0.0,0.0,0.0,0.0,-2.4046,-2.3308,-2.2848,-2.3426,-2.4844,-2.635,-2.7031,-2.9593,-3.1837,-3.1347,-3.126,-3.0936,-2.9655,0.0,0.0,0.0,-3.0252,0.0,-3.2332,-3.1211,-3.0516,-3.1369,-3.0279,-2.9644,0.0,0.0,0.0,0.0,0.0,0.0,0.0,0.0,0.0,-2.723,-2.7114,-2.6814,-2.6291,-2.7076,-2.7582,-2.779,-2.8895,-2.9474,-2.957,-2.9662,-2.9888,-3.0185,-3.0034,-3.0049,-3.0204,-3.0199,-3.024,-3.0292,-3.0305,-3.033,-3.0456,-3.1141,-3.141,-3.1525,-3.2526,-3.2891,-3.3057,0.0,0.0,0.0,0.0,0.0,0.0,0.0,0.0,0.0,0.0,0.0,0.0,0.0,0.0,0.0,0.0,0.0,0.0,0.0,0.0,0.0,0.0,0.0,0.0,0.0,-3.0267,-3.0285,-3.0327,-3.0368,-3.004,-2.9344,-2.9319,-2.9255,-2.9255,0.0,0.0,0.0,-2.9076,-2.8639,-2.8053,-2.8606,0.0,0.0,0.0,0.0,0.0,0.0,0.0,0.0,0.0,0.0,0.0,0.0,0.0,-2.413,-2.3477,-2.2798,-2.2358,-2.2828,-2.4327,-2.5843,-2.6286,-2.7761,-2.9296,-3.0036,-3.01,-3.0198,-3.0741,0.0,0.0,0.0,-2.8757,-2.8122,-2.8925,-2.8778,-2.8843,-2.9572,0.0,0.0,0.0,0.0,0.0,0.0,0.0,0.0,0.0,0.0,0.0,-2.7194,-2.6598,-2.635,-2.6478,-2.6554,-2.6696,-2.6876,-2.8032,-2.9082,-3.0038,-3.0064,-3.0109,-3.0204,-3.019,-3.0204,-3.0204,-3.0194,-3.0234,-3.0292,-3.0311,-3.0336,-3.0398,-3.0456,-3.0494,-3.0698,-3.2314,-3.2891,-3.3154,0.0,0.0,0.0,0.0,0.0,0.0,0.0,0.0,0.0,0.0,0.0,0.0,0.0,0.0,0.0,0.0,0.0,0.0,0.0,0.0,0.0,0.0,0.0,-3.0889,-3.1271,-3.0525,-3.0311,-3.059,-3.0735,-3.08,-3.0731,-3.0232,0.0,0.0,0.0,0.0,0.0,-2.8545,-2.81,-2.7419,-2.7952,-2.7942,0.0,0.0,0.0,0.0,0.0,0.0,0.0,0.0,-2.564,0.0,0.0,0.0,-2.325,-2.2991,-2.2114,-2.1436,-2.2435,-2.3554,-2.4537,-2.5217,-2.6461,-2.7976,0.0,-3.0119,-3.0031,-2.9841,-2.9966,0.0,0.0,0.0,-2.8224,-2.8749,-2.8972,-2.9177,-2.9453,0.0,0.0,0.0,0.0,0.0,0.0,0.0,0.0,0.0,0.0,0.0,0.0,-2.578,-2.5226,-2.4829,-2.5591,-2.6042,-2.6117,-2.729,-2.8101,-2.8565,-2.9632,-3.0171,-3.0204,-3.0204,-3.0204,-3.0204,-3.0199,-3.024,-3.0292,-3.0305,-3.0343,-3.0398,-3.0398,-3.0398,-3.0533,-3.1718,-3.2499,-3.314,0.0,0.0,0.0,0.0,0.0,0.0,0.0,0.0,0.0,0.0,0.0,0.0,0.0,0.0,0.0,0.0,0.0,0.0,0.0,0.0,0.0,0.0,0.0,-3.0788,-3.1372,-3.057,-3.0419,-3.0879,-3.0955,-3.1011,-3.0989,0.0,0.0,0.0,0.0,0.0,0.0,0.0,-2.7935,-2.7267,-2.7786,-2.7826,0.0,0.0,0.0,0.0,0.0,0.0,0.0,0.0,0.0,0.0,0.0,0.0,0.0,0.0,-2.1761,-2.1301,-2.1809,-2.2724,-2.3671,-2.3983,-2.5219,0.0,-2.8638,-2.9464,-2.9678,-2.8976,-2.8885,-2.8793,-2.8245,0.0,0.0,0.0,-2.8268,-2.8459,0.0,0.0,0.0,0.0,0.0,0.0,0.0,0.0,0.0,0.0,0.0,0.0,0.0,-2.4946,-2.4375,-2.3999,-2.4838,-2.535,-2.5487,-2.6571,-2.7139,-2.7214,-2.8706,-2.9402,-2.9402,-2.9402,-2.9402,-2.9421,-2.9688,-2.9825,-2.9909,-3.0196,-3.0349,-3.0398,-3.0398,-3.0398,-3.0513,-3.1391,-3.2076,-3.2736,0.0,0.0,0.0,0.0,0.0,0.0,0.0,0.0,0.0,0.0,0.0,0.0,0.0,0.0,0.0,0.0,0.0,0.0,0.0,0.0,0.0,0.0,0.0,-3.0263,-3.0502,-3.0477,-3.0764,-3.1295,-3.0965,-3.0436,-2.9694,0.0,0.0,0.0,0.0,0.0,0.0,0.0,-2.8387,-2.7778,-2.8433,-2.8236,-2.7646,0.0,0.0,0.0,0.0,0.0,0.0,0.0,0.0,0.0,0.0,0.0,0.0,0.0,-2.1864,-2.2188,-2.0867,-2.2006,-2.336,-2.2664,-2.406,-2.5794,-2.6422,-2.7874,-2.8914,-2.8291,-2.7592,-2.7001,-2.6756,-2.6033,0.0,-2.6115,-2.6168,0.0,0.0,0.0,0.0,0.0,0.0,0.0,0.0,0.0,0.0,0.0,0.0,0.0,0.0,-2.4176,-2.3996,-2.4389,-2.4407,-2.4591,-2.4996,-2.5842,-2.6268,-2.63,-2.7223,-2.7682,-2.7701,-2.7701,-2.7701,-2.774,-2.8529,-2.8925,-2.9058,-2.9928,-3.033,-3.0379,-3.0398,-3.0398,-3.0513,-3.1391,-3.1698,-3.1961,0.0,0.0,0.0,0.0,0.0,0.0,0.0,0.0,0.0,0.0,0.0,0.0,0.0,0.0,0.0,0.0,0.0,0.0,0.0,0.0,0.0,0.0,0.0,0.0,0.0,0.0,-3.0048,-3.0468,-3.0344,-3.0203,0.0,0.0,0.0,-2.9988,0.0,0.0,0.0,0.0,0.0,-2.7509,-2.7938,-2.7745,-2.7228,0.0,0.0,0.0,0.0,0.0,0.0,0.0,0.0,0.0,0.0,0.0,0.0,0.0,-2.1831,-2.1819,-2.1017,-2.2507,-2.403,-2.3054,-2.4887,-2.6677,0.0,-2.63,0.0,0.0,-2.5963,-2.5238,-2.571,-2.5612,0.0,-2.5307,0.0,0.0,0.0,0.0,0.0,0.0,0.0,0.0,0.0,0.0,0.0,0.0,0.0,0.0,0.0,-2.4312,-2.4058,-2.4192,-2.4459,-2.4657,-2.4802,-2.459,-2.4803,-2.5444,-2.5126,-2.5914,-2.7701,-2.7701,-2.7701,-2.772,-2.7944,-2.8096,-2.8234,-2.9094,-2.9475,-2.9544,-3.016,-3.0398,-3.0513,-3.1391,-3.1723,-3.1923,0.0,0.0,0.0,0.0,0.0,0.0,0.0,0.0,0.0,0.0,0.0,0.0,0.0,0.0,0.0,0.0,0.0,0.0,0.0,0.0,0.0,0.0,0.0,0.0,0.0,-3.0018,-2.9925,0.0,0.0,0.0,0.0,0.0,0.0,-2.9613,0.0,-2.9016,0.0,0.0,0.0,-2.74,-2.756,-2.7473,-2.7159,0.0,0.0,0.0,0.0,0.0,0.0,0.0,0.0,0.0,0.0,0.0,0.0,-2.233,-2.255,-2.279,-2.2394,-2.3481,-2.4597,-2.398,-2.5379,-2.6542,-2.5316,0.0,0.0,0.0,-2.5326,-2.4579,-2.5082,-2.5227,0.0,-2.516,0.0,0.0,0.0,0.0,0.0,0.0,0.0,0.0,0.0,0.0,0.0,0.0,0.0,0.0,0.0,-2.4438,-2.4358,0.0,-2.4746,-2.4738,-2.4817,-2.442,-2.4518,-2.5082,-2.4581,-2.517,-2.6708,-2.6708,-2.6708,-2.6727,-2.7082,-2.7431,-2.785,-2.8406,-2.8813,-2.914,-2.9679,-3.0102,-3.0456,-3.0987,-3.1203,-3.1372,0.0,0.0,0.0,0.0,0.0,0.0,0.0,0.0,0.0,0.0,0.0,0.0,0.0,0.0,0.0,0.0,0.0,0.0,0.0,0.0,0.0,0.0,0.0,0.0,0.0,0.0,0.0,0.0,0.0,0.0,0.0,0.0,-2.8873,-2.8764,0.0,-2.7864,0.0,0.0,0.0,-2.7386,-2.7335,-2.7299,-2.7233,-2.7034,0.0,0.0,0.0,0.0,0.0,0.0,0.0,0.0,0.0,0.0,-2.348,-2.322,-2.3859,-2.4551,-2.44,-2.4702,-2.5153,-2.5198,-2.5565,-2.5869,-2.5791,-2.5796,-2.5813,-2.594,0.0,-2.4625,-2.4748,-2.4863,-2.502,0.0,0.0,0.0,0.0,0.0,0.0,0.0,0.0,0.0,0.0,0.0,0.0,0.0,0.0,0.0,0.0,-2.4632,-2.4817,-2.5759,-2.5098,-2.4817,-2.4996,-2.4923,-2.4949,0.0,-2.5012,-2.5061,-2.5203,-2.5191,-2.5191,-2.5241,-2.6044,-2.6833,-2.7581,-2.7715,-2.8255,-2.8986,-2.9063,-2.9621,-3.041,-3.0421,-3.0421,-3.0537,0.0,0.0,0.0,0.0,0.0,0.0,0.0,0.0,0.0,0.0,0.0,0.0,0.0,0.0,0.0,0.0,0.0,0.0,0.0,0.0,0.0,0.0,0.0,0.0,0.0,0.0,0.0,0.0,0.0,0.0,0.0,0.0,0.0,-2.786,0.0,-2.7898,0.0,0.0,0.0,-2.7137,-2.6826,-2.6525,-2.6218,-2.615,0.0,0.0,0.0,0.0,0.0,0.0,0.0,0.0,-2.5288,-2.4701,-2.3997,-2.4194,-2.4762,-2.5146,-2.4116,-2.4938,-2.5968,-2.5405,-2.5956,-2.6557,-2.6528,-2.6828,-2.6609,-2.4702,-2.4489,-2.4462,-2.3973,-2.4461,-2.4942,0.0,0.0,0.0,0.0,0.0,0.0,0.0,0.0,0.0,0.0,0.0,0.0,0.0,0.0,0.0,-2.4466,-2.5131,0.0,-2.497,-2.494,-2.495,-2.501,-2.4327,-2.4353,0.0,-2.4397,-2.4511,-2.5273,-2.5206,-2.5195,-2.522,-2.5403,-2.5617,-2.5889,-2.6591,-2.7371,-2.8217,-2.8852,-2.9621,-3.041,-3.0451,-3.0509,-3.0593,0.0,0.0,0.0,0.0,0.0,0.0,0.0,0.0,0.0,0.0,0.0,0.0,0.0,0.0,0.0,0.0,0.0,0.0,0.0,0.0,0.0,0.0,0.0,0.0,0.0,0.0,0.0,0.0,0.0,0.0,0.0,0.0,0.0,-2.7444,0.0,-2.7609,0.0,0.0,0.0,-2.6759,-2.6283,-2.6136,-2.615,0.0,0.0,0.0,0.0,0.0,0.0,0.0,0.0,0.0,0.0,0.0,-2.4407,-2.4798,-2.5003,-2.5184,-2.5301,-2.5712,-2.6141,-2.6206,-2.6636,-2.7071,-2.6857,-2.724,-2.7136,-2.5136,-2.4926,-2.4792,-2.3789,-2.4297,0.0,0.0,0.0,0.0,0.0,0.0,0.0,0.0,0.0,0.0,0.0,0.0,0.0,0.0,0.0,-2.5261,-2.493,-2.5209,-2.5386,-2.5431,-2.5158,-2.501,-2.501,-2.4542,-2.4581,-2.5082,-2.4667,-2.4758,-2.5303,-2.5252,-2.5239,-2.5198,-2.5201,-2.5222,-2.5292,-2.5813,-2.6535,-2.7412,-2.8289,-2.8897,-2.94,-3.0239,-3.0308,-3.0057,0.0,0.0,0.0,0.0,0.0,0.0,0.0,0.0,0.0,0.0,0.0,0.0,0.0,0.0,0.0,0.0,0.0,0.0,0.0,0.0,0.0,0.0,0.0,0.0,0.0,0.0,0.0,0.0,0.0,0.0,0.0,0.0,0.0,-2.7402,0.0,0.0,0.0,0.0,0.0,0.0,0.0,0.0,0.0,0.0,0.0,0.0,0.0,-2.6233,-2.6312,-2.6289,0.0,0.0,0.0,0.0,-2.4624,-2.5014,-2.4917,-2.5032,-2.6433,-2.6515,-2.6347,-2.7066,-2.7384,-2.7423,-2.7019,-2.7408,-2.748,-2.6153,-2.5731,-2.5241,-2.3999,-2.4374,0.0,0.0,0.0,0.0,0.0,0.0,0.0,0.0,0.0,0.0,0.0,0.0,0.0,0.0,0.0,-2.4817,-2.5497,-2.5211,-2.5309,-2.5963,-2.5365,-2.5004,-2.5004,-2.5031,-2.507,-2.5144,-2.5203,-2.5274,-2.5313,-2.5331,-2.5293,-2.5195,-2.5233,-2.5244,-2.5244,-2.5363,-2.5933,-2.6792,-2.7575,-2.7964,-2.8262,-2.9664,-2.9718,-2.9234,0.0,0.0,0.0,0.0,0.0,0.0,0.0,0.0,0.0,0.0,0.0,0.0,0.0,0.0,0.0,0.0,0.0,0.0,-2.768,0.0,0.0,-2.7501,0.0,0.0,0.0,0.0,0.0,0.0,0.0,0.0,0.0,0.0,0.0,-2.7646,0.0,0.0,0.0,0.0,0.0,0.0,0.0,0.0,0.0,0.0,0.0,0.0,0.0,0.0,-2.6201,-2.5712,-2.5521,0.0,0.0,0.0,-2.4312,-2.4771,-2.4834,-2.4846,-2.5604,-2.6642,-2.7549,-2.7525,-2.7815,-2.7925,0.0,0.0,-2.7728,0.0,-2.6083,-2.5375,-2.4627,0.0,0.0,0.0,0.0,0.0,0.0,0.0,0.0,0.0,0.0,0.0,0.0,0.0,0.0,0.0,-2.5392,-2.5261,-2.4864,-2.5521,-2.5687,-2.5167,-2.5108,-2.5088,-2.5088,-2.5134,-2.5203,-2.5265,-2.5391,-2.5439,-2.5398,-2.5446,-2.5379,-2.5212,-2.5382,-2.5422,-2.5371,-2.546,-2.5991,-2.6806,-2.6929,-2.7434,-2.8139,-2.8421,-2.846,-2.8487,0.0,0.0,0.0,0.0,0.0,0.0,0.0,0.0,0.0,0.0,0.0,0.0,0.0,0.0,0.0,-2.7849,-2.7276,-2.6826,-2.6721,-2.6938,-2.7229,-2.7613,-2.833,0.0,0.0,0.0,0.0,0.0,0.0,0.0,0.0,-2.9694,-2.9088,0.0,0.0,0.0,0.0,0.0,0.0,0.0,0.0,0.0,0.0,0.0,0.0,0.0,0.0,0.0,-2.6021,-2.595,-2.5454,-2.4912,-2.4774,0.0,0.0,0.0,-2.3946,-2.4138,-2.5165,-2.6421,-2.7509,-2.7925,-2.7989,-2.7925,-2.776,-2.7925,-2.8079,-2.7888,-2.6949,-2.6043,0.0,0.0,0.0,0.0,0.0,0.0,0.0,0.0,0.0,0.0,0.0,0.0,0.0,0.0,0.0,0.0,-2.5573,-2.5064,-2.4889,-2.53,-2.5418,-2.5106,-2.5134,-2.5164,-2.5164,-2.519,-2.5245,-2.536,-2.5446,-2.5473,-2.546,-2.5565,-2.5499,-2.533,-2.5456,-2.5485,-2.5459,-2.5521,-2.578,-2.6174,-2.6708,-2.6852,-2.6872,-2.7885,-2.7943,-2.7729,0.0,0.0,0.0,0.0,0.0,0.0,0.0,0.0,0.0,0.0,0.0,0.0,0.0,0.0,0.0,0.0,-2.6683,-2.6111,-2.5729,-2.6231,-2.6844,-2.7544,-2.8352,-2.9078,0.0,0.0,0.0,0.0,0.0,0.0,-3.0335,-3.0495,-3.0074,0.0,-2.8985,-2.8407,0.0,0.0,0.0,0.0,0.0,0.0,0.0,0.0,0.0,0.0,0.0,0.0,0.0,-2.6141,-2.5509,-2.4638,-2.4603,-2.4339,0.0,0.0,0.0,-2.3803,-2.5156,-2.6262,-2.7285,-2.8204,-2.8152,-2.7989,0.0,0.0,-2.8542,0.0,-2.8079,-2.7232,0.0,0.0,0.0,0.0,0.0,0.0,0.0,0.0,0.0,0.0,0.0,0.0,0.0,0.0,0.0,0.0,-2.5797,-2.5002,-2.5336,-2.5196,-2.5122,-2.5212,-2.5214,-2.5224,-2.5224,-2.5264,-2.5329,-2.5453,-2.5493,-2.5537,-2.5546,-2.5643,-2.562,-2.5473,-2.5531,-2.5543,-2.5537,-2.5593,-2.5636,-2.5697,-2.6403,-2.6273,-2.5863,-2.7151,-2.7231,-2.6924,0.0,0.0,0.0,0.0,0.0,0.0,0.0,0.0,0.0,0.0,0.0,0.0,-2.7565,-2.71,-2.6832,-2.6832,-2.65,-2.5948,-2.5118,-2.5592,-2.6222,-2.6821,-2.8176,0.0,-3.0097,0.0,0.0,0.0,0.0,0.0,-2.9682,-3.0292,-3.0539,-3.0451,-2.9842,-2.857,-2.6821,0.0,0.0,0.0,0.0,0.0,0.0,0.0,0.0,0.0,0.0,0.0,0.0,-2.6039,-2.5336,-2.4785,-2.4785,-2.3894,-2.2997,0.0,0.0,0.0,-2.5713,-2.6565,-2.7328,-2.8194,-2.8396,-2.8348,0.0,0.0,-2.9166,-2.9661,-2.9508,-2.9135,0.0,0.0,0.0,0.0,0.0,0.0,0.0,0.0,0.0,0.0,0.0,0.0,0.0,0.0,0.0,0.0,-2.6363,-2.5374,-2.6281,-2.5554,-2.5138,-2.5192,-2.5255,-2.5293,-2.5293,-2.5422,-2.5525,-2.5595,-2.559,-2.5634,-2.5695,-2.5699,-2.5695,-2.5675,-2.5697,-2.5652,-2.5604,-2.5673,-2.5685,-2.5705,-2.5746,-2.5746,-2.5707,-2.5805,-2.5811,-2.6012,0.0,0.0,0.0,0.0,0.0,0.0,0.0,0.0,0.0,0.0,0.0,0.0,0.0,-2.6922,-2.6779,-2.6779,-2.6592,-2.6429,-2.6455,-2.668,-2.7256,-2.8282,-2.8802,-2.9454,-3.019,0.0,0.0,0.0,0.0,-2.9406,-2.9639,-3.0277,-3.0568,-3.0553,-2.9914,-2.9016,-2.7939,-2.6762,0.0,0.0,0.0,0.0,0.0,0.0,0.0,0.0,0.0,0.0,0.0,0.0,-2.6953,-2.6083,-2.6083,-2.5148,-2.4003,-2.3595,-2.4,-2.4717,-2.5461,-2.6134,-2.6872,-2.789,-2.8153,-2.8309,-2.8887,-2.915,-2.9467,-3.014,-2.9985,-2.9774,0.0,0.0,0.0,0.0,0.0,0.0,0.0,0.0,0.0,0.0,0.0,0.0,0.0,0.0,0.0,0.0,0.0,-2.6129,-2.6523,-2.5696,-2.5274,-2.5397,-2.5423,-2.544,-2.544,-2.5483,-2.5531,-2.5601,-2.5595,-2.5639,-2.5699,-2.5699,-2.5699,-2.5699,-2.5701,-2.5684,-2.5678,-2.5681,-2.5707,-2.5707,-2.5707,-2.5707,-2.5707,-2.5707,-2.5694,-2.5954,0.0,0.0,0.0,0.0,0.0,0.0,0.0,0.0,0.0,0.0,0.0,0.0,0.0,0.0,-2.7064,-2.698,-2.6926,-2.6876,-2.6959,-2.7159,-2.7739,-2.8799,-2.9095,-2.9574,-3.0297,0.0,0.0,0.0,0.0,0.0,0.0,-3.0277,-3.0568,-3.0553,-3.0132,-2.9464,0.0,0.0,0.0,-2.5815,0.0,0.0,-2.6324,0.0,0.0,0.0,0.0,0.0,0.0,0.0,-2.7984,-2.7142,-2.736,-2.6533,-2.5281,-2.4268,-2.4457,-2.5053,-2.5555,-2.6041,-2.6573,-2.7438,-2.7655,-2.7873,-2.8732,-2.9143,-2.9556,-3.0285,-3.0426,-3.0503,0.0,0.0,0.0,0.0,0.0,0.0,0.0,0.0,0.0,0.0,0.0,0.0,0.0,0.0,0.0,0.0,0.0,0.0,-2.7084,-2.6023,-2.5451,-2.553,-2.553,-2.553,-2.553,-2.5522,-2.5525,-2.5593,-2.5604,-2.563,-2.5699,-2.5699,-2.5699,-2.5703,-2.5704,-2.571,-2.569,-2.5703,-2.5707,-2.5707,-2.5707,-2.5707,-2.5707,-2.5707,-2.5694,-2.5955,0.0,0.0,0.0,0.0,0.0,0.0,0.0,0.0,0.0,0.0,0.0,0.0,0.0,0.0,0.0,-2.7446,-2.7502,-2.7207,-2.6451,-2.6996,-2.7617,-2.8227,-2.9021,-2.9693,-3.0312,0.0,0.0,0.0,0.0,0.0,0.0,0.0,-3.0628,-3.0628,-3.0628,-2.9921,-2.8796,0.0,-2.7618,-2.6038,0.0,-2.7961,-2.7086,0.0,0.0,0.0,-2.9405,-2.9261,0.0,-2.8739,0.0,0.0,-2.8548,-2.7879,-2.6674,-2.5606,-2.5318,-2.5447,0.0,0.0,0.0,-2.6904,-2.702,0.0,-2.7873,0.0,-2.9403,-3.0153,-3.0982,-3.1411,0.0,0.0,0.0,0.0,0.0,0.0,0.0,0.0,0.0,0.0,0.0,0.0,0.0,0.0,0.0,0.0,-2.8257,-2.7205,-2.8008,-2.6497,-2.5596,-2.5596,-2.5596,-2.5596,-2.5596,-2.5538,-2.555,-2.5609,-2.5593,-2.5634,-2.5699,-2.5699,-2.5703,-2.5694,-2.5704,-2.571,-2.569,-2.5703,-2.5707,-2.5707,-2.5707,-2.5707,-2.5707,-2.5707,-2.5694,-2.5954,0.0,0.0,0.0,0.0,0.0,0.0,0.0,0.0,0.0,0.0,0.0,0.0,-2.8527,-2.8469,-2.8421,-2.8354,-2.8369,-2.844,-2.8649,-2.8854,-2.9258,-2.9889,-3.0172,-3.0334,-3.0507,0.0,0.0,0.0,0.0,0.0,0.0,0.0,0.0,0.0,-3.0762,-3.054,-3.0158,-2.9132,0.0,-2.7911,-2.8442,-2.8778,0.0,0.0,0.0,0.0,0.0,-3.0441,-3.0426,0.0,-3.0119,-2.9885,-2.9459,-2.9004,-2.8419,-2.7562,-2.7549,-2.7614,-2.68,0.0,0.0,0.0,0.0,0.0,0.0,0.0,-2.9665,-3.0251,-3.1405,-3.2265,0.0,0.0,0.0,0.0,0.0,0.0,0.0,0.0,0.0,0.0,0.0,0.0,0.0,0.0,0.0,0.0,-2.8491,-2.7594,-2.7251,-2.6198,-2.56,-2.56,-2.56,-2.56,-2.56,-2.5578,-2.558,-2.5609,-2.5648,-2.5671,-2.5699,-2.5699,-2.5699,-2.5703,-2.5704,-2.571,-2.569,-2.5703,-2.5707,-2.5707,-2.5707,-2.5707,-2.5707,-2.5707,-2.5709,-2.5948,0.0,0.0,0.0,0.0,0.0,0.0,0.0,0.0,0.0,0.0,0.0,0.0,-2.9425,-2.9243,-2.9059,-2.9086,-2.9348,-2.9507,-2.9631,-2.9838,-3.019,-3.0553,-3.0568,-3.0568,-3.0568,0.0,0.0,0.0,0.0,0.0,0.0,0.0,0.0,0.0,0.0,0.0,0.0,0.0,0.0,0.0,-2.9465,0.0,0.0,-3.0507,-3.0821,0.0,0.0,0.0,-3.0955,-3.0955,-3.0895,0.0,0.0,-2.9778,-2.9648,-2.8839,-2.8756,-2.8709,-2.7826,-2.7348,-2.7138,-2.7267,0.0,0.0,-2.8609,-2.911,-2.9542,0.0,-3.1581,-3.2352,0.0,0.0,0.0,0.0,0.0,0.0,0.0,0.0,0.0,0.0,0.0,0.0,0.0,-3.0661,-3.0482,-2.9974,-2.883,-2.7626,-2.6454,-2.5913,-2.5642,-2.5642,-2.5642,-2.5642,-2.5642,-2.5637,-2.5636,-2.5645,-2.5648,-2.5665,-2.5697,-2.571,-2.5707,-2.5694,-2.5707,-2.5696,-2.5698,-2.5705,-2.5707,-2.5707,-2.5707,-2.5707,-2.5707,-2.5693,-2.5691,-2.5906,0.0,0.0,0.0,0.0,0.0,0.0,0.0,0.0,0.0,0.0,0.0,0.0,-3.0029,-2.9842,-2.9707,-2.9752,-3.0323,-3.0398,-2.9747,-3.0323,-3.064,-3.0568,-3.0568,-3.0628,-3.0642,0.0,0.0,0.0,0.0,0.0,0.0,0.0,0.0,0.0,0.0,0.0,0.0,0.0,0.0,-2.9993,-3.0568,-3.0129,0.0,0.0,-3.0732,-3.0269,-3.0881,-3.1014,-3.0881,-3.1073,-3.1014,0.0,0.0,0.0,0.0,-2.9884,-2.9624,-2.9494,-2.9184,-2.854,-2.7843,-2.7243,-2.6967,0.0,-2.8075,-2.8515,-2.9168,0.0,0.0,-3.1847,0.0,0.0,0.0,0.0,0.0,0.0,0.0,0.0,0.0,0.0,0.0,0.0,-3.071,-3.0745,-3.0739,-3.0585,-2.9015,-2.7413,-2.5918,-2.5742,-2.5702,-2.5702,-2.5683,-2.5683,-2.5703,-2.57,-2.5696,-2.5691,-2.5636,-2.5632,-2.5698,-2.5704,-2.5701,-2.5707,-2.5696,-2.5703,-2.5707,-2.5707,-2.5707,-2.5707,-2.5707,-2.5707,-2.5709,-2.5697,-2.5696,-2.5829,-3.5537,0.0,0.0,0.0,0.0,0.0,0.0,0.0,0.0,0.0,0.0,0.0,-3.1026,-3.0749,-3.0571,-3.0568,-3.1047,-3.1043,-3.0416,-3.0985,-3.1105,-3.0597,-3.0568,-3.0642,-3.0762,-3.0762,0.0,0.0,0.0,0.0,0.0,0.0,0.0,0.0,0.0,0.0,0.0,0.0,0.0,-3.1043,-3.1014,0.0,-3.0851,-3.1161,-3.1219,-3.1219,-3.1234,-3.1292,-3.1351,-3.1292,-3.1219,-3.1263,0.0,0.0,0.0,-3.2045,-3.2257,-3.2297,-3.1116,-3.0277,-2.9688,-2.9557,-2.8674,0.0,-2.8686,-2.887,-2.9021,0.0,-3.0099,-3.1044,-3.1984,0.0,0.0,0.0,0.0,0.0,0.0,0.0,0.0,0.0,0.0,0.0,-3.069,-3.0709,-3.0447,-2.9784,-2.818,-2.7089,-2.6768,-2.6086,-2.5701,-2.5701,-2.5642,-2.5642,-2.5701,-2.5698,-2.5701,-2.5703,-2.5683,-2.5698,-2.5698,-2.5701,-2.5693,-2.5697,-2.5693,-2.5701,-2.5701,-2.5705,-2.5707,-2.5707,-2.5707,-2.5707,-2.5707,-2.5709,-2.5697,-2.582,-3.5549,0.0,0.0,0.0,0.0,0.0,0.0,0.0,0.0,0.0,0.0,-3.1664,-3.1322,-3.1338,-3.141,-3.141,-3.1628,-3.1611,-3.1304,-3.1582,-3.1479,-3.0865,-3.0821,-3.0895,-3.0955,-3.0955,-3.1014,0.0,0.0,0.0,0.0,0.0,0.0,0.0,0.0,0.0,0.0,0.0,-3.1366,-3.1409,-3.1234,0.0,-3.1278,-3.1351,-3.1409,-3.1482,-3.1409,-3.1409,-3.1467,-3.1351,-3.1278,0.0,-3.1864,-3.2367,-3.2833,0.0,-3.3226,-3.3252,0.0,0.0,0.0,-3.065,0.0,0.0,0.0,-2.9317,-2.9334,-2.9432,-2.988,-3.0498,-3.1268,0.0,-3.1798,0.0,0.0,0.0,0.0,0.0,0.0,0.0,0.0,0.0,-3.0753,-3.0743,-3.04,-2.956,-2.8689,-2.7816,-2.6954,-2.6482,-2.6052,-2.5659,-2.5621,-2.5618,-2.5649,-2.5691,-2.5675,-2.5642,-2.568,-2.5703,-2.5699,-2.57,-2.5698,-2.5694,-2.5696,-2.5697,-2.5697,-2.5698,-2.5696,-2.5707,-2.5707,-2.5691,-2.5694,-2.5709,-2.5698,-2.5762,-3.5622,-3.5458,0.0,0.0,0.0,0.0,0.0,0.0,0.0,-3.1762,-3.208,-3.2199,-3.1767,-3.2064,-3.2254,-3.2254,-3.2296,-3.237,-3.237,-3.2252,-3.1972,-3.1485,-3.122,-3.1132,-3.1132,-3.1132,-3.119,0.0,0.0,0.0,0.0,0.0,0.0,0.0,0.0,0.0,0.0,0.0,0.0,-3.164,0.0,-3.1351,-3.1351,-3.1467,-3.1482,-3.1482,-3.1482,-3.1482,-3.1467,-3.1409,-3.1351,-3.1452,-3.1977,-3.2461,0.0,0.0,0.0,0.0,0.0,0.0,0.0,0.0,0.0,-3.0892,0.0,0.0,0.0,0.0,0.0,0.0,0.0,0.0,0.0,0.0,0.0,0.0,0.0,0.0,0.0,0.0,0.0,0.0,0.0,-3.0804,-3.0507,-2.9799,-2.9533,-2.872,-2.7146,-2.6894,-2.6421,-2.5604,-2.5569,-2.5572,-2.5575,-2.5626,-2.5639,-2.5604,-2.5644,-2.5681,-2.5702,-2.5702,-2.5702,-2.5702,-2.5683,-2.5683,-2.5703,-2.5683,-2.5683,-2.5673,-2.5689,-2.5693,-2.5698,-2.5694,-2.57,-2.5703,-3.5622,-3.5503,-3.5446,0.0,0.0,0.0,0.0,0.0,0.0,-3.2377,-3.2467,-3.2646,-3.3215,-3.3166,-3.3164,-3.3164,-3.3543,-3.3741,-3.3741,-3.321,-3.2856,-3.2797,-3.1692,-3.1132,-3.1292,-3.1292,-3.1351,-3.1467,0.0,0.0,0.0,0.0,0.0,0.0,-3.2841,0.0,0.0,0.0,-3.2287,0.0,-3.1697,-3.1467,0.0,-3.1482,-3.1482,-3.1482,-3.1482,-3.1482,-3.1482,0.0,-3.1467,-3.1582,0.0,-3.2749,-3.3251,-3.3866,0.0,0.0,0.0,0.0,0.0,0.0,-3.272,0.0,0.0,0.0,-2.9857,-2.9556,0.0,0.0,-2.9638,0.0,0.0,0.0,0.0,0.0,0.0,0.0,0.0,0.0,0.0,0.0,0.0,-3.081,-3.0762,-3.0657,-2.9861,-2.9007,-2.8095,-2.7194,-2.6331,-2.555,-2.5453,-2.5453,-2.5505,-2.5525,-2.5554,-2.5598,-2.5609,-2.564,-2.5702,-2.5696,-2.5696,-2.5702,-2.5637,-2.5659,-2.5703,-2.5638,-2.56,-2.5625,-2.5675,-2.5707,-2.5691,-2.5702,-2.5703,-2.5703,-3.5622,-3.5566,-3.5492,0.0,0.0,0.0,0.0,0.0,0.0,0.0,-3.3529,-3.4053,-3.3544,-3.3781,-3.402,-3.402,-3.4196,-3.4282,-3.4282,-3.4401,-3.4118,-3.3344,-3.3538,-3.3106,-3.2005,-3.2408,-3.2228,-3.1482,-3.1853,0.0,0.0,0.0,0.0,0.0,-3.3266,0.0,-3.298,0.0,-3.2398,0.0,0.0,0.0,0.0,-3.164,-3.1482,-3.1539,-3.191,-3.2007,-3.2064,0.0,-3.2272,0.0,0.0,0.0,0.0,-3.4284,0.0,0.0,0.0,0.0,0.0,0.0,0.0,0.0,-3.2778,0.0,-3.119,0.0,0.0,0.0,0.0,0.0,0.0,0.0,-3.1347,0.0,0.0,0.0,0.0,0.0,0.0,0.0,0.0,0.0,0.0,0.0,-2.9917,-2.8994,-2.807,-2.7171,-2.6298,-2.5404,-2.5385,-2.5412,-2.5448,-2.5476,-2.5512,-2.5542,-2.5589,-2.5642,-2.5709,-2.5654,-2.5634,-2.5631,-2.5609,-2.5638,-2.5703,-2.5661,-2.5652,-2.5659,-2.5696,-2.5699,-2.5697,-2.5703,-2.5702,-2.5697,-3.5622,-3.5549,-3.5537,-3.5492,0.0,0.0,0.0,0.0,0.0,0.0,0.0,-3.513,-3.4158,-3.4472,-3.4756,-3.4756,-3.4921,-3.5026,-3.5026,-3.5325,-3.507,-3.4083,-3.4637,-3.4277,-3.2826,-3.3246,-3.299,-3.201,0.0,0.0,0.0,0.0,0.0,0.0,0.0,-3.3748,-3.3866,0.0,-3.2911,-3.2857,-3.2749,-3.2641,-3.2547,-3.1951,-3.1754,-3.1796,-3.2231,-3.2492,-3.2695,-3.3093,-3.2949,0.0,-3.3781,0.0,0.0,0.0,0.0,0.0,-3.4899,0.0,0.0,0.0,0.0,0.0,0.0,0.0,0.0,0.0,0.0,0.0,0.0,0.0,-3.1319,-3.1446,0.0,-3.087,0.0,-3.0684,0.0,0.0,0.0,0.0,0.0,0.0,0.0,-3.0368,-2.9541,-2.8609,-2.7651,-2.7015,-2.6265,-2.5361,-2.536,-2.5388,-2.5398,-2.5448,-2.5478,-2.5504,-2.5566,-2.564,-2.571,-2.5625,-2.5601,-2.56,-2.5593,-2.5631,-2.566,-2.5677,-2.5689,-2.571,-2.5698,-2.5695,-2.5696,-2.5703,-2.5701,-2.5691,-3.5622,-3.5577,-3.5594,-3.5492,0.0,0.0,0.0,0.0,0.0,0.0,0.0,-3.5489,-3.5444,-3.5459,-3.5474,-3.5474,-3.6058,-3.6432,-3.6432,-3.5848,-3.5489,-3.5444,-3.4233,-3.3529,-3.3469,-3.3419,-3.3356,-3.331,0.0,0.0,0.0,0.0,0.0,0.0,0.0,-3.4301,-3.3443,-3.3919,-3.4119,-3.4086,-3.3598,-3.3287,-3.3093,0.0,-3.2398,-3.2398,-3.2398,0.0,0.0,-3.3182,-3.3198,0.0,0.0,0.0,0.0,0.0,0.0,0.0,0.0,0.0,0.0,-3.4866,0.0,0.0,0.0,0.0,-3.4028,0.0,0.0,0.0,0.0,-3.2164,-3.2265,-3.1439,-3.1867,0.0,0.0,0.0,0.0,0.0,0.0,0.0,0.0,0.0,0.0,-2.9547,-2.8675,-2.7757,-2.6889,-2.6693,-2.6236,-2.5412,-2.5351,-2.5322,-2.5398,-2.5404,-2.5437,-2.5504,-2.5562,-2.5649,-2.5707,-2.5632,-2.5591,-2.5591,-2.5593,-2.559,-2.5603,-2.5603,-2.5634,-2.5703,-2.5691,-2.5699,-2.5698,-2.5709,-2.5703,-2.57,-3.7127,-3.7516,-3.7381,-3.5847,-3.552,0.0,0.0,-3.6672,0.0,0.0,-3.6808,0.0,0.0,-3.5774,-3.5684,-3.6118,-3.6357,-3.6656,-3.7075,-3.73,-3.7413,-3.7491,-3.6999,-3.6561,-3.6175,-3.5643,-3.5189,-3.4729,0.0,0.0,0.0,0.0,0.0,0.0,0.0,-3.4787,0.0,0.0,0.0,0.0,0.0,-3.4406,-3.3818,0.0,0.0,-3.3002,-3.3387,-3.3662,0.0,-3.4218,-3.4118,-3.3866,-3.4431,-3.4399,-3.4201,-3.4739,-3.4899,0.0,0.0,0.0,-3.5088,-3.5333,0.0,0.0,0.0,0.0,0.0,0.0,0.0,0.0,0.0,-3.3731,-3.3588,-3.2346,-3.2084,-3.1824,0.0,0.0,0.0,0.0,0.0,0.0,0.0,0.0,0.0,-2.9496,-2.8136,-2.7155,0.0,-2.6219,-2.5719,-2.5351,-2.5341,-2.5389,-2.5398,-2.5388,-2.5472,-2.5562,-2.5582,-2.5609,-2.5632,-2.5615,-2.5595,-2.5593,-2.5609,-2.5632,-2.5675,-2.5664,-2.5683,-2.5703,-2.5691,-2.5699,-2.5696,-2.5707,-2.5694,-2.5687,-3.7855,-3.8278,-3.8159,-3.6688,-3.6578,0.0,0.0,0.0,0.0,0.0,-3.8422,0.0,-3.7281,0.0,-3.6252,0.0,-3.6708,-3.6893,-3.7045,-3.7948,-3.8439,-3.8477,-3.8662,-3.8469,-3.784,-3.7317,-3.6742,-3.6055,0.0,-3.6151,0.0,0.0,0.0,0.0,0.0,-3.5285,-3.5646,-3.576,-3.5844,0.0,0.0,-3.5037,0.0,0.0,-3.3783,-3.3578,0.0,-3.4201,-3.4448,-3.4787,-3.4691,-3.4448,-3.4787,-3.4643,-3.4448,-3.4851,-3.4947,-3.493,-3.5195,-3.527,0.0,-3.5803,-3.613,0.0,-3.6921,0.0,0.0,0.0,0.0,0.0,0.0,0.0,-3.4365,-3.3294,-3.2674,-3.231,0.0,-3.211,0.0,0.0,0.0,-3.1104,0.0,-3.0004,-2.9373,-2.9062,-2.7717,-2.6741,0.0,0.0,-2.5743,-2.5341,-2.5649,-2.5697,-2.5398,-2.5397,-2.5472,-2.5601,-2.5601,-2.5609,-2.5593,-2.5605,-2.56,-2.5603,-2.56,-2.5637,-2.5697,-2.5699,-2.5694,-2.5703,-2.5693,-2.5699,-2.5701,-2.5707,-2.5707,-2.5679,-3.7922,-3.8075,0.0,0.0,-3.8586,0.0,0.0,0.0,-4.0967,0.0,-4.0243,-3.9481,-3.8661,-3.7888,-3.7238,-3.6538,-3.7061,-3.722,-3.664,-3.7862,0.0,-3.8577,-3.9141,-3.9184,-3.861,-3.8422,-3.801,-3.7307,0.0,0.0,0.0,0.0,0.0,0.0,-3.5609,0.0,-3.6565,-3.6602,-3.6683,-3.6569,-3.5736,-3.5325,-3.5291,-3.5291,-3.4851,-3.4151,-3.4151,-3.4497,-3.4899,-3.4899,-3.4899,-3.4899,-3.4899,-3.4899,-3.4947,-3.5088,-3.5041,-3.5102,-3.5732,-3.5847,-3.5856,-3.6388,0.0,0.0,0.0,0.0,-3.7899,0.0,0.0,0.0,0.0,0.0,-3.4679,-3.4104,-3.3616,-3.3507,-3.4044,-3.336,-3.2904,0.0,-3.2471,-3.1681,-3.0878,-2.9971,-2.9082,-2.8273,-2.743,-2.656,0.0,0.0,-2.6373,-2.5492,-2.616,-2.6169,-2.5407,-2.5404,-2.5476,-2.5601,-2.5601,-2.5591,-2.5609,-2.5605,-2.5609,-2.5609,-2.5593,-2.5645,-2.5696,-2.5702,-2.5698,-2.5702,-2.5696,-2.5707,-2.5707,-2.5707,-2.5707,-2.5698,-4.0358,-4.0358,-4.0527,0.0,-4.1218,-4.1194,0.0,0.0,0.0,0.0,-4.1429,-4.0352,-3.9649,-3.8946,-3.8412,-3.8067,-3.8164,0.0,0.0,0.0,0.0,-4.0176,-3.9422,-3.935,-4.0205,-3.9155,-3.875,-3.9063,0.0,0.0,-3.8238,0.0,0.0,0.0,0.0,0.0,-3.5845,-3.6939,-3.7458,-3.7503,-3.6602,-3.5917,0.0,0.0,-3.5198,-3.4994,-3.4994,-3.5088,-3.5198,-3.5198,-3.5198,-3.5198,-3.5198,-3.5198,-3.5274,-3.5588,-3.5661,-3.5776,-3.6239,-3.6405,-3.6528,-3.6925,-3.721,-3.7487,0.0,0.0,0.0,0.0,0.0,0.0,0.0,0.0,0.0,-3.4352,-3.3848,-3.3712,-3.4059,-3.336,0.0,-3.3961,-3.2793,-3.1612,-3.0808,-2.9398,-2.8457,-2.8281,-2.8032,0.0,0.0,0.0,0.0,-2.6404,-2.5942,-2.5622,-2.5492,-2.548,-2.5517,-2.5601,-2.5605,-2.5593,-2.559,-2.5603,-2.5598,-2.5609,-2.5644,-2.5679,-2.5693,-2.5703,-2.5703,-2.5703,-2.5696,-2.5696,-2.5697,-2.5691,-2.5707,-2.5776,-4.1543,0.0,0.0,-4.2219,0.0,0.0,-4.2092,-4.2417,0.0,-4.3074,-4.1889,0.0,-4.0344,-3.9642,-3.9105,-3.8673,-3.8615,0.0,-3.9163,0.0,0.0,-4.0769,-4.0393,-4.0334,-4.0799,-3.9694,-3.9312,-3.9677,-3.869,0.0,-3.869,0.0,0.0,0.0,0.0,-3.566,-3.6122,-3.6949,-3.7368,-3.7347,-3.6477,0.0,0.0,-3.5458,-3.5412,-3.5412,-3.5412,-3.5367,-3.5291,-3.5291,-3.5291,-3.5291,-3.5291,-3.5412,-3.5605,-3.5924,-3.6062,-3.6281,-3.6808,-3.6964,-3.7097,-3.7505,-3.7721,-3.7845,-3.8003,-3.8124,-3.8174,0.0,0.0,0.0,0.0,0.0,0.0,-3.4577,-3.4293,-3.4317,-3.455,-3.4218,0.0,-3.432,-3.3568,-3.2726,-3.1903,-2.9979,-2.8769,-2.8789,-2.8769,0.0,0.0,0.0,0.0,-2.6741,-2.6586,-2.6373,-2.6033,-2.5691,-2.5525,-2.559,-2.5605,-2.5612,-2.5644,-2.5607,-2.5618,-2.5644,-2.5675,-2.5694,-2.5701,-2.5703,-2.5703,-2.5703,-2.5694,-2.5691,-2.5696,-2.5709,-2.5681,-2.5701,0.0,0.0,0.0,0.0,0.0,0.0,0.0,-4.2878,0.0,-4.3339,0.0,-4.123,-4.1003,-4.0316,-3.964,-3.8941,0.0,-3.8913,-3.8921,-3.9471,-4.0048,-4.0705,-4.1294,-4.1355,-4.0718,-3.9998,-3.9662,-3.9729,-3.8553,-3.8263,0.0,0.0,0.0,0.0,0.0,0.0,0.0,-3.6808,-3.6808,-3.6871,-3.6089,-3.5783,-3.5783,-3.5783,-3.5783,-3.5783,-3.5783,-3.5577,-3.5337,-3.5337,-3.5383,-3.5412,-3.5412,-3.5722,-3.6062,-3.6249,-3.6464,-3.679,-3.7414,-3.7487,-3.7524,-3.8054,-3.8192,-3.8192,-3.8192,-3.8192,-3.8192,-3.8192,-3.8225,-3.7867,0.0,0.0,0.0,-3.4824,0.0,0.0,0.0,0.0,-3.5168,-3.4533,0.0,0.0,-3.353,-3.1266,-2.9765,-2.9609,0.0,0.0,0.0,0.0,0.0,-2.7127,-2.7679,0.0,-2.6732,0.0,-2.5662,-2.5617,-2.5618,-2.5638,-2.5703,-2.564,-2.5644,-2.5709,-2.5702,-2.5703,-2.5709,-2.5703,-2.5703,-2.5703,-2.5694,-2.5707,-2.5707,-2.5707,-2.5651,-2.5613,0.0,0.0,0.0,0.0,0.0,-4.3014,-4.2543,-4.3453,-4.4231,-4.4367,-4.3534,-4.274,-4.2115,-4.1405,-4.0592,-3.9763,-3.9713,0.0,0.0,0.0,0.0,-4.0237,-4.0357,-4.0358,-4.024,-3.9513,-3.9429,-4.002,-3.9563,-3.9066,-3.8585,0.0,0.0,0.0,0.0,0.0,-3.7718,-3.6792,0.0,-3.7725,-3.6957,-3.6661,-3.6661,-3.6661,-3.6661,-3.6661,-3.6661,-3.6182,-3.5532,-3.5532,-3.5783,-3.6131,-3.6131,-3.6392,-3.6803,-3.7152,-3.7303,-3.7414,-3.7933,-3.8054,-3.8054,-3.8174,-3.8192,-3.8192,-3.8192,-3.8192,-3.8192,-3.8192,-3.8387,-3.8248,-3.7367,0.0,0.0,0.0,0.0,0.0,0.0,0.0,0.0,-3.5364,-3.4854,-3.4439,-3.4303,-3.2647,-3.1282,0.0,0.0,0.0,0.0,0.0,0.0,0.0,-2.8375,0.0,0.0,0.0,-2.6334,-2.5681,-2.5676,-2.5698,-2.5693,-2.5683,-2.5694,-2.5707,-2.5694,-2.5693,-2.5709,-2.5702,-2.5693,-2.5693,-2.5709,-2.5707,-2.5707,-2.5707,-2.5651,-2.5808,0.0,0.0,0.0,0.0,0.0,0.0,0.0,-4.4665,0.0,-4.4067,-4.3318,-4.2557,-4.1813,-4.1407,-4.0899,-4.0054,-3.9986,-3.9986,-3.9986,-3.9986,-4.0037,-4.0087,-4.007,-4.0204,-4.0434,-3.9341,-3.9431,-4.0832,-3.9519,-3.9051,-3.9469,0.0,0.0,0.0,0.0,-3.711,0.0,0.0,0.0,-3.7409,-3.704,-3.69,-3.69,-3.69,-3.69,-3.69,-3.69,-3.662,-3.6249,-3.6249,-3.6416,-3.6597,-3.6597,-3.69,-3.7246,-3.7414,-3.7667,-3.7915,-3.814,-3.8192,-3.8192,-3.8192,-3.8192,-3.8192,-3.8192,-3.8192,-3.8241,-3.8415,-3.8523,-3.8449,-3.7968,-3.7276,0.0,0.0,0.0,0.0,0.0,0.0,-3.5481,-3.5577,-3.4986,-3.4737,-3.5185,0.0,0.0,0.0,0.0,0.0,0.0,0.0,0.0,0.0,0.0,0.0,0.0,0.0,0.0,-2.5707,-2.57,-2.5703,-2.5703,-2.5699,-2.5693,-2.5707,-2.5707,-2.5697,-2.5703,-2.5694,-2.5707,-2.5707,-2.5707,-2.5707,-2.5707,-2.5707,-2.5681,-2.5818,0.0,-4.5132,0.0,0.0,-4.4777,0.0,-4.4829,-4.5378,-4.5349,-4.4,-4.3141,-4.2394,-4.1525,-4.1288,-4.0899,-4.0138,-4.0171,-4.0254,-4.0254,-4.0336,-4.0385,-4.0385,-4.0385,-4.0563,-4.0926,-3.9455,-3.9494,-4.1236,-3.9394,-3.91,0.0,-3.9964,0.0,0.0,0.0,0.0,0.0,0.0,-3.7094,-3.7188,-3.7188,-3.7188,-3.7188,-3.7188,-3.7188,-3.7188,-3.7188,-3.7188,-3.7188,-3.7188,-3.7094,-3.7017,-3.7017,-3.7321,-3.7632,-3.7632,-3.7933,-3.8192,-3.8192,-3.8192,-3.8192,-3.8192,-3.8241,-3.8307,-3.8307,-3.8354,-3.8478,-3.873,-3.8818,-3.8758,-3.847,-3.8112,0.0,0.0,0.0,0.0,0.0,0.0,-3.5434,0.0,-3.503,-3.4982,-3.5324,0.0,0.0,0.0,0.0,0.0,0.0,0.0,0.0,0.0,0.0,-2.9579,-2.8767,0.0,-2.6957,0.0,-2.5957,-2.5861,-2.5701,-2.5693,-2.5698,-2.5693,-2.5693,-2.5703,-2.5707,-2.5707,-2.5707,-2.5707,-2.5707,-2.5707,-2.5707,-2.5707,-2.5824,-2.6071,0.0,0.0,0.0,0.0,0.0,0.0,-4.4179,-4.4523,-4.503,-4.5113,-4.4457,-4.3563,-4.2323,-4.1593,-4.0899,-4.0138,-4.0483,-4.0707,-4.0707,-4.1139,-4.1348,-4.1348,-4.1348,-4.1393,-4.1437,-3.9929,-3.9561,0.0,-3.9979,-3.9786,-3.9872,-4.0955,0.0,0.0,0.0,0.0,0.0,-3.7632,-3.7685,-3.8072,-3.8072,-3.8072,-3.8072,-3.8072,-3.8072,-3.8072,-3.8072,-3.8072,-3.8072,-3.8072,-3.781,-3.7414,-3.7414,-3.7756,-3.814,-3.814,-3.8192,-3.8192,-3.8192,-3.8192,-3.8192,-3.8192,-3.8368,-3.8554,-3.8554,-3.8799,-3.9017,-3.9072,-3.9345,-3.941,-3.8857,-3.8785,-3.8518,0.0,0.0,0.0,0.0,0.0,-3.5168,-3.4502,-3.5126,-3.5079,-3.376,-3.4939,0.0,0.0,-3.4086,0.0,0.0,0.0,0.0,-3.1893,0.0,-3.1428,-3.056,-2.9703,0.0,-2.6874,-2.6815,-2.6408,-2.5711,-2.571,-2.5702,-2.5703,-2.5703,-2.5702,-2.5707,-2.5707,-2.5707,-2.5707,-2.5707,-2.5707,-2.5707,-2.5707,-2.6195,-2.6988,0.0,0.0,0.0,0.0,0.0,0.0,0.0,-4.5054,-4.5168,-4.4865,-4.4305,-4.3545,-4.2587,-4.2192,-4.1756,-4.1024,-4.1094,-4.123,-4.123,-4.1393,-4.1481,-4.1481,-4.1481,-4.1402,-4.1197,-4.0116,-3.9828,0.0,0.0,-4.0471,-4.0939,-4.1468,0.0,0.0,0.0,-3.8326,-3.8192,-3.8002,-3.802,-3.8192,-3.8192,-3.8192,-3.8192,-3.8192,-3.8192,-3.8192,-3.8192,-3.8192,-3.8192,-3.8192,-3.8072,-3.7933,-3.7933,-3.8054,-3.8192,-3.8192,-3.8192,-3.8259,-3.8401,-3.8433,-3.8478,-3.8658,-3.8799,-3.8896,-3.8896,-3.9017,-3.9231,-3.9432,-3.9769,-3.9963,-3.968,-3.97,-3.9452,0.0,0.0,0.0,0.0,0.0,0.0,-3.5185,0.0,-3.4263,-3.4135,-3.4291,0.0,0.0,0.0,0.0,0.0,0.0,0.0,-3.2827,0.0,-3.113,-3.0739,-2.9913,-2.8637,-2.6932,-2.6906,-2.6451,-2.5635,-2.564,-2.5636,-2.5644,-2.5683,-2.5701,-2.5703,-2.5694,-2.5707,-2.5707,-2.5707,-2.5707,-2.5765,-2.6293,-2.6649,-2.7063,-4.5755,0.0,-4.4638,0.0,-4.5257,-4.551,-4.5215,-4.5178,-4.4895,-4.4163,-4.3754,-4.3262,-4.2693,-4.2594,-4.2279,-4.1552,-4.1402,-4.1453,-4.17,-4.1403,-4.1304,-4.1534,-4.1321,0.0,-4.0856,-4.0068,-3.9841,-4.0184,-4.0184,-4.0474,-4.1035,0.0,0.0,0.0,-3.8808,-3.8409,-3.8192,-3.8192,-3.8192,-3.8192,-3.8192,-3.8192,-3.8192,-3.8192,-3.8192,-3.8192,-3.8192,-3.8192,-3.8225,-3.8289,-3.8322,-3.8322,-3.8241,-3.8241,-3.8322,-3.8322,-3.8401,-3.8523,-3.8718,-3.8759,-3.8799,-3.9008,-3.9171,-3.9275,-3.9275,-3.9402,-3.9566,-3.9813,-4.0099,-4.0291,-4.0234,-4.0272,-4.0119,-3.9522,0.0,0.0,0.0,-3.6276,0.0,-3.5363,-3.46,-3.4119,-3.4233,-3.4174,0.0,0.0,0.0,0.0,0.0,0.0,0.0,0.0,0.0,0.0,0.0,-3.0292,-2.9121,-2.7637,-2.7643,-2.7032,-2.5936,-2.5701,-2.5615,-2.5623,-2.5682,-2.5703,-2.5701,-2.5697,-2.5707,-2.5707,-2.5707,-2.5861,-2.6169,-2.6776,-2.7234,-2.7729,-4.559,-4.5205,-4.4858,-4.5644,-4.5659,-4.5328,-4.4508,-4.4399,-4.4126,-4.3232,-4.3104,-4.2994,-4.266,-4.2594,-4.2279,-4.1552,-4.118,-4.1319,-4.2162,-4.1137,-4.0854,0.0,0.0,-4.0492,-4.0492,-3.9786,-3.9405,-3.9405,0.0,0.0,-3.9441,0.0,-4.013,-3.9387,-3.9387,-3.8934,-3.8192,-3.8192,-3.8192,-3.8192,-3.8192,-3.8192,-3.8192,-3.8192,-3.8192,-3.8192,-3.8192,-3.8192,-3.8241,-3.851,-3.8628,-3.8658,-3.8289,-3.8368,-3.8585,-3.8585,-3.8828,-3.9099,-3.908,-3.9152,-3.9205,-3.9205,-3.9445,-3.9693,-3.9693,-3.9935,-4.0196,-4.0291,-4.031,-4.031,-4.031,-4.031,-4.0327,-4.0457,0.0,0.0,0.0,0.0,0.0,-3.4598,-3.5189,-3.5072,-3.3565,-3.4895,0.0,0.0,0.0,0.0,0.0,0.0,0.0,-3.2143,-3.2094,0.0,-3.2073,-3.1222,-3.0308,-2.938,-2.9379,-2.8451,-2.6768,-2.597,-2.5644,-2.5707,-2.5696,-2.5691,-2.5703,-2.5694,-2.5707,-2.5707,-2.5707,-2.6225,-2.6991,-2.701,-2.8009,-2.9357,-4.4817,-4.4461,-4.4262,-4.4521,-4.4354,-4.4089,-4.3761,-4.3724,-4.3396,-4.2486,-4.2341,-4.2105,-4.1447,-4.1743,-4.1898,0.0,-4.1027,-4.076,0.0,-4.0709,-4.0619,-4.089,-4.0655,-4.0274,-3.9767,-3.9514,-3.9115,-3.8572,0.0,0.0,0.0,-3.9758,-3.9449,-3.8736,-3.8736,-3.8591,-3.8336,-3.8336,-3.8336,-3.8336,-3.8523,-3.8597,-3.8628,-3.8799,-3.8868,-3.8868,-3.8868,-3.8868,-3.8896,-3.898,-3.9036,-3.9017,-3.8924,-3.8924,-3.9008,-3.9008,-3.9072,-3.9205,-3.9445,-3.9537,-3.9585,-3.9785,-3.9935,-4.0038,-4.0038,-4.0157,-4.0272,-4.0291,-4.031,-4.0328,-4.043,-4.0447,-4.0492,-4.0602,-3.9243,0.0,0.0,0.0,-3.5716,-3.5483,-3.5158,-3.4756,0.0,-3.47,0.0,0.0,0.0,0.0,0.0,0.0,0.0,0.0,-3.3574,0.0,-3.2855,-3.2032,-3.0847,-2.9326,-2.9326,-2.8753,-2.7687,-2.7421,-2.7326,-2.7333,-2.7422,-2.7104,-2.6576,-2.7202,-2.6761,-2.5805,-2.6966,-2.7231,-2.7144,-2.8283,-2.8935,-2.9337,-4.3502,-4.3529,-4.3562,-4.3263,-4.3299,-4.3235,-4.2894,-4.2825,-4.2576,-4.1831,-4.1724,-4.1507,-4.0862,-4.0886,0.0,-4.1361,-4.0634,-4.0307,-4.0598,-4.0053,-3.9854,-4.0162,-3.9872,-3.9509,-3.9018,0.0,0.0,-3.8433,-3.9067,-3.9412,-3.9455,-3.9455,-3.9178,-3.87,-3.87,-3.87,-3.87,-3.87,-3.87,-3.873,-3.8868,-3.8952,-3.8952,-3.9125,-3.9205,-3.9205,-3.9205,-3.9205,-3.9205,-3.9352,-3.9402,-3.9408,-3.9543,-3.959,-3.959,-3.9445,-3.9494,-3.9614,-3.9829,-3.9892,-3.9975,-4.0137,-4.0215,-4.0234,-4.0234,-4.0309,-4.0381,-4.0381,-4.0413,-4.0476,-4.0564,-4.0579,-4.0615,-4.0742,-3.9655,-3.8702,-3.8405,0.0,-3.6264,0.0,0.0,0.0,0.0,-3.509,-3.5187,0.0,0.0,0.0,0.0,0.0,0.0,-3.4964,-3.3955,0.0,-3.2752,-3.224,-3.1274,-2.9819,-2.9489,-2.9096,-2.8605,-2.8293,-2.8129,-2.8135,-2.8247,-2.7964,-2.7471,-2.8062,-2.7659,-2.6778,-2.78,-2.8099,-2.8069,-2.908,-2.957,-2.9805,-4.1867,-4.2506,0.0,0.0,-4.2592,0.0,-4.2096,-4.1983,-4.1838,-4.139,-4.1304,-4.1114,-4.076,-4.0017,-3.9904,-4.0638,0.0,0.0,0.0,-3.9221,-3.8729,-3.9477,-3.8816,-3.8415,-3.8415,-3.8446,-3.8566,-3.8828,-3.9072,-3.9205,-3.9205,-3.9205,-3.9205,-3.9205,-3.9205,-3.9205,-3.9205,-3.9205,-3.9205,-3.9205,-3.9231,-3.9257,-3.9257,-3.9257,-3.9282,-3.9282,-3.9282,-3.9282,-3.9308,-3.9651,-3.9724,-3.9794,-4.0099,-4.0253,-4.0234,-3.9848,-3.9956,-4.0196,-4.0196,-4.0253,-4.031,-4.031,-4.031,-4.0329,-4.0328,-4.0411,-4.0519,-4.0519,-4.0602,-4.0694,-4.0706,-4.0706,-4.0754,-4.0878,-4.014,-3.9271,-3.8611,0.0,-3.6821,0.0,0.0,0.0,0.0,-3.5908,-3.5597,0.0,0.0,0.0,0.0,0.0,-3.5246,-3.3609,-3.3629,-3.319,-3.2188,-3.2129,-3.1625,-3.0697,-2.9881,-2.9531,-2.9555,-2.8743,-2.8384,-2.8388,-2.8442,-2.8433,-2.8395,-2.8451,-2.8401,-2.8301,-2.8363,-2.8833,-2.9489,-2.9483,-2.9965,-3.0558,0.0,0.0,-4.2427,-4.2238,-4.2686,-4.3042,-4.2846,-4.2835,-4.2565,-4.1846,-4.122,-4.0576,-3.9861,-3.9637,-3.9581,-3.9786,-3.9123,-3.8747,-3.8948,-3.8601,-3.8474,-3.8674,-3.8707,-3.8718,-3.8718,-3.8915,-3.9063,-3.9197,-3.9249,-3.9327,-3.9414,-3.9414,-3.9414,-3.9414,-3.9414,-3.9414,-3.9414,-3.9414,-3.9414,-3.9439,-3.9651,-3.9743,-3.9766,-3.9956,-4.0038,-4.0038,-4.0038,-4.0038,-4.0058,-4.0118,-4.0157,-4.0157,-4.0253,-4.0291,-4.0272,-4.0176,-4.0196,-4.0291,-4.0291,-4.0291,-4.031,-4.031,-4.0381,-4.0492,-4.0593,-4.0629,-4.0642,-4.0642,-4.0668,-4.073,-4.0839,-4.0849,-4.0907,-4.103,-3.9767,-3.8694,-3.8511,-3.722,0.0,0.0,-3.5934,-3.5909,-3.5904,-3.5894,-3.6084,0.0,0.0,0.0,0.0,-3.6785,-3.6415,-3.5343,-3.5947,-3.5558,-3.3988,-3.3384,-3.2263,-3.0691,-3.049,-3.04,-3.0411,-3.0197,-3.0136,-3.018,-3.0199,-2.9839,-2.9273,-2.9936,-2.9428,-2.8343,-2.9667,-2.9878,-2.9502,-3.0153,-3.0416,-3.0433,-4.1113,-4.1472,-4.1827,-4.1466,-4.1923,-4.2361,-4.2361,-4.2361,-4.2167,-4.1599,-4.1141,-4.0527,-3.9602,-3.9502,-3.9502,-3.9502,-3.9127,-3.8905,-3.8905,-3.8905,-3.8905,-3.8905,-3.9045,-3.9127,-3.9127,-3.9268,-3.9421,-3.9566,-3.9702,-3.9788,-3.987,-3.987,-3.987,-3.987,-3.987,-3.987,-3.987,-3.987,-3.987,-3.987,-4.0017,-4.0077,-4.0098,-4.0253,-4.031,-4.031,-4.031,-4.031,-4.031,-4.031,-4.031,-4.031,-4.031,-4.031,-4.031,-4.031,-4.031,-4.031,-4.031,-4.0327,-4.0396,-4.046,-4.0534,-4.0602,-4.0681,-4.0754,-4.0798,-4.0787,-4.0829,-4.0906,-4.0976,-4.0984,-4.0882,-4.0557,-3.9716,-3.8819,-3.802,-3.7156,0.0,-3.6044,-3.5966,-3.5942,-3.5958,-3.5948,-3.6143,-3.6631,0.0,0.0,-3.665,-3.6991,-3.6791,-3.5928,-3.6356,-3.5967,-3.4603,-3.3414,-3.2318,-3.1348,-3.0942,-3.0748,-3.0739,-3.0739,-3.0779,-3.079,-3.0808,-3.0526,-3.0136,-3.0609,-3.0235,-2.9472,-3.0404,-3.0442,-3.0055,-3.0482,-3.0585,-3.0492,-4.0616,-4.1036,-4.1246,-4.0444,-4.0979,-4.1495,-4.1495,-4.1495,-4.1474,-4.1364,-4.1152,-4.0722,-4.0061,-3.9774,-3.9661,-3.9792,-3.9679,-3.9599,-3.9526,-3.9502,-3.9502,-3.9502,-3.9551,-3.9575,-3.9575,-3.9599,-3.9739,-3.9956,-4.0176,-4.031,-4.031,-4.031,-4.031,-4.031,-4.031,-4.031,-4.031,-4.031,-4.031,-4.031,-4.031,-4.031,-4.031,-4.031,-4.031,-4.031,-4.031,-4.031,-4.031,-4.031,-4.031,-4.031,-4.0328,-4.0328,-4.0328,-4.0345,-4.0363,-4.0364,-4.0346,-4.043,-4.0564,-4.0694,-4.073,-4.0742,-4.0754,-4.0859,-4.0929,-4.0924,-4.1013,-4.11,-4.11,-4.0983,-4.0691,-4.0096,-3.9672,-3.895,-3.7585,0.0,-3.6836,-3.6087,-3.5997,-3.5997,-3.6009,-3.6005,-3.6005,-3.6005,-3.6005,-3.6005,0.0,-3.666,-3.6684,-3.5933,-3.6031,-3.5616,-3.4603,-3.3064,-3.2231,-3.2094,-3.1213,-3.0799,-3.0799,-3.0799,-3.0802,-3.0794,-3.0792,-3.0801,-3.0808,-3.0807,-3.0782,-3.0774,-3.0709,-3.0697,-3.0678,-3.061,-3.0586,-3.055,-4.1342,-4.1399,-4.1246,-4.0444,-4.0979,-4.1495,-4.1495,-4.1495,-4.1762,-4.2448,-4.1284,-4.0902,-4.2139,-4.1015,-4.0443,-4.1129,-4.0577,-3.9975,-3.9526,-3.9502,-3.9502,-3.9502,-3.9717,-3.9848,-3.9848,-4.0057,-4.0215,-4.0234,-4.0291,-4.031,-4.031,-4.031,-4.031,-4.031,-4.031,-4.031,-4.031,-4.031,-4.031,-4.031,-4.031,-4.031,-4.031,-4.031,-4.031,-4.031,-4.031,-4.031,-4.031,-4.031,-4.031,-4.031,-4.0427,-4.0476,-4.0489,-4.0602,-4.0629,-4.0602,-4.0489,-4.0579,-4.0694,-4.0839,-4.0859,-4.0904,-4.1013,-4.1045,-4.1075,-4.1075,-4.1086,-4.1091,-4.1091,-4.0506,-4.0194,-4.0803,-3.9091,-3.7831,-3.8241,0.0,-3.6147,-3.6027,-3.6004,-3.5997,-3.5997,-3.6009,-3.6005,-3.6005,-3.6005,-3.6005,-3.6005,-3.6118,-3.6118,-3.6001,-3.664,-3.622,-3.4622,-3.3668,-3.2835,-3.2094,-3.1213,-3.0799,-3.0799,-3.0799,-3.0802,-3.0794,-3.0792,-3.0801,-3.0808,-3.0807,-3.0774,-3.0709,-3.0703,-3.0678,-3.0602,-3.0604,-3.0501,-3.0436,-4.0941,-4.0845,-4.075,-4.0368,-4.0616,-4.0998,-4.1418,-4.1495,-4.1628,-4.2049,-4.1437,-4.1074,-4.1418,-4.0769,-4.0463,-4.0826,-4.052,-4.0196,-3.9954,-3.9933,-3.9933,-3.9933,-4.0057,-4.0118,-4.0118,-4.0234,-4.031,-4.031,-4.031,-4.031,-4.031,-4.031,-4.031,-4.031,-4.031,-4.031,-4.031,-4.031,-4.031,-4.031,-4.031,-4.031,-4.031,-4.031,-4.031,-4.031,-4.031,-4.0364,-4.0413,-4.0413,-4.0444,-4.0519,-4.0593,-4.0615,-4.0623,-4.0687,-4.0706,-4.0706,-4.0711,-4.0757,-4.0733,-4.0388,-4.0669,-4.0896,-4.0496,-4.0764,-4.11,-4.1096,-4.11,-4.1105,-4.1105,-4.0383,-3.9782,-3.9767,-3.8365,0.0,0.0,-3.6498,-3.5991,-3.5991,-3.6007,-3.6007,-3.6007,-3.6004,-3.5988,-3.5945,-3.5947,-3.595,-3.5956,-3.5956,-3.5951,-3.5942,-3.6317,-3.6114,-3.5315,-3.4472,-3.3629,-3.2796,-3.1914,-3.1484,-3.1435,-3.1003,-3.1044,-3.1425,-3.0993,-3.0784,-3.0747,-3.075,-3.0739,-3.0691,-3.0664,-3.0626,-3.0586,-3.0491,-3.0364,-3.0356,-4.0711,-4.0578,-4.052,-4.0329,-4.031,-4.052,-4.1132,-4.1227,-4.1285,-4.1476,-4.1495,-4.1342,-4.0941,-4.0711,-4.0673,-4.0864,-4.052,-4.0387,-4.0578,-4.0406,-4.031,-4.031,-4.031,-4.031,-4.031,-4.031,-4.031,-4.031,-4.031,-4.031,-4.031,-4.031,-4.031,-4.031,-4.031,-4.031,-4.031,-4.031,-4.031,-4.031,-4.031,-4.031,-4.0364,-4.0364,-4.0363,-4.0379,-4.0379,-4.046,-4.0545,-4.0545,-4.061,-4.0699,-4.0734,-4.0757,-4.0759,-4.078,-4.08,-4.0829,-4.0921,-4.0945,-4.0804,-4.0242,-4.0608,-4.0925,-4.0242,-4.0621,-4.1094,-4.1105,-4.109,-4.1039,-4.0844,-4.0102,-3.9309,-3.8676,0.0,0.0,0.0,-3.6106,-3.5989,-3.5989,-3.5989,-3.5989,-3.5989,-3.5989,-3.5955,-3.5898,-3.5897,-3.5893,-3.5896,-3.5901,-3.5891,-3.5898,-3.5913,-3.5914,-3.5914,-3.5066,-3.4311,-3.3676,-3.2803,-3.2358,-3.2283,-3.1657,-3.16,-3.1978,-3.1357,-3.0919,-3.0703,-3.0703,-3.0698,-3.0668,-3.0621,-3.0577,-3.0511,-3.034,-3.0241,-3.03,-4.1418,-4.1399,-4.117,-4.0444,-4.031,-4.0329,-4.0387,-4.0387,-4.0654,-4.1399,-4.1495,-4.1781,-4.2526,-4.1896,-4.1743,-4.2545,-4.1208,-4.0616,-4.1361,-4.0711,-4.031,-4.031,-4.031,-4.031,-4.031,-4.031,-4.031,-4.031,-4.031,-4.031,-4.031,-4.031,-4.031,-4.031,-4.031,-4.031,-4.031,-4.031,-4.031,-4.031,-4.031,-4.0381,-4.0492,-4.0492,-4.0564,-4.0668,-4.0668,-4.0674,-4.068,-4.068,-4.0684,-4.0721,-4.0857,-4.0882,-4.0918,-4.1025,-4.1081,-4.1061,-4.1086,-4.1086,-4.1067,-4.1013,-4.1046,-4.1074,-4.1016,-4.1042,-4.1108,-4.1108,-4.1108,-4.0854,-4.0034,-3.9234,-3.8656,-3.8534,0.0,0.0,-3.7001,-3.6431,-3.5901,-3.5901,-3.5901,-3.5901,-3.5901,-3.5901,-3.5921,-3.5899,-3.5899,-3.5896,-3.5893,-3.5896,-3.5896,-3.5899,-3.5966,-3.5986,-3.5986,-3.5127,-3.4638,-3.4506,-3.3628,-3.3203,-3.3195,-3.3138,-3.2719,-3.1998,-3.1939,-3.1445,-3.0703,-3.0703,-3.0651,-3.0604,-3.0604,-3.0491,-3.0297,-3.0241,-3.0166,-3.0316,-4.0769,-4.0769,-4.0654,-4.0348,-4.031,-4.031,-4.031,-4.031,-4.0425,-4.0731,-4.0769,-4.0883,-4.1208,-4.096,-4.0903,-4.1227,-4.0673,-4.0444,-4.075,-4.0482,-4.031,-4.031,-4.031,-4.031,-4.031,-4.031,-4.031,-4.031,-4.031,-4.031,-4.031,-4.031,-4.031,-4.031,-4.0398,-4.0411,-4.043,-4.0504,-4.0549,-4.0549,-4.0549,-4.0579,-4.0615,-4.0615,-4.0655,-4.0694,-4.0694,-4.0746,-4.0811,-4.0811,-4.0885,-4.0967,-4.1013,-4.1011,-4.1022,-4.109,-4.1097,-4.1097,-4.1097,-4.1094,-4.0972,-4.043,-4.0711,-4.0968,-4.0418,-4.0714,-4.1108,-4.1108,-4.0672,-4.0191,-3.9859,-3.8671,-3.7713,-3.7709,0.0,-3.6023,-3.6348,-3.6111,-3.5893,-3.5893,-3.5893,-3.5893,-3.5893,-3.5893,-3.5907,-3.5899,-3.5899,-3.5885,-3.5846,-3.588,-3.5899,-3.5899,-3.5929,-3.5937,-3.5937,-3.5605,-3.5156,-3.4609,-3.4256,-3.4111,-3.4098,-3.3551,-3.3122,-3.2778,-3.2233,-3.1514,-3.0711,-3.0656,-3.0563,-3.0472,-3.0389,-3.0292,-3.0237,-3.0651,-3.0766,-3.0894,-4.031,-4.031,-4.031,-4.031,-4.031,-4.031,-4.031,-4.031,-4.031,-4.031,-4.052,-4.0578,-4.0329,-4.054,-4.0692,-4.0692,-4.0463,-4.0425,-4.0654,-4.0444,-4.031,-4.031,-4.031,-4.031,-4.031,-4.031,-4.0177,-3.989,-3.9925,-3.9809,-3.9541,-3.9593,-3.9608,-3.9608,-3.9715,-3.9909,-4.0159,-4.025,-4.0442,-4.0674,-4.0397,-4.0324,-4.0319,-4.0059,-3.9964,-4.0014,-4.0014,-4.0079,-4.0142,-4.0142,-4.0226,-4.0364,-4.0617,-4.068,-4.075,-4.103,-4.0912,-4.0756,-4.103,-4.1104,-4.0964,-4.0366,-4.0659,-4.0876,-4.0006,-4.0262,-4.0615,-4.0347,-3.9804,-3.9315,-3.9022,-3.8018,-3.7106,-3.6843,-3.629,-3.5892,-3.588,-3.5875,-3.5875,-3.5875,-3.5875,-3.5875,-3.5875,-3.5875,-3.586,-3.5859,-3.5879,-3.5859,-3.5799,-3.5833,-3.5879,-3.5879,-3.588,-3.5864,-3.5873,-3.5899,-3.5593,-3.5015,-3.5015,-3.4995,-3.497,-3.4366,-3.3952,-3.3623,-3.2788,-3.1887,-3.1052,-3.0754,-3.053,-3.0362,-3.0273,-3.0333,-3.051,-3.0966,-3.1258,-3.1619,-4.0291,-4.031,-4.031,-4.031,-4.031,-4.031,-4.031,-4.031,-4.031,-4.031,-4.0998,-4.1189,-4.0387,-4.1017,-4.1476,-4.1476,-4.075,-4.0635,-4.1437,-4.075,-4.031,-4.031,-4.031,-4.0291,-4.0291,-4.0291,-3.9852,-3.8992,-3.9125,-3.8742,-3.7896,-3.8035,-3.8098,-3.8098,-3.8098,-3.8574,-3.9386,-3.9398,-3.9881,-4.0609,-3.9731,-3.946,-3.9496,-3.8626,-3.8384,-3.8497,-3.8497,-3.8506,-3.8498,-3.8498,-3.8544,-3.8746,-3.9546,-3.98,-3.9956,-4.0834,-4.0464,-3.9976,-4.0834,-4.1069,-4.1069,-4.1091,-4.1091,-4.0862,-3.9999,-3.9785,-3.9531,-3.8678,-3.8498,-3.8222,-3.7363,-3.7187,-3.6902,-3.6036,-3.5908,-3.5885,-3.5807,-3.5799,-3.5799,-3.5799,-3.5799,-3.5799,-3.5799,-3.5799,-3.5799,-3.5799,-3.5799,-3.5799,-3.5799,-3.5799,-3.5799,-3.5799,-3.5799,-3.5799,-3.5799,-3.5875,-3.5896,-3.5908,-3.5908,-3.5853,-3.5799,-3.5799,-3.5313,-3.4439,-3.3643,-3.278,-3.1845,-3.1049,-3.055,-3.0323,-3.0323,-3.0682,-3.1195,-3.107,-3.1581,-3.2411,-3.9444,-3.9942,-4.0363,-4.0363,-4.0411,-4.0438,-4.0446,-4.0511,-4.0574,-4.0582,-4.0786,-4.0848,-4.0598,-4.0791,-4.0926,-4.0926,-4.0714,-4.067,-4.093,-4.0706,-4.0584,-4.0584,-3.9908,-3.9573,-3.9658,-3.9061,-3.8637,-3.8367,-3.8415,-3.8305,-3.8035,-3.8075,-3.8098,-3.8109,-3.821,-3.8373,-3.8635,-3.8739,-3.8916,-3.913,-3.8864,-3.8799,-3.8798,-3.855,-3.8463,-3.8497,-3.8497,-3.8506,-3.8498,-3.8498,-3.8544,-3.8632,-3.8882,-3.8961,-3.9,-3.9273,-3.9156,-3.9005,-3.9214,-3.9274,-3.9411,-4.0036,-4.0192,-3.996,-3.9097,-3.8897,-3.8819,-3.8556,-3.7972,-3.744,-3.7186,-3.6624,-3.6138,-3.5877,-3.583,-3.5823,-3.5799,-3.5799,-3.5799,-3.5799,-3.5799,-3.5799,-3.5799,-3.5799,-3.5799,-3.5799,-3.5799,-3.5799,-3.5799,-3.5799,-3.5799,-3.5799,-3.5799,-3.5799,-3.5799,-3.5826,-3.5833,-3.583,-3.583,-3.5492,-3.4905,-3.5527,-3.4994,-3.3599,-3.3968,-3.3547,-3.2578,-3.2281,-3.2026,-3.1759,-3.1716,-3.1748,-3.1901,-3.2484,-3.2859,-3.3178,-3.9021,-3.9519,-3.9996,-4.0341,-4.0444,-4.0454,-4.0446,-4.053,-4.0574,-4.0568,-4.0574,-4.0579,-4.0579,-4.0596,-4.0617,-4.0617,-4.0667,-4.0703,-4.0696,-4.0699,-4.0731,-4.0772,-3.9542,-3.903,-3.9383,-3.888,-3.8299,-3.7641,-3.7656,-3.7492,-3.7191,-3.7236,-3.7272,-3.728,-3.7352,-3.7566,-3.7877,-3.7956,-3.8185,-3.8478,-3.8151,-3.8038,-3.7999,-3.7632,-3.7515,-3.7515,-3.7515,-3.75,-3.7507,-3.7507,-3.7767,-3.8082,-3.8082,-3.8082,-3.8144,-3.8465,-3.8311,-3.8101,-3.8418,-3.8494,-3.8532,-3.8682,-3.9017,-3.9056,-3.8154,-3.7948,-3.7847,-3.7498,-3.6974,-3.6593,-3.6593,-3.6161,-3.5799,-3.5799,-3.5799,-3.5791,-3.5801,-3.5801,-3.5801,-3.5754,-3.5765,-3.5765,-3.5765,-3.5765,-3.5765,-3.5765,-3.5765,-3.5765,-3.5765,-3.6095,-3.6114,-3.5765,-3.6095,-3.6114,-3.5765,-3.5765,-3.5773,-3.5799,-3.581,-3.551,-3.5025,-3.5191,-3.4874,-3.41,-3.3945,-3.365,-3.3269,-3.2889,-3.2596,-3.2387,-3.2353,-3.2448,-3.2687,-3.3212,-3.3607,-3.3944,-3.8812,-3.9059,-3.9385,-4.0262,-4.0413,-4.0432,-4.043,-4.043,-4.0447,-4.0444,-4.0444,-4.0444,-4.046,-4.0521,-4.0546,-4.0546,-4.0657,-4.0742,-4.0742,-4.0742,-4.0791,-4.0914,-3.9395,-3.8793,-3.9315,-3.9169,-3.8355,-3.6813,-3.6872,-3.6547,-3.5814,-3.5948,-3.6009,-3.6009,-3.6009,-3.6415,-3.7097,-3.7097,-3.7546,-3.8209,-3.7476,-3.7187,-3.7093,-3.63,-3.5991,-3.5991,-3.5991,-3.5991,-3.5991,-3.5991,-3.654,-3.7184,-3.7187,-3.7168,-3.7329,-3.8046,-3.7715,-3.7264,-3.8051,-3.8277,-3.8056,-3.7205,-3.762,-3.803,-3.7186,-3.698,-3.6767,-3.597,-3.5799,-3.5791,-3.5791,-3.5791,-3.5791,-3.5791,-3.5791,-3.5782,-3.5784,-3.5794,-3.5766,-3.5708,-3.5708,-3.5708,-3.5708,-3.5708,-3.5708,-3.5708,-3.5708,-3.5708,-3.5708,-3.6455,-3.6513,-3.5728,-3.6484,-3.6493,-3.5708,-3.5708,-3.5727,-3.5791,-3.5784,-3.5736,-3.563,-3.4914,-3.4863,-3.5258,-3.3762,-3.3429,-3.3926,-3.3127,-3.273,-3.2599,-3.2599,-3.2958,-3.3513,-3.3513,-3.3963,-3.4602,-3.8059,-3.8804,-3.9515,-4.0342,-4.0554,-4.0626,-4.0615,-4.0668,-4.0754,-4.0859,-4.082,-4.083,-4.0945,-4.0967,-4.0974,-4.0974,-4.1006,-4.1017,-4.1017,-4.1008,-4.1022,-4.1051,-4.068,-3.9954,-3.879,-3.7444,-3.6551,-3.6206,-3.6207,-3.6138,-3.5966,-3.5981,-3.6007,-3.6007,-3.6007,-3.6105,-3.6261,-3.6261,-3.6378,-3.6534,-3.6359,-3.6281,-3.6264,-3.6069,-3.5991,-3.5991,-3.5991,-3.5991,-3.5991,-3.5991,-3.613,-3.627,-3.6227,-3.619,-3.623,-3.6419,-3.6333,-3.6211,-3.6411,-3.6455,-3.6401,-3.6156,-3.6227,-3.6338,-3.6122,-3.6075,-3.6036,-3.5838,-3.5799,-3.581,-3.5793,-3.5812,-3.5784,-3.5727,-3.5718,-3.5718,-3.5718,-3.5718,-3.5708,-3.5708,-3.5708,-3.5708,-3.5708,-3.5708,-3.5708,-3.5708,-3.5708,-3.5708,-3.5708,-3.5883,-3.5902,-3.5708,-3.5883,-3.5902,-3.5708,-3.5708,-3.5708,-3.5718,-3.5718,-3.5301,-3.4558,-3.506,-3.4886,-3.4246,-3.4572,-3.4694,-3.4679,-3.4489,-3.4283,-3.412,-3.412,-3.4212,-3.4339,-3.4339,-3.4451,-3.4583,-3.7236,-3.7803,-3.8504,-3.9799,-4.008,-4.0281,-4.0679,-4.077,-4.083,-4.0894,-4.0874,-4.0882,-4.0948,-4.1019,-4.1067,-4.109,-4.1097,-4.1101,-4.1101,-4.1108,-4.1108,-4.1108,-4.0698,-3.9897,-3.8632,-3.7295,-3.643,-3.5997,-3.6004,-3.6004,-3.6004,-3.5991,-3.5991,-3.5991,-3.5991,-3.5991,-3.5991,-3.5991,-3.5991,-3.5991,-3.5991,-3.5991,-3.5991,-3.5991,-3.5991,-3.5991,-3.5991,-3.5991,-3.5991,-3.5991,-3.5982,-3.5951,-3.5918,-3.5897,-3.5909,-3.59,-3.5908,-3.5899,-3.5859,-3.5852,-3.5838,-3.581,-3.5773,-3.5765,-3.5791,-3.581,-3.5801,-3.5801,-3.5773,-3.5756,-3.5747,-3.5747,-3.5737,-3.5708,-3.5708,-3.5699,-3.5689,-3.5708,-3.5708,-3.5688,-3.5707,-3.5707,-3.5707,-3.5707,-3.5707,-3.5707,-3.5707,-3.5707,-3.5707,-3.6002,-3.6021,-3.5707,-3.5905,-3.6061,-3.613,-3.608,-3.6234,-3.6606,-3.5898,-3.5256,-3.4677,-3.4716,-3.4615,-3.4385,-3.4423,-3.4565,-3.4771,-3.4771,-3.4689,-3.4602,-3.4602,-3.4602,-3.4602,-3.4561,-3.4539,-3.445,-3.6619,-3.6822,-3.7362,-3.9015,-3.9403,-3.9742,-4.048,-4.0577,-4.0577,-4.0615,-4.0479,-4.0449,-4.0602,-4.0721,-4.0813,-4.087,-4.0873,-4.0932,-4.1088,-4.0952,-4.0932,-4.1088,-4.0132,-3.9273,-3.8612,-3.775,-3.6872,-3.5991,-3.5991,-3.5991,-3.5991,-3.5991,-3.5991,-3.5991,-3.5991,-3.5991,-3.5991,-3.5991,-3.5991,-3.5991,-3.5991,-3.5991,-3.5991,-3.5991,-3.5991,-3.5991,-3.5991,-3.5996,-3.5982,-3.5984,-3.5955,-3.5898,-3.5896,-3.5906,-3.59,-3.5889,-3.5872,-3.5879,-3.5826,-3.5793,-3.5775,-3.5775,-3.5737,-3.5718,-3.5773,-3.5793,-3.5775,-3.5775,-3.5737,-3.5708,-3.5699,-3.5699,-3.5699,-3.5699,-3.5689,-3.5708,-3.5707,-3.5697,-3.5687,-3.5643,-3.562,-3.5608,-3.5608,-3.5608,-3.5608,-3.5608,-3.5608,-3.5608,-3.5608,-3.6125,-3.6169,-3.5616,-3.5978,-3.6304,-3.6565,-3.6444,-3.6799,-3.7527,-3.6316,-3.5618,-3.5324,-3.4454,-3.4371,-3.4812,-3.4074,-3.4089,-3.4602,-3.4602,-3.4602,-3.4602,-3.4602,-3.4583,-3.4561,-3.4517,-3.4427,-3.4245,-3.6717,-3.6929,-3.7287,-3.8287,-3.9034,-3.9539,-3.9664,-3.9684,-3.973,-3.9818,-3.9182,-3.9026,-3.9856,-3.9946,-3.9969,-3.9976,-3.9976,-4.0307,-4.1049,-4.0385,-4.0307,-4.1069,-3.9605,-3.871,-3.8593,-3.775,-3.6872,-3.5991,-3.5991,-3.5991,-3.5991,-3.5991,-3.5991,-3.5991,-3.5991,-3.5991,-3.5991,-3.5991,-3.5991,-3.5991,-3.5991,-3.5991,-3.5991,-3.5991,-3.5991,-3.5991,-3.5991,-3.5968,-3.5918,-3.5911,-3.5903,-3.5896,-3.5903,-3.5904,-3.5889,-3.5838,-3.5799,-3.5801,-3.5812,-3.5766,-3.5708,-3.5708,-3.5708,-3.5708,-3.5718,-3.5718,-3.5708,-3.5708,-3.5708,-3.5699,-3.5698,-3.5698,-3.5707,-3.5706,-3.5695,-3.5695,-3.5695,-3.5695,-3.5631,-3.5464,-3.5288,-3.5178,-3.5178,-3.5178,-3.5178,-3.5178,-3.5178,-3.5178,-3.5178,-3.5277,-3.5277,-3.5178,-3.5245,-3.5649,-3.6411,-3.6413,-3.6709,-3.7335,-3.7204,-3.6729,-3.5951,-3.5135,-3.4717,-3.4626,-3.4513,-3.451,-3.4602,-3.4602,-3.4602,-3.4602,-3.4602,-3.4561,-3.4517,-3.445,-3.4221,-3.3947,-3.6246,-3.6363,-3.667,-3.7584,-3.8038,-3.8447,-3.892,-3.8998,-3.9023,-3.9087,-3.876,-3.867,-3.9078,-3.9136,-3.9136,-3.9136,-3.9136,-3.9292,-3.9683,-3.9331,-3.9292,-3.9683,-3.8983,-3.8375,-3.7887,-3.7497,-3.6872,-3.5991,-3.5991,-3.5991,-3.5991,-3.5991,-3.5991,-3.5991,-3.5991,-3.5991,-3.5991,-3.5991,-3.5991,-3.5991,-3.5991,-3.5991,-3.5994,-3.5968,-3.5933,-3.5933,-3.5937,-3.5935,-3.5909,-3.5899,-3.5903,-3.5899,-3.5869,-3.5833,-3.5823,-3.5754,-3.5727,-3.5747,-3.5747,-3.5728,-3.5708,-3.5708,-3.5698,-3.5707,-3.5707,-3.5707,-3.5707,-3.5698,-3.5698,-3.5697,-3.5706,-3.5706,-3.5665,-3.5546,-3.5907,-3.6003,-3.5435,-3.5787,-3.5873,-3.5315,-3.5162,-3.5114,-3.5114,-3.5114,-3.5114,-3.5114,-3.5114,-3.5114,-3.5114,-3.5032,-3.5032,-3.5098,-3.4925,-3.5287,-3.6216,-3.6594,-3.7154,-3.7838,-3.7426,-3.6804,-3.5993,-3.5616,-3.5139,-3.4602,-3.4602,-3.4602,-3.4602,-3.4602,-3.458,-3.4595,-3.5045,-3.5315,-3.544,-3.5414,-3.5174,-3.475]}]]